<?xml version="1.0" encoding="utf-8"?>
<gpx version="1.1" creator="GPS Visualizer http://www.gpsvisualizer.com/" xmlns="http://www.topografix.com/GPX/1/1" xmlns:xsi="http://www.w3.org/2001/XMLSchema-instance" xsi:schemaLocation="http://www.topografix.com/GPX/1/1 http://www.topografix.com/GPX/1/1/gpx.xsd">
<trk>
  <name>170927090723</name>
  <trkseg>
    <trkpt lat="-30.312475981" lon="153.141459972">
      <ele>28.6</ele>
      <time>2017-09-26T23:07:34Z</time>
    </trkpt>
    <trkpt lat="-30.312442956" lon="153.14141999">
      <ele>30.0</ele>
      <time>2017-09-26T23:07:38Z</time>
    </trkpt>
    <trkpt lat="-30.312432982" lon="153.141397946">
      <ele>30.4</ele>
      <time>2017-09-26T23:07:42Z</time>
    </trkpt>
    <trkpt lat="-30.312414961" lon="153.141362993">
      <ele>31.4</ele>
      <time>2017-09-26T23:07:46Z</time>
    </trkpt>
    <trkpt lat="-30.31238093" lon="153.141349917">
      <ele>30.2</ele>
      <time>2017-09-26T23:07:50Z</time>
    </trkpt>
    <trkpt lat="-30.312337931" lon="153.141319994">
      <ele>31.6</ele>
      <time>2017-09-26T23:07:54Z</time>
    </trkpt>
    <trkpt lat="-30.312355952" lon="153.141315971">
      <ele>32.4</ele>
      <time>2017-09-26T23:07:58Z</time>
    </trkpt>
    <trkpt lat="-30.312364921" lon="153.141314965">
      <ele>30.8</ele>
      <time>2017-09-26T23:08:06Z</time>
    </trkpt>
    <trkpt lat="-30.312350923" lon="153.141305996">
      <ele>33.0</ele>
      <time>2017-09-26T23:08:22Z</time>
    </trkpt>
    <trkpt lat="-30.312337931" lon="153.141290992">
      <ele>32.8</ele>
      <time>2017-09-26T23:08:26Z</time>
    </trkpt>
    <trkpt lat="-30.312354947" lon="153.141272971">
      <ele>32.4</ele>
      <time>2017-09-26T23:08:34Z</time>
    </trkpt>
    <trkpt lat="-30.312344972" lon="153.141264925">
      <ele>32.2</ele>
      <time>2017-09-26T23:08:42Z</time>
    </trkpt>
    <trkpt lat="-30.312330974" lon="153.141247993">
      <ele>32.2</ele>
      <time>2017-09-26T23:08:50Z</time>
    </trkpt>
    <trkpt lat="-30.312350923" lon="153.141229972">
      <ele>32.0</ele>
      <time>2017-09-26T23:08:54Z</time>
    </trkpt>
    <trkpt lat="-30.312365927" lon="153.141239947">
      <ele>32.6</ele>
      <time>2017-09-26T23:08:58Z</time>
    </trkpt>
    <trkpt lat="-30.312354947" lon="153.141294932">
      <ele>31.8</ele>
      <time>2017-09-26T23:10:22Z</time>
    </trkpt>
    <trkpt lat="-30.312354947" lon="153.14130499">
      <ele>32.8</ele>
      <time>2017-09-26T23:10:34Z</time>
    </trkpt>
    <trkpt lat="-30.312344972" lon="153.14127096">
      <ele>33.0</ele>
      <time>2017-09-26T23:11:46Z</time>
    </trkpt>
    <trkpt lat="-30.312359976" lon="153.141307924">
      <ele>32.4</ele>
      <time>2017-09-26T23:12:42Z</time>
    </trkpt>
    <trkpt lat="-30.312365927" lon="153.141319994">
      <ele>32.4</ele>
      <time>2017-09-26T23:13:02Z</time>
    </trkpt>
    <trkpt lat="-30.312374979" lon="153.141325945">
      <ele>32.0</ele>
      <time>2017-09-26T23:13:18Z</time>
    </trkpt>
    <trkpt lat="-30.312372968" lon="153.141335919">
      <ele>32.2</ele>
      <time>2017-09-26T23:13:22Z</time>
    </trkpt>
    <trkpt lat="-30.312370956" lon="153.141317982">
      <ele>32.0</ele>
      <time>2017-09-26T23:13:30Z</time>
    </trkpt>
    <trkpt lat="-30.31234296" lon="153.141274983">
      <ele>32.8</ele>
      <time>2017-09-26T23:13:54Z</time>
    </trkpt>
    <trkpt lat="-30.31234799" lon="153.141274983">
      <ele>32.2</ele>
      <time>2017-09-26T23:13:58Z</time>
    </trkpt>
    <trkpt lat="-30.312339943" lon="153.14127096">
      <ele>32.4</ele>
      <time>2017-09-26T23:14:02Z</time>
    </trkpt>
    <trkpt lat="-30.312365927" lon="153.141264925">
      <ele>32.4</ele>
      <time>2017-09-26T23:14:06Z</time>
    </trkpt>
    <trkpt lat="-30.31238093" lon="153.141245982">
      <ele>31.2</ele>
      <time>2017-09-26T23:14:10Z</time>
    </trkpt>
    <trkpt lat="-30.312382942" lon="153.141227961">
      <ele>32.6</ele>
      <time>2017-09-26T23:14:14Z</time>
    </trkpt>
    <trkpt lat="-30.312370956" lon="153.141229972">
      <ele>32.2</ele>
      <time>2017-09-26T23:14:26Z</time>
    </trkpt>
    <trkpt lat="-30.312359976" lon="153.141250927">
      <ele>32.0</ele>
      <time>2017-09-26T23:14:38Z</time>
    </trkpt>
    <trkpt lat="-30.312364921" lon="153.141272971">
      <ele>32.0</ele>
      <time>2017-09-26T23:14:42Z</time>
    </trkpt>
    <trkpt lat="-30.31238596" lon="153.141269954">
      <ele>31.4</ele>
      <time>2017-09-26T23:15:18Z</time>
    </trkpt>
    <trkpt lat="-30.31240792" lon="153.141310941">
      <ele>31.4</ele>
      <time>2017-09-26T23:15:22Z</time>
    </trkpt>
    <trkpt lat="-30.312429965" lon="153.141329968">
      <ele>31.4</ele>
      <time>2017-09-26T23:15:26Z</time>
    </trkpt>
    <trkpt lat="-30.312439939" lon="153.141345978">
      <ele>31.0</ele>
      <time>2017-09-26T23:15:30Z</time>
    </trkpt>
    <trkpt lat="-30.31245796" lon="153.141374979">
      <ele>30.8</ele>
      <time>2017-09-26T23:15:34Z</time>
    </trkpt>
    <trkpt lat="-30.312465923" lon="153.141394928">
      <ele>29.8</ele>
      <time>2017-09-26T23:15:38Z</time>
    </trkpt>
    <trkpt lat="-30.312472964" lon="153.141432982">
      <ele>29.4</ele>
      <time>2017-09-26T23:15:42Z</time>
    </trkpt>
    <trkpt lat="-30.312480927" lon="153.141475981">
      <ele>29.4</ele>
      <time>2017-09-26T23:15:46Z</time>
    </trkpt>
    <trkpt lat="-30.312480927" lon="153.141517974">
      <ele>29.4</ele>
      <time>2017-09-26T23:15:50Z</time>
    </trkpt>
    <trkpt lat="-30.312449997" lon="153.141547982">
      <ele>26.6</ele>
      <time>2017-09-26T23:15:54Z</time>
    </trkpt>
    <trkpt lat="-30.312410938" lon="153.141584946">
      <ele>24.6</ele>
      <time>2017-09-26T23:15:58Z</time>
    </trkpt>
    <trkpt lat="-30.312384954" lon="153.141614953">
      <ele>23.0</ele>
      <time>2017-09-26T23:16:02Z</time>
    </trkpt>
    <trkpt lat="-30.31236995" lon="153.141652923">
      <ele>23.6</ele>
      <time>2017-09-26T23:16:06Z</time>
    </trkpt>
    <trkpt lat="-30.312359976" lon="153.141674967">
      <ele>22.8</ele>
      <time>2017-09-26T23:16:10Z</time>
    </trkpt>
    <trkpt lat="-30.312352935" lon="153.141690977">
      <ele>23.0</ele>
      <time>2017-09-26T23:16:22Z</time>
    </trkpt>
    <trkpt lat="-30.31230499" lon="153.141720984">
      <ele>24.4</ele>
      <time>2017-09-26T23:16:26Z</time>
    </trkpt>
    <trkpt lat="-30.312262997" lon="153.14173297">
      <ele>26.6</ele>
      <time>2017-09-26T23:16:30Z</time>
    </trkpt>
    <trkpt lat="-30.312205916" lon="153.141767923">
      <ele>25.8</ele>
      <time>2017-09-26T23:16:34Z</time>
    </trkpt>
    <trkpt lat="-30.312160989" lon="153.141757948">
      <ele>25.6</ele>
      <time>2017-09-26T23:16:38Z</time>
    </trkpt>
    <trkpt lat="-30.312157972" lon="153.141740933">
      <ele>23.6</ele>
      <time>2017-09-26T23:16:46Z</time>
    </trkpt>
    <trkpt lat="-30.312157972" lon="153.141760966">
      <ele>24.2</ele>
      <time>2017-09-26T23:16:50Z</time>
    </trkpt>
    <trkpt lat="-30.312154954" lon="153.141789967">
      <ele>23.0</ele>
      <time>2017-09-26T23:16:54Z</time>
    </trkpt>
    <trkpt lat="-30.312149925" lon="153.141782926">
      <ele>24.8</ele>
      <time>2017-09-26T23:16:58Z</time>
    </trkpt>
    <trkpt lat="-30.312150931" lon="153.141765995">
      <ele>24.6</ele>
      <time>2017-09-26T23:17:02Z</time>
    </trkpt>
    <trkpt lat="-30.312140957" lon="153.141777981">
      <ele>24.2</ele>
      <time>2017-09-26T23:17:06Z</time>
    </trkpt>
    <trkpt lat="-30.312159983" lon="153.141752919">
      <ele>24.8</ele>
      <time>2017-09-26T23:17:14Z</time>
    </trkpt>
    <trkpt lat="-30.312175993" lon="153.141725929">
      <ele>25.2</ele>
      <time>2017-09-26T23:17:18Z</time>
    </trkpt>
    <trkpt lat="-30.312179932" lon="153.14175996">
      <ele>24.6</ele>
      <time>2017-09-26T23:17:22Z</time>
    </trkpt>
    <trkpt lat="-30.312189991" lon="153.141787956">
      <ele>24.6</ele>
      <time>2017-09-26T23:17:30Z</time>
    </trkpt>
    <trkpt lat="-30.312180938" lon="153.141745962">
      <ele>24.4</ele>
      <time>2017-09-26T23:17:50Z</time>
    </trkpt>
    <trkpt lat="-30.312125953" lon="153.141729953">
      <ele>24.0</ele>
      <time>2017-09-26T23:17:54Z</time>
    </trkpt>
    <trkpt lat="-30.312075997" lon="153.141739927">
      <ele>24.2</ele>
      <time>2017-09-26T23:18:02Z</time>
    </trkpt>
    <trkpt lat="-30.312005924" lon="153.14175996">
      <ele>23.4</ele>
      <time>2017-09-26T23:18:06Z</time>
    </trkpt>
    <trkpt lat="-30.311920932" lon="153.14173297">
      <ele>23.6</ele>
      <time>2017-09-26T23:18:10Z</time>
    </trkpt>
    <trkpt lat="-30.311812973" lon="153.141719978">
      <ele>24.0</ele>
      <time>2017-09-26T23:18:14Z</time>
    </trkpt>
    <trkpt lat="-30.311730998" lon="153.141787956">
      <ele>24.2</ele>
      <time>2017-09-26T23:18:18Z</time>
    </trkpt>
    <trkpt lat="-30.311672995" lon="153.141954923">
      <ele>23.0</ele>
      <time>2017-09-26T23:18:22Z</time>
    </trkpt>
    <trkpt lat="-30.311594959" lon="153.142132955">
      <ele>21.6</ele>
      <time>2017-09-26T23:18:26Z</time>
    </trkpt>
    <trkpt lat="-30.311460933" lon="153.142234962">
      <ele>21.6</ele>
      <time>2017-09-26T23:18:30Z</time>
    </trkpt>
    <trkpt lat="-30.311242919" lon="153.142184922">
      <ele>22.2</ele>
      <time>2017-09-26T23:18:34Z</time>
    </trkpt>
    <trkpt lat="-30.310949972" lon="153.141985936">
      <ele>22.2</ele>
      <time>2017-09-26T23:18:38Z</time>
    </trkpt>
    <trkpt lat="-30.310740927" lon="153.141630962">
      <ele>23.0</ele>
      <time>2017-09-26T23:18:42Z</time>
    </trkpt>
    <trkpt lat="-30.310574966" lon="153.14114498">
      <ele>22.4</ele>
      <time>2017-09-26T23:18:46Z</time>
    </trkpt>
    <trkpt lat="-30.310402969" lon="153.140660925">
      <ele>22.8</ele>
      <time>2017-09-26T23:18:50Z</time>
    </trkpt>
    <trkpt lat="-30.310234996" lon="153.140197992">
      <ele>21.8</ele>
      <time>2017-09-26T23:18:54Z</time>
    </trkpt>
    <trkpt lat="-30.31012997" lon="153.139754925">
      <ele>22.4</ele>
      <time>2017-09-26T23:18:58Z</time>
    </trkpt>
    <trkpt lat="-30.310102981" lon="153.139259974">
      <ele>23.6</ele>
      <time>2017-09-26T23:19:02Z</time>
    </trkpt>
    <trkpt lat="-30.309970966" lon="153.138832999">
      <ele>23.6</ele>
      <time>2017-09-26T23:19:06Z</time>
    </trkpt>
    <trkpt lat="-30.309757981" lon="153.138482971">
      <ele>23.2</ele>
      <time>2017-09-26T23:19:10Z</time>
    </trkpt>
    <trkpt lat="-30.309447935" lon="153.138262946">
      <ele>23.6</ele>
      <time>2017-09-26T23:19:14Z</time>
    </trkpt>
    <trkpt lat="-30.309287924" lon="153.13816295">
      <ele>23.6</ele>
      <time>2017-09-26T23:19:18Z</time>
    </trkpt>
    <trkpt lat="-30.309364954" lon="153.138264958">
      <ele>23.6</ele>
      <time>2017-09-26T23:19:30Z</time>
    </trkpt>
    <trkpt lat="-30.309340982" lon="153.138220953">
      <ele>24.8</ele>
      <time>2017-09-26T23:19:34Z</time>
    </trkpt>
    <trkpt lat="-30.309285996" lon="153.138159933">
      <ele>24.2</ele>
      <time>2017-09-26T23:19:38Z</time>
    </trkpt>
    <trkpt lat="-30.309267975" lon="153.138109976">
      <ele>25.4</ele>
      <time>2017-09-26T23:19:42Z</time>
    </trkpt>
    <trkpt lat="-30.309230927" lon="153.138075946">
      <ele>26.6</ele>
      <time>2017-09-26T23:19:46Z</time>
    </trkpt>
    <trkpt lat="-30.309217935" lon="153.138022972">
      <ele>26.8</ele>
      <time>2017-09-26T23:19:50Z</time>
    </trkpt>
    <trkpt lat="-30.309227994" lon="153.13796497">
      <ele>28.2</ele>
      <time>2017-09-26T23:19:54Z</time>
    </trkpt>
    <trkpt lat="-30.30925096" lon="153.137872936">
      <ele>28.8</ele>
      <time>2017-09-26T23:19:58Z</time>
    </trkpt>
    <trkpt lat="-30.30923998" lon="153.137764977">
      <ele>30.0</ele>
      <time>2017-09-26T23:20:02Z</time>
    </trkpt>
    <trkpt lat="-30.309240986" lon="153.137654923">
      <ele>30.8</ele>
      <time>2017-09-26T23:20:06Z</time>
    </trkpt>
    <trkpt lat="-30.309254983" lon="153.137535984">
      <ele>31.2</ele>
      <time>2017-09-26T23:20:10Z</time>
    </trkpt>
    <trkpt lat="-30.309282979" lon="153.137437999">
      <ele>32.2</ele>
      <time>2017-09-26T23:20:14Z</time>
    </trkpt>
    <trkpt lat="-30.309329918" lon="153.137339931">
      <ele>32.8</ele>
      <time>2017-09-26T23:20:18Z</time>
    </trkpt>
    <trkpt lat="-30.309335953" lon="153.137262985">
      <ele>33.4</ele>
      <time>2017-09-26T23:20:22Z</time>
    </trkpt>
    <trkpt lat="-30.309369983" lon="153.137197942">
      <ele>34.8</ele>
      <time>2017-09-26T23:20:26Z</time>
    </trkpt>
    <trkpt lat="-30.309380963" lon="153.137147985">
      <ele>35.6</ele>
      <time>2017-09-26T23:20:30Z</time>
    </trkpt>
    <trkpt lat="-30.309370989" lon="153.137054946">
      <ele>37.0</ele>
      <time>2017-09-26T23:20:34Z</time>
    </trkpt>
    <trkpt lat="-30.309352968" lon="153.136955956">
      <ele>37.6</ele>
      <time>2017-09-26T23:20:38Z</time>
    </trkpt>
    <trkpt lat="-30.309340982" lon="153.136887979">
      <ele>38.2</ele>
      <time>2017-09-26T23:20:42Z</time>
    </trkpt>
    <trkpt lat="-30.309344921" lon="153.136832993">
      <ele>39.0</ele>
      <time>2017-09-26T23:20:46Z</time>
    </trkpt>
    <trkpt lat="-30.309375934" lon="153.136785971">
      <ele>39.6</ele>
      <time>2017-09-26T23:20:50Z</time>
    </trkpt>
    <trkpt lat="-30.309414994" lon="153.136739954">
      <ele>40.2</ele>
      <time>2017-09-26T23:20:54Z</time>
    </trkpt>
    <trkpt lat="-30.309454976" lon="153.136682957">
      <ele>41.0</ele>
      <time>2017-09-26T23:20:58Z</time>
    </trkpt>
    <trkpt lat="-30.309495963" lon="153.136654962">
      <ele>41.4</ele>
      <time>2017-09-26T23:21:02Z</time>
    </trkpt>
    <trkpt lat="-30.309547931" lon="153.136635935">
      <ele>42.6</ele>
      <time>2017-09-26T23:21:06Z</time>
    </trkpt>
    <trkpt lat="-30.309594953" lon="153.136644987">
      <ele>42.8</ele>
      <time>2017-09-26T23:21:10Z</time>
    </trkpt>
    <trkpt lat="-30.309662931" lon="153.136672983">
      <ele>42.8</ele>
      <time>2017-09-26T23:21:14Z</time>
    </trkpt>
    <trkpt lat="-30.309795951" lon="153.136705924">
      <ele>43.8</ele>
      <time>2017-09-26T23:21:18Z</time>
    </trkpt>
    <trkpt lat="-30.309895948" lon="153.136732997">
      <ele>44.6</ele>
      <time>2017-09-26T23:21:22Z</time>
    </trkpt>
    <trkpt lat="-30.309997955" lon="153.136777924">
      <ele>45.2</ele>
      <time>2017-09-26T23:21:26Z</time>
    </trkpt>
    <trkpt lat="-30.310090994" lon="153.136810949">
      <ele>46.2</ele>
      <time>2017-09-26T23:21:30Z</time>
    </trkpt>
    <trkpt lat="-30.310185961" lon="153.136857972">
      <ele>46.8</ele>
      <time>2017-09-26T23:21:34Z</time>
    </trkpt>
    <trkpt lat="-30.310272966" lon="153.13688295">
      <ele>46.6</ele>
      <time>2017-09-26T23:21:38Z</time>
    </trkpt>
    <trkpt lat="-30.310285958" lon="153.136899965">
      <ele>46.2</ele>
      <time>2017-09-26T23:21:42Z</time>
    </trkpt>
    <trkpt lat="-30.310365921" lon="153.136885967">
      <ele>45.8</ele>
      <time>2017-09-26T23:21:46Z</time>
    </trkpt>
    <trkpt lat="-30.310459966" lon="153.13680592">
      <ele>44.6</ele>
      <time>2017-09-26T23:21:50Z</time>
    </trkpt>
    <trkpt lat="-30.310532972" lon="153.13669092">
      <ele>44.6</ele>
      <time>2017-09-26T23:21:54Z</time>
    </trkpt>
    <trkpt lat="-30.310570942" lon="153.136585979">
      <ele>44.0</ele>
      <time>2017-09-26T23:21:58Z</time>
    </trkpt>
    <trkpt lat="-30.31060799" lon="153.136505932">
      <ele>44.2</ele>
      <time>2017-09-26T23:22:02Z</time>
    </trkpt>
    <trkpt lat="-30.310637997" lon="153.136414988">
      <ele>43.8</ele>
      <time>2017-09-26T23:22:06Z</time>
    </trkpt>
    <trkpt lat="-30.310669933" lon="153.136352962">
      <ele>44.6</ele>
      <time>2017-09-26T23:22:10Z</time>
    </trkpt>
    <trkpt lat="-30.310719972" lon="153.136250954">
      <ele>44.8</ele>
      <time>2017-09-26T23:22:14Z</time>
    </trkpt>
    <trkpt lat="-30.310732964" lon="153.136180965">
      <ele>45.6</ele>
      <time>2017-09-26T23:22:18Z</time>
    </trkpt>
    <trkpt lat="-30.310730953" lon="153.136115">
      <ele>45.6</ele>
      <time>2017-09-26T23:22:22Z</time>
    </trkpt>
    <trkpt lat="-30.310724918" lon="153.136025984">
      <ele>46.0</ele>
      <time>2017-09-26T23:22:30Z</time>
    </trkpt>
    <trkpt lat="-30.310734976" lon="153.135967981">
      <ele>46.2</ele>
      <time>2017-09-26T23:22:34Z</time>
    </trkpt>
    <trkpt lat="-30.310727935" lon="153.13587293">
      <ele>46.4</ele>
      <time>2017-09-26T23:22:38Z</time>
    </trkpt>
    <trkpt lat="-30.310744951" lon="153.135770923">
      <ele>46.0</ele>
      <time>2017-09-26T23:22:42Z</time>
    </trkpt>
    <trkpt lat="-30.310730953" lon="153.135679979">
      <ele>45.6</ele>
      <time>2017-09-26T23:22:46Z</time>
    </trkpt>
    <trkpt lat="-30.310715949" lon="153.135550981">
      <ele>46.2</ele>
      <time>2017-09-26T23:22:50Z</time>
    </trkpt>
    <trkpt lat="-30.31069994" lon="153.135442939">
      <ele>46.6</ele>
      <time>2017-09-26T23:22:54Z</time>
    </trkpt>
    <trkpt lat="-30.310677979" lon="153.13533498">
      <ele>46.4</ele>
      <time>2017-09-26T23:22:58Z</time>
    </trkpt>
    <trkpt lat="-30.310652917" lon="153.135250993">
      <ele>46.2</ele>
      <time>2017-09-26T23:23:02Z</time>
    </trkpt>
    <trkpt lat="-30.310619976" lon="153.135187961">
      <ele>45.6</ele>
      <time>2017-09-26T23:23:06Z</time>
    </trkpt>
    <trkpt lat="-30.31060799" lon="153.135092994">
      <ele>44.8</ele>
      <time>2017-09-26T23:23:10Z</time>
    </trkpt>
    <trkpt lat="-30.310625928" lon="153.13500599">
      <ele>45.0</ele>
      <time>2017-09-26T23:23:14Z</time>
    </trkpt>
    <trkpt lat="-30.310639925" lon="153.134897947">
      <ele>45.2</ele>
      <time>2017-09-26T23:23:18Z</time>
    </trkpt>
    <trkpt lat="-30.310625928" lon="153.134804992">
      <ele>45.6</ele>
      <time>2017-09-26T23:23:22Z</time>
    </trkpt>
    <trkpt lat="-30.31064596" lon="153.13468094">
      <ele>46.2</ele>
      <time>2017-09-26T23:23:26Z</time>
    </trkpt>
    <trkpt lat="-30.310617965" lon="153.134542974">
      <ele>46.0</ele>
      <time>2017-09-26T23:23:30Z</time>
    </trkpt>
    <trkpt lat="-30.310585946" lon="153.134400984">
      <ele>46.2</ele>
      <time>2017-09-26T23:23:34Z</time>
    </trkpt>
    <trkpt lat="-30.31055795" lon="153.13427492">
      <ele>46.8</ele>
      <time>2017-09-26T23:23:38Z</time>
    </trkpt>
    <trkpt lat="-30.310527943" lon="153.134160927">
      <ele>46.6</ele>
      <time>2017-09-26T23:23:42Z</time>
    </trkpt>
    <trkpt lat="-30.310510928" lon="153.134052968">
      <ele>46.0</ele>
      <time>2017-09-26T23:23:46Z</time>
    </trkpt>
    <trkpt lat="-30.310475975" lon="153.133927993">
      <ele>45.6</ele>
      <time>2017-09-26T23:23:50Z</time>
    </trkpt>
    <trkpt lat="-30.310449991" lon="153.133810982">
      <ele>45.6</ele>
      <time>2017-09-26T23:23:54Z</time>
    </trkpt>
    <trkpt lat="-30.310425935" lon="153.133705957">
      <ele>44.2</ele>
      <time>2017-09-26T23:23:58Z</time>
    </trkpt>
    <trkpt lat="-30.310384948" lon="153.133605961">
      <ele>43.8</ele>
      <time>2017-09-26T23:24:02Z</time>
    </trkpt>
    <trkpt lat="-30.310325939" lon="153.133505965">
      <ele>41.8</ele>
      <time>2017-09-26T23:24:06Z</time>
    </trkpt>
    <trkpt lat="-30.310292998" lon="153.133392977">
      <ele>42.8</ele>
      <time>2017-09-26T23:24:10Z</time>
    </trkpt>
    <trkpt lat="-30.310230972" lon="153.133295998">
      <ele>43.2</ele>
      <time>2017-09-26T23:24:14Z</time>
    </trkpt>
    <trkpt lat="-30.310172969" lon="153.133210922">
      <ele>43.8</ele>
      <time>2017-09-26T23:24:18Z</time>
    </trkpt>
    <trkpt lat="-30.310127959" lon="153.133097934">
      <ele>44.0</ele>
      <time>2017-09-26T23:24:22Z</time>
    </trkpt>
    <trkpt lat="-30.31009594" lon="153.132999949">
      <ele>43.2</ele>
      <time>2017-09-26T23:24:26Z</time>
    </trkpt>
    <trkpt lat="-30.310049923" lon="153.132908">
      <ele>41.4</ele>
      <time>2017-09-26T23:24:30Z</time>
    </trkpt>
    <trkpt lat="-30.310055958" lon="153.132832982">
      <ele>39.6</ele>
      <time>2017-09-26T23:24:34Z</time>
    </trkpt>
    <trkpt lat="-30.310124941" lon="153.132829964">
      <ele>37.6</ele>
      <time>2017-09-26T23:24:38Z</time>
    </trkpt>
    <trkpt lat="-30.310154948" lon="153.132867934">
      <ele>36.6</ele>
      <time>2017-09-26T23:24:42Z</time>
    </trkpt>
    <trkpt lat="-30.310179926" lon="153.132920992">
      <ele>36.0</ele>
      <time>2017-09-26T23:24:46Z</time>
    </trkpt>
    <trkpt lat="-30.310235918" lon="153.132980922">
      <ele>33.6</ele>
      <time>2017-09-26T23:24:50Z</time>
    </trkpt>
    <trkpt lat="-30.310287969" lon="153.133015959">
      <ele>32.8</ele>
      <time>2017-09-26T23:24:54Z</time>
    </trkpt>
    <trkpt lat="-30.310339937" lon="153.133069938">
      <ele>31.2</ele>
      <time>2017-09-26T23:24:58Z</time>
    </trkpt>
    <trkpt lat="-30.310392994" lon="153.133129952">
      <ele>30.4</ele>
      <time>2017-09-26T23:25:02Z</time>
    </trkpt>
    <trkpt lat="-30.310455943" lon="153.133202959">
      <ele>29.0</ele>
      <time>2017-09-26T23:25:06Z</time>
    </trkpt>
    <trkpt lat="-30.310512939" lon="153.133262973">
      <ele>28.0</ele>
      <time>2017-09-26T23:25:10Z</time>
    </trkpt>
    <trkpt lat="-30.310582928" lon="153.133317959">
      <ele>26.0</ele>
      <time>2017-09-26T23:25:14Z</time>
    </trkpt>
    <trkpt lat="-30.310667921" lon="153.133255932">
      <ele>24.8</ele>
      <time>2017-09-26T23:25:18Z</time>
    </trkpt>
    <trkpt lat="-30.310724918" lon="153.133144956">
      <ele>24.6</ele>
      <time>2017-09-26T23:25:22Z</time>
    </trkpt>
    <trkpt lat="-30.310750986" lon="153.13304496">
      <ele>24.8</ele>
      <time>2017-09-26T23:25:26Z</time>
    </trkpt>
    <trkpt lat="-30.310770934" lon="153.133030962">
      <ele>25.0</ele>
      <time>2017-09-26T23:25:30Z</time>
    </trkpt>
    <trkpt lat="-30.310804965" lon="153.133042948">
      <ele>24.2</ele>
      <time>2017-09-26T23:25:38Z</time>
    </trkpt>
    <trkpt lat="-30.310815945" lon="153.133100951">
      <ele>23.6</ele>
      <time>2017-09-26T23:25:42Z</time>
    </trkpt>
    <trkpt lat="-30.310849976" lon="153.133130958">
      <ele>23.6</ele>
      <time>2017-09-26T23:25:46Z</time>
    </trkpt>
    <trkpt lat="-30.310862968" lon="153.133087959">
      <ele>23.8</ele>
      <time>2017-09-26T23:25:50Z</time>
    </trkpt>
    <trkpt lat="-30.310784932" lon="153.132904982">
      <ele>23.8</ele>
      <time>2017-09-26T23:25:54Z</time>
    </trkpt>
    <trkpt lat="-30.310664987" lon="153.132632989">
      <ele>24.8</ele>
      <time>2017-09-26T23:25:58Z</time>
    </trkpt>
    <trkpt lat="-30.310537918" lon="153.13231498">
      <ele>25.8</ele>
      <time>2017-09-26T23:26:02Z</time>
    </trkpt>
    <trkpt lat="-30.310399951" lon="153.132007951">
      <ele>25.8</ele>
      <time>2017-09-26T23:26:06Z</time>
    </trkpt>
    <trkpt lat="-30.310270954" lon="153.13171492">
      <ele>25.6</ele>
      <time>2017-09-26T23:26:10Z</time>
    </trkpt>
    <trkpt lat="-30.31014598" lon="153.13142499">
      <ele>26.0</ele>
      <time>2017-09-26T23:26:14Z</time>
    </trkpt>
    <trkpt lat="-30.310020922" lon="153.131140927">
      <ele>26.2</ele>
      <time>2017-09-26T23:26:18Z</time>
    </trkpt>
    <trkpt lat="-30.309959985" lon="153.130962979">
      <ele>26.4</ele>
      <time>2017-09-26T23:26:22Z</time>
    </trkpt>
    <trkpt lat="-30.309935929" lon="153.130922997">
      <ele>27.4</ele>
      <time>2017-09-26T23:26:26Z</time>
    </trkpt>
    <trkpt lat="-30.30994297" lon="153.130889973">
      <ele>27.2</ele>
      <time>2017-09-26T23:26:50Z</time>
    </trkpt>
    <trkpt lat="-30.309907934" lon="153.130864995">
      <ele>27.4</ele>
      <time>2017-09-26T23:26:58Z</time>
    </trkpt>
    <trkpt lat="-30.309917992" lon="153.130845968">
      <ele>27.4</ele>
      <time>2017-09-26T23:27:02Z</time>
    </trkpt>
    <trkpt lat="-30.309882956" lon="153.130802969">
      <ele>27.4</ele>
      <time>2017-09-26T23:27:14Z</time>
    </trkpt>
    <trkpt lat="-30.30987097" lon="153.130762987">
      <ele>26.4</ele>
      <time>2017-09-26T23:27:18Z</time>
    </trkpt>
    <trkpt lat="-30.30982093" lon="153.130725939">
      <ele>27.0</ele>
      <time>2017-09-26T23:27:22Z</time>
    </trkpt>
    <trkpt lat="-30.309770973" lon="153.130695932">
      <ele>27.4</ele>
      <time>2017-09-26T23:27:26Z</time>
    </trkpt>
    <trkpt lat="-30.309745995" lon="153.130650921">
      <ele>27.0</ele>
      <time>2017-09-26T23:27:30Z</time>
    </trkpt>
    <trkpt lat="-30.309734931" lon="153.130657962">
      <ele>26.6</ele>
      <time>2017-09-26T23:27:38Z</time>
    </trkpt>
    <trkpt lat="-30.309699979" lon="153.13061798">
      <ele>26.8</ele>
      <time>2017-09-26T23:27:46Z</time>
    </trkpt>
    <trkpt lat="-30.309665948" lon="153.130569952">
      <ele>27.0</ele>
      <time>2017-09-26T23:27:54Z</time>
    </trkpt>
    <trkpt lat="-30.309622949" lon="153.130542962">
      <ele>27.2</ele>
      <time>2017-09-26T23:27:58Z</time>
    </trkpt>
    <trkpt lat="-30.309702996" lon="153.130490994">
      <ele>27.0</ele>
      <time>2017-09-26T23:28:06Z</time>
    </trkpt>
    <trkpt lat="-30.309724957" lon="153.130525947">
      <ele>27.4</ele>
      <time>2017-09-26T23:28:10Z</time>
    </trkpt>
    <trkpt lat="-30.30968992" lon="153.130505998">
      <ele>26.6</ele>
      <time>2017-09-26T23:28:22Z</time>
    </trkpt>
    <trkpt lat="-30.309747923" lon="153.130422933">
      <ele>26.6</ele>
      <time>2017-09-26T23:28:38Z</time>
    </trkpt>
    <trkpt lat="-30.309784971" lon="153.130412959">
      <ele>27.2</ele>
      <time>2017-09-26T23:28:46Z</time>
    </trkpt>
    <trkpt lat="-30.309795951" lon="153.130442966">
      <ele>27.2</ele>
      <time>2017-09-26T23:28:50Z</time>
    </trkpt>
    <trkpt lat="-30.309797963" lon="153.130445983">
      <ele>27.4</ele>
      <time>2017-09-26T23:28:54Z</time>
    </trkpt>
    <trkpt lat="-30.309814978" lon="153.130447995">
      <ele>27.2</ele>
      <time>2017-09-26T23:29:06Z</time>
    </trkpt>
    <trkpt lat="-30.309792934" lon="153.130470961">
      <ele>26.8</ele>
      <time>2017-09-26T23:29:10Z</time>
    </trkpt>
    <trkpt lat="-30.309775919" lon="153.130467944">
      <ele>27.0</ele>
      <time>2017-09-26T23:29:14Z</time>
    </trkpt>
    <trkpt lat="-30.309772985" lon="153.130499963">
      <ele>27.0</ele>
      <time>2017-09-26T23:29:18Z</time>
    </trkpt>
    <trkpt lat="-30.309750941" lon="153.130549919">
      <ele>26.6</ele>
      <time>2017-09-26T23:29:22Z</time>
    </trkpt>
    <trkpt lat="-30.309740966" lon="153.130584955">
      <ele>26.8</ele>
      <time>2017-09-26T23:29:26Z</time>
    </trkpt>
    <trkpt lat="-30.309707941" lon="153.130604988">
      <ele>27.0</ele>
      <time>2017-09-26T23:29:30Z</time>
    </trkpt>
    <trkpt lat="-30.309692938" lon="153.130624937">
      <ele>27.2</ele>
      <time>2017-09-26T23:29:34Z</time>
    </trkpt>
    <trkpt lat="-30.309654968" lon="153.130659973">
      <ele>27.0</ele>
      <time>2017-09-26T23:29:38Z</time>
    </trkpt>
    <trkpt lat="-30.309607945" lon="153.130685957">
      <ele>27.0</ele>
      <time>2017-09-26T23:29:42Z</time>
    </trkpt>
    <trkpt lat="-30.309597971" lon="153.130690986">
      <ele>27.2</ele>
      <time>2017-09-26T23:29:46Z</time>
    </trkpt>
    <trkpt lat="-30.309784971" lon="153.130707918">
      <ele>26.6</ele>
      <time>2017-09-26T23:30:06Z</time>
    </trkpt>
    <trkpt lat="-30.309889996" lon="153.130649999">
      <ele>27.0</ele>
      <time>2017-09-26T23:30:30Z</time>
    </trkpt>
    <trkpt lat="-30.309930984" lon="153.130614962">
      <ele>26.8</ele>
      <time>2017-09-26T23:30:34Z</time>
    </trkpt>
    <trkpt lat="-30.30994297" lon="153.13070599">
      <ele>27.0</ele>
      <time>2017-09-26T23:30:38Z</time>
    </trkpt>
    <trkpt lat="-30.309912963" lon="153.130752929">
      <ele>27.0</ele>
      <time>2017-09-26T23:30:42Z</time>
    </trkpt>
    <trkpt lat="-30.309924949" lon="153.130787965">
      <ele>27.4</ele>
      <time>2017-09-26T23:30:46Z</time>
    </trkpt>
    <trkpt lat="-30.309904916" lon="153.130802969">
      <ele>27.4</ele>
      <time>2017-09-26T23:30:50Z</time>
    </trkpt>
    <trkpt lat="-30.309920926" lon="153.130757958">
      <ele>27.6</ele>
      <time>2017-09-26T23:30:54Z</time>
    </trkpt>
    <trkpt lat="-30.309955962" lon="153.13068998">
      <ele>28.8</ele>
      <time>2017-09-26T23:30:58Z</time>
    </trkpt>
    <trkpt lat="-30.309927966" lon="153.130677994">
      <ele>27.4</ele>
      <time>2017-09-26T23:31:10Z</time>
    </trkpt>
    <trkpt lat="-30.309887985" lon="153.130669948">
      <ele>27.4</ele>
      <time>2017-09-26T23:31:14Z</time>
    </trkpt>
    <trkpt lat="-30.309897959" lon="153.130652932">
      <ele>27.4</ele>
      <time>2017-09-26T23:31:18Z</time>
    </trkpt>
    <trkpt lat="-30.309845991" lon="153.130612951">
      <ele>27.8</ele>
      <time>2017-09-26T23:31:38Z</time>
    </trkpt>
    <trkpt lat="-30.309839956" lon="153.130582944">
      <ele>27.6</ele>
      <time>2017-09-26T23:31:42Z</time>
    </trkpt>
    <trkpt lat="-30.309825959" lon="153.130602976">
      <ele>27.6</ele>
      <time>2017-09-26T23:31:46Z</time>
    </trkpt>
    <trkpt lat="-30.309815984" lon="153.130614962">
      <ele>27.4</ele>
      <time>2017-09-26T23:31:50Z</time>
    </trkpt>
    <trkpt lat="-30.309800981" lon="153.130624937">
      <ele>27.4</ele>
      <time>2017-09-26T23:31:54Z</time>
    </trkpt>
    <trkpt lat="-30.30985496" lon="153.130645975">
      <ele>28.0</ele>
      <time>2017-09-26T23:32:06Z</time>
    </trkpt>
    <trkpt lat="-30.309864935" lon="153.130659973">
      <ele>27.4</ele>
      <time>2017-09-26T23:32:10Z</time>
    </trkpt>
    <trkpt lat="-30.309800981" lon="153.130715964">
      <ele>26.8</ele>
      <time>2017-09-26T23:33:26Z</time>
    </trkpt>
    <trkpt lat="-30.309802992" lon="153.13072795">
      <ele>27.0</ele>
      <time>2017-09-26T23:33:38Z</time>
    </trkpt>
    <trkpt lat="-30.309767956" lon="153.130742954">
      <ele>27.0</ele>
      <time>2017-09-26T23:33:42Z</time>
    </trkpt>
    <trkpt lat="-30.309745995" lon="153.130722921">
      <ele>27.6</ele>
      <time>2017-09-26T23:33:50Z</time>
    </trkpt>
    <trkpt lat="-30.309767956" lon="153.130677994">
      <ele>26.8</ele>
      <time>2017-09-26T23:34:06Z</time>
    </trkpt>
    <trkpt lat="-30.309795951" lon="153.130652932">
      <ele>27.0</ele>
      <time>2017-09-26T23:34:10Z</time>
    </trkpt>
    <trkpt lat="-30.309795951" lon="153.130612951">
      <ele>27.0</ele>
      <time>2017-09-26T23:34:58Z</time>
    </trkpt>
    <trkpt lat="-30.309805926" lon="153.130605994">
      <ele>27.0</ele>
      <time>2017-09-26T23:35:02Z</time>
    </trkpt>
    <trkpt lat="-30.309830988" lon="153.130615968">
      <ele>27.6</ele>
      <time>2017-09-26T23:35:06Z</time>
    </trkpt>
    <trkpt lat="-30.309869964" lon="153.130610939">
      <ele>28.0</ele>
      <time>2017-09-26T23:35:10Z</time>
    </trkpt>
    <trkpt lat="-30.309882956" lon="153.130572969">
      <ele>26.6</ele>
      <time>2017-09-26T23:35:22Z</time>
    </trkpt>
    <trkpt lat="-30.309900977" lon="153.130574981">
      <ele>27.0</ele>
      <time>2017-09-26T23:35:26Z</time>
    </trkpt>
    <trkpt lat="-30.309859989" lon="153.130620997">
      <ele>28.0</ele>
      <time>2017-09-26T23:35:46Z</time>
    </trkpt>
    <trkpt lat="-30.309840962" lon="153.130654944">
      <ele>25.8</ele>
      <time>2017-09-26T23:36:06Z</time>
    </trkpt>
    <trkpt lat="-30.309855966" lon="153.130662991">
      <ele>27.0</ele>
      <time>2017-09-26T23:36:10Z</time>
    </trkpt>
    <trkpt lat="-30.309882956" lon="153.130680928">
      <ele>26.8</ele>
      <time>2017-09-26T23:36:14Z</time>
    </trkpt>
    <trkpt lat="-30.309879938" lon="153.130709929">
      <ele>29.8</ele>
      <time>2017-09-26T23:36:18Z</time>
    </trkpt>
    <trkpt lat="-30.309907934" lon="153.13072795">
      <ele>27.4</ele>
      <time>2017-09-26T23:36:22Z</time>
    </trkpt>
    <trkpt lat="-30.309955962" lon="153.130795928">
      <ele>32.0</ele>
      <time>2017-09-26T23:36:38Z</time>
    </trkpt>
    <trkpt lat="-30.309965936" lon="153.130759969">
      <ele>26.4</ele>
      <time>2017-09-26T23:36:42Z</time>
    </trkpt>
    <trkpt lat="-30.309944982" lon="153.130750917">
      <ele>26.2</ele>
      <time>2017-09-26T23:36:46Z</time>
    </trkpt>
    <trkpt lat="-30.309967948" lon="153.130782936">
      <ele>26.6</ele>
      <time>2017-09-26T23:36:50Z</time>
    </trkpt>
    <trkpt lat="-30.309989993" lon="153.13081596">
      <ele>26.6</ele>
      <time>2017-09-26T23:36:58Z</time>
    </trkpt>
    <trkpt lat="-30.310005918" lon="153.130867928">
      <ele>26.0</ele>
      <time>2017-09-26T23:37:02Z</time>
    </trkpt>
    <trkpt lat="-30.31000793" lon="153.130879998">
      <ele>26.4</ele>
      <time>2017-09-26T23:37:06Z</time>
    </trkpt>
    <trkpt lat="-30.309975995" lon="153.130862983">
      <ele>26.4</ele>
      <time>2017-09-26T23:37:10Z</time>
    </trkpt>
    <trkpt lat="-30.309952945" lon="153.130855942">
      <ele>26.2</ele>
      <time>2017-09-26T23:37:14Z</time>
    </trkpt>
    <trkpt lat="-30.309937941" lon="153.13084295">
      <ele>26.4</ele>
      <time>2017-09-26T23:37:18Z</time>
    </trkpt>
    <trkpt lat="-30.309984963" lon="153.130839933">
      <ele>26.0</ele>
      <time>2017-09-26T23:37:26Z</time>
    </trkpt>
    <trkpt lat="-30.310020922" lon="153.130787965">
      <ele>26.8</ele>
      <time>2017-09-26T23:37:30Z</time>
    </trkpt>
    <trkpt lat="-30.309957974" lon="153.130672965">
      <ele>26.8</ele>
      <time>2017-09-26T23:37:34Z</time>
    </trkpt>
    <trkpt lat="-30.30982797" lon="153.130492922">
      <ele>25.8</ele>
      <time>2017-09-26T23:37:38Z</time>
    </trkpt>
    <trkpt lat="-30.309647927" lon="153.130184971">
      <ele>24.8</ele>
      <time>2017-09-26T23:37:42Z</time>
    </trkpt>
    <trkpt lat="-30.309412982" lon="153.129822956">
      <ele>23.2</ele>
      <time>2017-09-26T23:37:46Z</time>
    </trkpt>
    <trkpt lat="-30.309195975" lon="153.129444933">
      <ele>23.0</ele>
      <time>2017-09-26T23:37:50Z</time>
    </trkpt>
    <trkpt lat="-30.30902599" lon="153.129072944">
      <ele>22.4</ele>
      <time>2017-09-26T23:37:54Z</time>
    </trkpt>
    <trkpt lat="-30.308844941" lon="153.128700955">
      <ele>22.2</ele>
      <time>2017-09-26T23:37:58Z</time>
    </trkpt>
    <trkpt lat="-30.308669927" lon="153.128397949">
      <ele>22.4</ele>
      <time>2017-09-26T23:38:02Z</time>
    </trkpt>
    <trkpt lat="-30.308462977" lon="153.128039958">
      <ele>22.2</ele>
      <time>2017-09-26T23:38:06Z</time>
    </trkpt>
    <trkpt lat="-30.30823499" lon="153.127647936">
      <ele>22.8</ele>
      <time>2017-09-26T23:38:10Z</time>
    </trkpt>
    <trkpt lat="-30.307995938" lon="153.127212999">
      <ele>23.8</ele>
      <time>2017-09-26T23:38:14Z</time>
    </trkpt>
    <trkpt lat="-30.307769962" lon="153.126749983">
      <ele>24.0</ele>
      <time>2017-09-26T23:38:18Z</time>
    </trkpt>
    <trkpt lat="-30.307540968" lon="153.126309933">
      <ele>25.2</ele>
      <time>2017-09-26T23:38:22Z</time>
    </trkpt>
    <trkpt lat="-30.307325972" lon="153.125929981">
      <ele>25.4</ele>
      <time>2017-09-26T23:38:26Z</time>
    </trkpt>
    <trkpt lat="-30.30707594" lon="153.12549999">
      <ele>25.4</ele>
      <time>2017-09-26T23:38:30Z</time>
    </trkpt>
    <trkpt lat="-30.306819957" lon="153.125017947">
      <ele>25.2</ele>
      <time>2017-09-26T23:38:34Z</time>
    </trkpt>
    <trkpt lat="-30.306519968" lon="153.124522995">
      <ele>25.6</ele>
      <time>2017-09-26T23:38:38Z</time>
    </trkpt>
    <trkpt lat="-30.306245964" lon="153.124060985">
      <ele>25.2</ele>
      <time>2017-09-26T23:38:42Z</time>
    </trkpt>
    <trkpt lat="-30.306004984" lon="153.123602998">
      <ele>26.0</ele>
      <time>2017-09-26T23:38:46Z</time>
    </trkpt>
    <trkpt lat="-30.305794934" lon="153.12317594">
      <ele>25.2</ele>
      <time>2017-09-26T23:38:50Z</time>
    </trkpt>
    <trkpt lat="-30.305739949" lon="153.122869916">
      <ele>25.2</ele>
      <time>2017-09-26T23:38:54Z</time>
    </trkpt>
    <trkpt lat="-30.305780936" lon="153.122622985">
      <ele>25.2</ele>
      <time>2017-09-26T23:38:58Z</time>
    </trkpt>
    <trkpt lat="-30.305952933" lon="153.12235795">
      <ele>25.2</ele>
      <time>2017-09-26T23:39:02Z</time>
    </trkpt>
    <trkpt lat="-30.306194918" lon="153.122070953">
      <ele>24.8</ele>
      <time>2017-09-26T23:39:06Z</time>
    </trkpt>
    <trkpt lat="-30.306740999" lon="153.121634927">
      <ele>23.2</ele>
      <time>2017-09-26T23:39:10Z</time>
    </trkpt>
    <trkpt lat="-30.307359919" lon="153.121167971">
      <ele>23.2</ele>
      <time>2017-09-26T23:39:14Z</time>
    </trkpt>
    <trkpt lat="-30.307839951" lon="153.120807968">
      <ele>22.2</ele>
      <time>2017-09-26T23:39:18Z</time>
    </trkpt>
    <trkpt lat="-30.308229961" lon="153.120677965">
      <ele>22.8</ele>
      <time>2017-09-26T23:39:22Z</time>
    </trkpt>
    <trkpt lat="-30.308764977" lon="153.12066799">
      <ele>22.6</ele>
      <time>2017-09-26T23:39:26Z</time>
    </trkpt>
    <trkpt lat="-30.309275938" lon="153.120610993">
      <ele>24.2</ele>
      <time>2017-09-26T23:39:30Z</time>
    </trkpt>
    <trkpt lat="-30.310464995" lon="153.120390968">
      <ele>24.4</ele>
      <time>2017-09-26T23:39:38Z</time>
    </trkpt>
    <trkpt lat="-30.311042927" lon="153.120485935">
      <ele>25.0</ele>
      <time>2017-09-26T23:39:42Z</time>
    </trkpt>
    <trkpt lat="-30.311427992" lon="153.120829929">
      <ele>24.2</ele>
      <time>2017-09-26T23:39:46Z</time>
    </trkpt>
    <trkpt lat="-30.311839962" lon="153.121225974">
      <ele>24.6</ele>
      <time>2017-09-26T23:39:50Z</time>
    </trkpt>
    <trkpt lat="-30.312217986" lon="153.121739952">
      <ele>24.8</ele>
      <time>2017-09-26T23:39:54Z</time>
    </trkpt>
    <trkpt lat="-30.31261093" lon="153.122202968">
      <ele>25.6</ele>
      <time>2017-09-26T23:39:58Z</time>
    </trkpt>
    <trkpt lat="-30.312969927" lon="153.12270496">
      <ele>25.4</ele>
      <time>2017-09-26T23:40:02Z</time>
    </trkpt>
    <trkpt lat="-30.313279973" lon="153.123219945">
      <ele>26.0</ele>
      <time>2017-09-26T23:40:06Z</time>
    </trkpt>
    <trkpt lat="-30.313619943" lon="153.123755967">
      <ele>24.2</ele>
      <time>2017-09-26T23:40:10Z</time>
    </trkpt>
    <trkpt lat="-30.313944994" lon="153.12425293">
      <ele>25.4</ele>
      <time>2017-09-26T23:40:14Z</time>
    </trkpt>
    <trkpt lat="-30.314265937" lon="153.124725921">
      <ele>25.0</ele>
      <time>2017-09-26T23:40:18Z</time>
    </trkpt>
    <trkpt lat="-30.314590987" lon="153.125212993">
      <ele>24.2</ele>
      <time>2017-09-26T23:40:22Z</time>
    </trkpt>
    <trkpt lat="-30.314880917" lon="153.125667963">
      <ele>23.8</ele>
      <time>2017-09-26T23:40:26Z</time>
    </trkpt>
    <trkpt lat="-30.315150982" lon="153.12606493">
      <ele>22.6</ele>
      <time>2017-09-26T23:40:30Z</time>
    </trkpt>
    <trkpt lat="-30.315474942" lon="153.126135925">
      <ele>21.2</ele>
      <time>2017-09-26T23:40:34Z</time>
    </trkpt>
    <trkpt lat="-30.315735955" lon="153.126020925">
      <ele>21.8</ele>
      <time>2017-09-26T23:40:38Z</time>
    </trkpt>
    <trkpt lat="-30.315902922" lon="153.125852952">
      <ele>22.0</ele>
      <time>2017-09-26T23:40:42Z</time>
    </trkpt>
    <trkpt lat="-30.316080954" lon="153.125675926">
      <ele>22.2</ele>
      <time>2017-09-26T23:40:46Z</time>
    </trkpt>
    <trkpt lat="-30.316139963" lon="153.125659917">
      <ele>20.6</ele>
      <time>2017-09-26T23:40:54Z</time>
    </trkpt>
    <trkpt lat="-30.316374991" lon="153.12539597">
      <ele>20.8</ele>
      <time>2017-09-26T23:40:58Z</time>
    </trkpt>
    <trkpt lat="-30.316335931" lon="153.125387924">
      <ele>21.0</ele>
      <time>2017-09-26T23:41:02Z</time>
    </trkpt>
    <trkpt lat="-30.316315982" lon="153.125304943">
      <ele>21.0</ele>
      <time>2017-09-26T23:41:06Z</time>
    </trkpt>
    <trkpt lat="-30.316339955" lon="153.125347942">
      <ele>21.0</ele>
      <time>2017-09-26T23:41:10Z</time>
    </trkpt>
    <trkpt lat="-30.316364933" lon="153.125264961">
      <ele>21.6</ele>
      <time>2017-09-26T23:41:14Z</time>
    </trkpt>
    <trkpt lat="-30.316489991" lon="153.125157924">
      <ele>22.0</ele>
      <time>2017-09-26T23:41:18Z</time>
    </trkpt>
    <trkpt lat="-30.316642961" lon="153.125057928">
      <ele>22.4</ele>
      <time>2017-09-26T23:41:22Z</time>
    </trkpt>
    <trkpt lat="-30.316832978" lon="153.124952987">
      <ele>22.2</ele>
      <time>2017-09-26T23:41:26Z</time>
    </trkpt>
    <trkpt lat="-30.317030959" lon="153.124790965">
      <ele>22.2</ele>
      <time>2017-09-26T23:41:30Z</time>
    </trkpt>
    <trkpt lat="-30.317204967" lon="153.124737991">
      <ele>22.2</ele>
      <time>2017-09-26T23:41:34Z</time>
    </trkpt>
    <trkpt lat="-30.317525994" lon="153.12462098">
      <ele>22.0</ele>
      <time>2017-09-26T23:41:38Z</time>
    </trkpt>
    <trkpt lat="-30.317725986" lon="153.124664985">
      <ele>22.2</ele>
      <time>2017-09-26T23:41:42Z</time>
    </trkpt>
    <trkpt lat="-30.317849955" lon="153.12460497">
      <ele>21.8</ele>
      <time>2017-09-26T23:41:46Z</time>
    </trkpt>
    <trkpt lat="-30.317985993" lon="153.124525929">
      <ele>22.4</ele>
      <time>2017-09-26T23:41:50Z</time>
    </trkpt>
    <trkpt lat="-30.318025975" lon="153.124550991">
      <ele>22.0</ele>
      <time>2017-09-26T23:41:54Z</time>
    </trkpt>
    <trkpt lat="-30.318124965" lon="153.124594996">
      <ele>21.8</ele>
      <time>2017-09-26T23:41:58Z</time>
    </trkpt>
    <trkpt lat="-30.318142986" lon="153.124575969">
      <ele>21.6</ele>
      <time>2017-09-26T23:42:02Z</time>
    </trkpt>
    <trkpt lat="-30.318284975" lon="153.124289978">
      <ele>21.8</ele>
      <time>2017-09-26T23:42:06Z</time>
    </trkpt>
    <trkpt lat="-30.318532996" lon="153.124464992">
      <ele>21.2</ele>
      <time>2017-09-26T23:42:26Z</time>
    </trkpt>
    <trkpt lat="-30.318387989" lon="153.124399949">
      <ele>21.4</ele>
      <time>2017-09-26T23:42:30Z</time>
    </trkpt>
    <trkpt lat="-30.318345996" lon="153.124375977">
      <ele>22.0</ele>
      <time>2017-09-26T23:42:34Z</time>
    </trkpt>
    <trkpt lat="-30.31833292" lon="153.124345969">
      <ele>21.8</ele>
      <time>2017-09-26T23:42:38Z</time>
    </trkpt>
    <trkpt lat="-30.318327975" lon="153.12434094">
      <ele>21.6</ele>
      <time>2017-09-26T23:42:42Z</time>
    </trkpt>
    <trkpt lat="-30.318309953" lon="153.124332977">
      <ele>21.4</ele>
      <time>2017-09-26T23:43:10Z</time>
    </trkpt>
    <trkpt lat="-30.318317916" lon="153.124355944">
      <ele>21.4</ele>
      <time>2017-09-26T23:43:14Z</time>
    </trkpt>
    <trkpt lat="-30.318317916" lon="153.124402966">
      <ele>22.8</ele>
      <time>2017-09-26T23:43:18Z</time>
    </trkpt>
    <trkpt lat="-30.318339961" lon="153.124412941">
      <ele>21.8</ele>
      <time>2017-09-26T23:43:22Z</time>
    </trkpt>
    <trkpt lat="-30.318339961" lon="153.124359967">
      <ele>22.8</ele>
      <time>2017-09-26T23:43:26Z</time>
    </trkpt>
    <trkpt lat="-30.318339961" lon="153.12434094">
      <ele>22.0</ele>
      <time>2017-09-26T23:43:30Z</time>
    </trkpt>
    <trkpt lat="-30.318365945" lon="153.124344964">
      <ele>22.6</ele>
      <time>2017-09-26T23:43:42Z</time>
    </trkpt>
    <trkpt lat="-30.318362927" lon="153.124334989">
      <ele>22.0</ele>
      <time>2017-09-26T23:44:02Z</time>
    </trkpt>
    <trkpt lat="-30.318377931" lon="153.124360973">
      <ele>22.2</ele>
      <time>2017-09-26T23:44:26Z</time>
    </trkpt>
    <trkpt lat="-30.31838296" lon="153.124429956">
      <ele>24.6</ele>
      <time>2017-09-26T23:44:30Z</time>
    </trkpt>
    <trkpt lat="-30.318357982" lon="153.124447977">
      <ele>22.6</ele>
      <time>2017-09-26T23:44:34Z</time>
    </trkpt>
    <trkpt lat="-30.318329986" lon="153.124430962">
      <ele>21.8</ele>
      <time>2017-09-26T23:44:38Z</time>
    </trkpt>
    <trkpt lat="-30.318307942" lon="153.124425933">
      <ele>22.0</ele>
      <time>2017-09-26T23:44:42Z</time>
    </trkpt>
    <trkpt lat="-30.318314983" lon="153.124424927">
      <ele>22.8</ele>
      <time>2017-09-26T23:44:46Z</time>
    </trkpt>
    <trkpt lat="-30.318314983" lon="153.124420987">
      <ele>22.6</ele>
      <time>2017-09-26T23:44:50Z</time>
    </trkpt>
    <trkpt lat="-30.318327975" lon="153.124395926">
      <ele>23.0</ele>
      <time>2017-09-26T23:44:54Z</time>
    </trkpt>
    <trkpt lat="-30.318357982" lon="153.124380922">
      <ele>22.8</ele>
      <time>2017-09-26T23:45:02Z</time>
    </trkpt>
    <trkpt lat="-30.318390923" lon="153.124392992">
      <ele>22.8</ele>
      <time>2017-09-26T23:45:06Z</time>
    </trkpt>
    <trkpt lat="-30.318327975" lon="153.124399949">
      <ele>23.4</ele>
      <time>2017-09-26T23:45:14Z</time>
    </trkpt>
    <trkpt lat="-30.318285981" lon="153.124430962">
      <ele>23.2</ele>
      <time>2017-09-26T23:45:18Z</time>
    </trkpt>
    <trkpt lat="-30.318265948" lon="153.124434985">
      <ele>23.8</ele>
      <time>2017-09-26T23:45:22Z</time>
    </trkpt>
    <trkpt lat="-30.318277935" lon="153.124419982">
      <ele>23.0</ele>
      <time>2017-09-26T23:45:26Z</time>
    </trkpt>
    <trkpt lat="-30.318239965" lon="153.124429956">
      <ele>20.4</ele>
      <time>2017-09-26T23:45:30Z</time>
    </trkpt>
    <trkpt lat="-30.318185985" lon="153.124442948">
      <ele>22.4</ele>
      <time>2017-09-26T23:45:34Z</time>
    </trkpt>
    <trkpt lat="-30.318147931" lon="153.12445594">
      <ele>22.2</ele>
      <time>2017-09-26T23:45:38Z</time>
    </trkpt>
    <trkpt lat="-30.31810292" lon="153.124495922">
      <ele>21.8</ele>
      <time>2017-09-26T23:45:42Z</time>
    </trkpt>
    <trkpt lat="-30.31817995" lon="153.124419982">
      <ele>21.8</ele>
      <time>2017-09-26T23:45:46Z</time>
    </trkpt>
    <trkpt lat="-30.318249939" lon="153.12439492">
      <ele>21.8</ele>
      <time>2017-09-26T23:45:50Z</time>
    </trkpt>
    <trkpt lat="-30.318300985" lon="153.124449989">
      <ele>21.6</ele>
      <time>2017-09-26T23:45:54Z</time>
    </trkpt>
    <trkpt lat="-30.318460995" lon="153.124612933">
      <ele>22.2</ele>
      <time>2017-09-26T23:45:58Z</time>
    </trkpt>
    <trkpt lat="-30.318539953" lon="153.124699937">
      <ele>22.0</ele>
      <time>2017-09-26T23:46:02Z</time>
    </trkpt>
    <trkpt lat="-30.318557974" lon="153.124870928">
      <ele>21.8</ele>
      <time>2017-09-26T23:46:06Z</time>
    </trkpt>
    <trkpt lat="-30.318444986" lon="153.124959944">
      <ele>22.0</ele>
      <time>2017-09-26T23:46:10Z</time>
    </trkpt>
    <trkpt lat="-30.31856996" lon="153.125080978">
      <ele>21.8</ele>
      <time>2017-09-26T23:46:22Z</time>
    </trkpt>
    <trkpt lat="-30.31771794" lon="153.124839999">
      <ele>21.8</ele>
      <time>2017-09-26T23:46:26Z</time>
    </trkpt>
    <trkpt lat="-30.317570921" lon="153.124735979">
      <ele>21.6</ele>
      <time>2017-09-26T23:46:30Z</time>
    </trkpt>
    <trkpt lat="-30.317464974" lon="153.124700943">
      <ele>21.8</ele>
      <time>2017-09-26T23:46:34Z</time>
    </trkpt>
    <trkpt lat="-30.317264982" lon="153.124742936">
      <ele>21.8</ele>
      <time>2017-09-26T23:46:38Z</time>
    </trkpt>
    <trkpt lat="-30.317132967" lon="153.124819966">
      <ele>22.4</ele>
      <time>2017-09-26T23:46:42Z</time>
    </trkpt>
    <trkpt lat="-30.316923" lon="153.12484595">
      <ele>22.8</ele>
      <time>2017-09-26T23:46:50Z</time>
    </trkpt>
    <trkpt lat="-30.316777993" lon="153.124972936">
      <ele>22.4</ele>
      <time>2017-09-26T23:46:54Z</time>
    </trkpt>
    <trkpt lat="-30.316760978" lon="153.12507092">
      <ele>22.0</ele>
      <time>2017-09-26T23:46:58Z</time>
    </trkpt>
    <trkpt lat="-30.316809928" lon="153.125112997">
      <ele>22.8</ele>
      <time>2017-09-26T23:47:02Z</time>
    </trkpt>
    <trkpt lat="-30.31682292" lon="153.12514795">
      <ele>22.8</ele>
      <time>2017-09-26T23:47:06Z</time>
    </trkpt>
    <trkpt lat="-30.316760978" lon="153.125184998">
      <ele>22.2</ele>
      <time>2017-09-26T23:47:10Z</time>
    </trkpt>
    <trkpt lat="-30.316727953" lon="153.12522498">
      <ele>20.8</ele>
      <time>2017-09-26T23:47:14Z</time>
    </trkpt>
    <trkpt lat="-30.316694928" lon="153.125289939">
      <ele>21.8</ele>
      <time>2017-09-26T23:47:26Z</time>
    </trkpt>
    <trkpt lat="-30.316679925" lon="153.12531299">
      <ele>21.6</ele>
      <time>2017-09-26T23:47:34Z</time>
    </trkpt>
    <trkpt lat="-30.316644972" lon="153.12533495">
      <ele>22.0</ele>
      <time>2017-09-26T23:47:38Z</time>
    </trkpt>
    <trkpt lat="-30.316609936" lon="153.125347942">
      <ele>22.2</ele>
      <time>2017-09-26T23:47:42Z</time>
    </trkpt>
    <trkpt lat="-30.316537935" lon="153.125344925">
      <ele>22.4</ele>
      <time>2017-09-26T23:47:50Z</time>
    </trkpt>
    <trkpt lat="-30.316484962" lon="153.125332939">
      <ele>22.2</ele>
      <time>2017-09-26T23:47:58Z</time>
    </trkpt>
    <trkpt lat="-30.316460989" lon="153.125344925">
      <ele>21.8</ele>
      <time>2017-09-26T23:48:02Z</time>
    </trkpt>
    <trkpt lat="-30.316469958" lon="153.125365963">
      <ele>21.8</ele>
      <time>2017-09-26T23:48:06Z</time>
    </trkpt>
    <trkpt lat="-30.316424947" lon="153.125337968">
      <ele>21.4</ele>
      <time>2017-09-26T23:48:14Z</time>
    </trkpt>
    <trkpt lat="-30.316420924" lon="153.125284994">
      <ele>21.8</ele>
      <time>2017-09-26T23:48:18Z</time>
    </trkpt>
    <trkpt lat="-30.316399969" lon="153.125245934">
      <ele>21.8</ele>
      <time>2017-09-26T23:48:22Z</time>
    </trkpt>
    <trkpt lat="-30.316377925" lon="153.125229925">
      <ele>21.8</ele>
      <time>2017-09-26T23:48:26Z</time>
    </trkpt>
    <trkpt lat="-30.316299973" lon="153.125260938">
      <ele>21.8</ele>
      <time>2017-09-26T23:48:30Z</time>
    </trkpt>
    <trkpt lat="-30.316254962" lon="153.125249958">
      <ele>21.8</ele>
      <time>2017-09-26T23:48:34Z</time>
    </trkpt>
    <trkpt lat="-30.316192936" lon="153.12530092">
      <ele>21.8</ele>
      <time>2017-09-26T23:48:38Z</time>
    </trkpt>
    <trkpt lat="-30.316177933" lon="153.125352971">
      <ele>21.6</ele>
      <time>2017-09-26T23:48:42Z</time>
    </trkpt>
    <trkpt lat="-30.316177933" lon="153.125354983">
      <ele>21.6</ele>
      <time>2017-09-26T23:48:46Z</time>
    </trkpt>
    <trkpt lat="-30.316170976" lon="153.125365963">
      <ele>22.4</ele>
      <time>2017-09-26T23:48:50Z</time>
    </trkpt>
    <trkpt lat="-30.316215986" lon="153.12537292">
      <ele>23.0</ele>
      <time>2017-09-26T23:49:02Z</time>
    </trkpt>
    <trkpt lat="-30.316192936" lon="153.125365963">
      <ele>21.6</ele>
      <time>2017-09-26T23:49:06Z</time>
    </trkpt>
    <trkpt lat="-30.316190924" lon="153.125347942">
      <ele>21.8</ele>
      <time>2017-09-26T23:49:14Z</time>
    </trkpt>
    <trkpt lat="-30.31616997" lon="153.125325982">
      <ele>22.2</ele>
      <time>2017-09-26T23:49:18Z</time>
    </trkpt>
    <trkpt lat="-30.316140968" lon="153.125357917">
      <ele>21.8</ele>
      <time>2017-09-26T23:49:22Z</time>
    </trkpt>
    <trkpt lat="-30.316122947" lon="153.12538499">
      <ele>21.8</ele>
      <time>2017-09-26T23:49:34Z</time>
    </trkpt>
    <trkpt lat="-30.31609294" lon="153.125165971">
      <ele>25.6</ele>
      <time>2017-09-26T23:50:22Z</time>
    </trkpt>
    <trkpt lat="-30.316094952" lon="153.125144932">
      <ele>25.2</ele>
      <time>2017-09-26T23:50:26Z</time>
    </trkpt>
    <trkpt lat="-30.316125965" lon="153.125170916">
      <ele>25.0</ele>
      <time>2017-09-26T23:50:30Z</time>
    </trkpt>
    <trkpt lat="-30.316177933" lon="153.125172928">
      <ele>25.4</ele>
      <time>2017-09-26T23:50:46Z</time>
    </trkpt>
    <trkpt lat="-30.316175921" lon="153.125159936">
      <ele>25.6</ele>
      <time>2017-09-26T23:50:54Z</time>
    </trkpt>
    <trkpt lat="-30.31614298" lon="153.125115931">
      <ele>24.8</ele>
      <time>2017-09-26T23:51:18Z</time>
    </trkpt>
    <trkpt lat="-30.316157984" lon="153.125072932">
      <ele>24.6</ele>
      <time>2017-09-26T23:51:30Z</time>
    </trkpt>
    <trkpt lat="-30.316164941" lon="153.125044936">
      <ele>24.6</ele>
      <time>2017-09-26T23:51:34Z</time>
    </trkpt>
    <trkpt lat="-30.316157984" lon="153.125009984">
      <ele>24.2</ele>
      <time>2017-09-26T23:51:38Z</time>
    </trkpt>
    <trkpt lat="-30.316184973" lon="153.125057928">
      <ele>24.4</ele>
      <time>2017-09-26T23:51:50Z</time>
    </trkpt>
    <trkpt lat="-30.316170976" lon="153.125049965">
      <ele>24.8</ele>
      <time>2017-09-26T23:51:58Z</time>
    </trkpt>
    <trkpt lat="-30.316139963" lon="153.125049965">
      <ele>25.0</ele>
      <time>2017-09-26T23:52:02Z</time>
    </trkpt>
    <trkpt lat="-30.316102998" lon="153.125015935">
      <ele>25.0</ele>
      <time>2017-09-26T23:52:06Z</time>
    </trkpt>
    <trkpt lat="-30.31606595" lon="153.124999925">
      <ele>24.8</ele>
      <time>2017-09-26T23:52:10Z</time>
    </trkpt>
    <trkpt lat="-30.316129988" lon="153.125122972">
      <ele>24.6</ele>
      <time>2017-09-26T23:52:14Z</time>
    </trkpt>
    <trkpt lat="-30.316127976" lon="153.12523596">
      <ele>24.8</ele>
      <time>2017-09-26T23:52:18Z</time>
    </trkpt>
    <trkpt lat="-30.316087995" lon="153.125277953">
      <ele>24.8</ele>
      <time>2017-09-26T23:52:22Z</time>
    </trkpt>
    <trkpt lat="-30.316075925" lon="153.125302931">
      <ele>24.8</ele>
      <time>2017-09-26T23:52:26Z</time>
    </trkpt>
    <trkpt lat="-30.31606595" lon="153.125290945">
      <ele>24.4</ele>
      <time>2017-09-26T23:52:30Z</time>
    </trkpt>
    <trkpt lat="-30.316057988" lon="153.125242917">
      <ele>24.0</ele>
      <time>2017-09-26T23:52:34Z</time>
    </trkpt>
    <trkpt lat="-30.316080954" lon="153.125165971">
      <ele>22.8</ele>
      <time>2017-09-26T23:52:38Z</time>
    </trkpt>
    <trkpt lat="-30.316080954" lon="153.125115931">
      <ele>22.0</ele>
      <time>2017-09-26T23:52:46Z</time>
    </trkpt>
    <trkpt lat="-30.316075925" lon="153.125090953">
      <ele>21.8</ele>
      <time>2017-09-26T23:52:54Z</time>
    </trkpt>
    <trkpt lat="-30.316070979" lon="153.125107968">
      <ele>22.4</ele>
      <time>2017-09-26T23:52:58Z</time>
    </trkpt>
    <trkpt lat="-30.316080954" lon="153.125069998">
      <ele>22.2</ele>
      <time>2017-09-26T23:53:10Z</time>
    </trkpt>
    <trkpt lat="-30.316104926" lon="153.125084918">
      <ele>22.2</ele>
      <time>2017-09-26T23:53:18Z</time>
    </trkpt>
    <trkpt lat="-30.316125965" lon="153.125115931">
      <ele>22.4</ele>
      <time>2017-09-26T23:53:22Z</time>
    </trkpt>
    <trkpt lat="-30.316140968" lon="153.125097994">
      <ele>22.2</ele>
      <time>2017-09-26T23:53:26Z</time>
    </trkpt>
    <trkpt lat="-30.316164941" lon="153.125230931">
      <ele>21.8</ele>
      <time>2017-09-26T23:55:58Z</time>
    </trkpt>
    <trkpt lat="-30.316132922" lon="153.125225985">
      <ele>21.8</ele>
      <time>2017-09-26T23:56:02Z</time>
    </trkpt>
    <trkpt lat="-30.316107944" lon="153.125222968">
      <ele>22.8</ele>
      <time>2017-09-26T23:56:06Z</time>
    </trkpt>
    <trkpt lat="-30.316117918" lon="153.125210982">
      <ele>22.4</ele>
      <time>2017-09-26T23:56:14Z</time>
    </trkpt>
    <trkpt lat="-30.316060921" lon="153.125097994">
      <ele>23.0</ele>
      <time>2017-09-26T23:56:26Z</time>
    </trkpt>
    <trkpt lat="-30.316094952" lon="153.12500596">
      <ele>22.8</ele>
      <time>2017-09-26T23:56:54Z</time>
    </trkpt>
    <trkpt lat="-30.316042984" lon="153.125029933">
      <ele>22.8</ele>
      <time>2017-09-26T23:57:06Z</time>
    </trkpt>
    <trkpt lat="-30.316034937" lon="153.125017947">
      <ele>22.8</ele>
      <time>2017-09-26T23:57:10Z</time>
    </trkpt>
    <trkpt lat="-30.316034937" lon="153.125039991">
      <ele>22.0</ele>
      <time>2017-09-26T23:57:18Z</time>
    </trkpt>
    <trkpt lat="-30.316040972" lon="153.125074944">
      <ele>22.4</ele>
      <time>2017-09-26T23:57:22Z</time>
    </trkpt>
    <trkpt lat="-30.316064944" lon="153.125057928">
      <ele>22.6</ele>
      <time>2017-09-26T23:57:30Z</time>
    </trkpt>
    <trkpt lat="-30.316087995" lon="153.125089947">
      <ele>22.6</ele>
      <time>2017-09-26T23:57:54Z</time>
    </trkpt>
    <trkpt lat="-30.316079948" lon="153.12508299">
      <ele>22.4</ele>
      <time>2017-09-26T23:58:30Z</time>
    </trkpt>
    <trkpt lat="-30.316117918" lon="153.125024987">
      <ele>22.4</ele>
      <time>2017-09-26T23:58:34Z</time>
    </trkpt>
    <trkpt lat="-30.316150943" lon="153.125034962">
      <ele>22.8</ele>
      <time>2017-09-26T23:58:38Z</time>
    </trkpt>
    <trkpt lat="-30.316172987" lon="153.125000931">
      <ele>22.4</ele>
      <time>2017-09-26T23:58:46Z</time>
    </trkpt>
    <trkpt lat="-30.315182917" lon="153.124449989">
      <ele>22.4</ele>
      <time>2017-09-26T23:59:42Z</time>
    </trkpt>
    <trkpt lat="-30.315140923" lon="153.124377988">
      <ele>21.8</ele>
      <time>2017-09-26T23:59:46Z</time>
    </trkpt>
    <trkpt lat="-30.315500926" lon="153.124519978">
      <ele>22.6</ele>
      <time>2017-09-26T23:59:54Z</time>
    </trkpt>
    <trkpt lat="-30.315765962" lon="153.124874951">
      <ele>22.6</ele>
      <time>2017-09-26T23:59:58Z</time>
    </trkpt>
    <trkpt lat="-30.315820947" lon="153.124890961">
      <ele>22.8</ele>
      <time>2017-09-27T00:00:02Z</time>
    </trkpt>
    <trkpt lat="-30.315987999" lon="153.12503295">
      <ele>22.0</ele>
      <time>2017-09-27T00:00:14Z</time>
    </trkpt>
    <trkpt lat="-30.316030998" lon="153.125124983">
      <ele>21.8</ele>
      <time>2017-09-27T00:00:18Z</time>
    </trkpt>
    <trkpt lat="-30.316079948" lon="153.125212993">
      <ele>21.6</ele>
      <time>2017-09-27T00:00:22Z</time>
    </trkpt>
    <trkpt lat="-30.316087995" lon="153.12519799">
      <ele>22.2</ele>
      <time>2017-09-27T00:00:26Z</time>
    </trkpt>
    <trkpt lat="-30.316104926" lon="153.125184998">
      <ele>21.2</ele>
      <time>2017-09-27T00:00:30Z</time>
    </trkpt>
    <trkpt lat="-30.316117918" lon="153.125204947">
      <ele>20.8</ele>
      <time>2017-09-27T00:00:46Z</time>
    </trkpt>
    <trkpt lat="-30.316159995" lon="153.125325982">
      <ele>21.4</ele>
      <time>2017-09-27T00:01:10Z</time>
    </trkpt>
    <trkpt lat="-30.316200983" lon="153.125370992">
      <ele>21.8</ele>
      <time>2017-09-27T00:01:14Z</time>
    </trkpt>
    <trkpt lat="-30.31620794" lon="153.125365963">
      <ele>20.4</ele>
      <time>2017-09-27T00:01:22Z</time>
    </trkpt>
    <trkpt lat="-30.316225961" lon="153.125329921">
      <ele>21.8</ele>
      <time>2017-09-27T00:01:26Z</time>
    </trkpt>
    <trkpt lat="-30.31625798" lon="153.125305949">
      <ele>22.4</ele>
      <time>2017-09-27T00:01:34Z</time>
    </trkpt>
    <trkpt lat="-30.316282958" lon="153.125322964">
      <ele>21.4</ele>
      <time>2017-09-27T00:01:38Z</time>
    </trkpt>
    <trkpt lat="-30.316307936" lon="153.125309972">
      <ele>22.2</ele>
      <time>2017-09-27T00:01:42Z</time>
    </trkpt>
    <trkpt lat="-30.31636795" lon="153.125355989">
      <ele>23.0</ele>
      <time>2017-09-27T00:01:54Z</time>
    </trkpt>
    <trkpt lat="-30.31640592" lon="153.125360934">
      <ele>23.0</ele>
      <time>2017-09-27T00:01:58Z</time>
    </trkpt>
    <trkpt lat="-30.316419918" lon="153.125327993">
      <ele>20.8</ele>
      <time>2017-09-27T00:02:02Z</time>
    </trkpt>
    <trkpt lat="-30.316445986" lon="153.125280971">
      <ele>22.0</ele>
      <time>2017-09-27T00:02:06Z</time>
    </trkpt>
    <trkpt lat="-30.316450931" lon="153.125240989">
      <ele>24.0</ele>
      <time>2017-09-27T00:02:10Z</time>
    </trkpt>
    <trkpt lat="-30.31648295" lon="153.125212993">
      <ele>22.4</ele>
      <time>2017-09-27T00:02:14Z</time>
    </trkpt>
    <trkpt lat="-30.316524943" lon="153.12521995">
      <ele>21.0</ele>
      <time>2017-09-27T00:02:18Z</time>
    </trkpt>
    <trkpt lat="-30.316572972" lon="153.125209976">
      <ele>18.4</ele>
      <time>2017-09-27T00:02:22Z</time>
    </trkpt>
    <trkpt lat="-30.316594932" lon="153.125212993">
      <ele>21.4</ele>
      <time>2017-09-27T00:02:30Z</time>
    </trkpt>
    <trkpt lat="-30.316677997" lon="153.125195978">
      <ele>21.2</ele>
      <time>2017-09-27T00:02:38Z</time>
    </trkpt>
    <trkpt lat="-30.316832978" lon="153.125042925">
      <ele>21.4</ele>
      <time>2017-09-27T00:02:42Z</time>
    </trkpt>
    <trkpt lat="-30.317055937" lon="153.124952987">
      <ele>21.2</ele>
      <time>2017-09-27T00:02:46Z</time>
    </trkpt>
    <trkpt lat="-30.317217959" lon="153.124890961">
      <ele>21.4</ele>
      <time>2017-09-27T00:02:50Z</time>
    </trkpt>
    <trkpt lat="-30.317595983" lon="153.124742936">
      <ele>21.8</ele>
      <time>2017-09-27T00:02:54Z</time>
    </trkpt>
    <trkpt lat="-30.318070985" lon="153.124560965">
      <ele>22.0</ele>
      <time>2017-09-27T00:02:58Z</time>
    </trkpt>
    <trkpt lat="-30.318502989" lon="153.124410929">
      <ele>21.8</ele>
      <time>2017-09-27T00:03:02Z</time>
    </trkpt>
    <trkpt lat="-30.318620922" lon="153.124299953">
      <ele>21.2</ele>
      <time>2017-09-27T00:03:06Z</time>
    </trkpt>
    <trkpt lat="-30.31835597" lon="153.124339934">
      <ele>21.0</ele>
      <time>2017-09-27T00:03:10Z</time>
    </trkpt>
    <trkpt lat="-30.318270978" lon="153.124370947">
      <ele>20.8</ele>
      <time>2017-09-27T00:03:14Z</time>
    </trkpt>
    <trkpt lat="-30.314967921" lon="153.126160987">
      <ele>20.8</ele>
      <time>2017-09-27T00:03:54Z</time>
    </trkpt>
    <trkpt lat="-30.315044951" lon="153.126077922">
      <ele>24.4</ele>
      <time>2017-09-27T00:03:58Z</time>
    </trkpt>
    <trkpt lat="-30.314664999" lon="153.125500996">
      <ele>25.8</ele>
      <time>2017-09-27T00:04:02Z</time>
    </trkpt>
    <trkpt lat="-30.314350929" lon="153.125022976">
      <ele>26.0</ele>
      <time>2017-09-27T00:04:06Z</time>
    </trkpt>
    <trkpt lat="-30.313977934" lon="153.124550991">
      <ele>26.2</ele>
      <time>2017-09-27T00:04:10Z</time>
    </trkpt>
    <trkpt lat="-30.313617932" lon="153.123980938">
      <ele>27.4</ele>
      <time>2017-09-27T00:04:14Z</time>
    </trkpt>
    <trkpt lat="-30.313267987" lon="153.123442987">
      <ele>26.0</ele>
      <time>2017-09-27T00:04:18Z</time>
    </trkpt>
    <trkpt lat="-30.312899938" lon="153.122912999">
      <ele>26.6</ele>
      <time>2017-09-27T00:04:22Z</time>
    </trkpt>
    <trkpt lat="-30.312552927" lon="153.122332972">
      <ele>27.0</ele>
      <time>2017-09-27T00:04:26Z</time>
    </trkpt>
    <trkpt lat="-30.312165935" lon="153.121795943">
      <ele>28.2</ele>
      <time>2017-09-27T00:04:30Z</time>
    </trkpt>
    <trkpt lat="-30.311809955" lon="153.121334938">
      <ele>22.8</ele>
      <time>2017-09-27T00:04:34Z</time>
    </trkpt>
    <trkpt lat="-30.311594959" lon="153.121015923">
      <ele>20.8</ele>
      <time>2017-09-27T00:04:38Z</time>
    </trkpt>
    <trkpt lat="-30.31147493" lon="153.120850967">
      <ele>21.0</ele>
      <time>2017-09-27T00:04:42Z</time>
    </trkpt>
    <trkpt lat="-30.31153" lon="153.120877957">
      <ele>21.2</ele>
      <time>2017-09-27T00:04:46Z</time>
    </trkpt>
    <trkpt lat="-30.311494963" lon="153.120922968">
      <ele>20.6</ele>
      <time>2017-09-27T00:04:50Z</time>
    </trkpt>
    <trkpt lat="-30.311544919" lon="153.121049954">
      <ele>20.6</ele>
      <time>2017-09-27T00:04:58Z</time>
    </trkpt>
    <trkpt lat="-30.311534945" lon="153.12108499">
      <ele>21.0</ele>
      <time>2017-09-27T00:05:06Z</time>
    </trkpt>
    <trkpt lat="-30.311674923" lon="153.121024976">
      <ele>20.4</ele>
      <time>2017-09-27T00:05:10Z</time>
    </trkpt>
    <trkpt lat="-30.311682969" lon="153.120990945">
      <ele>21.4</ele>
      <time>2017-09-27T00:05:14Z</time>
    </trkpt>
    <trkpt lat="-30.311594959" lon="153.120854991">
      <ele>23.6</ele>
      <time>2017-09-27T00:05:18Z</time>
    </trkpt>
    <trkpt lat="-30.311405947" lon="153.120664973">
      <ele>23.4</ele>
      <time>2017-09-27T00:05:22Z</time>
    </trkpt>
    <trkpt lat="-30.311204949" lon="153.120395998">
      <ele>26.6</ele>
      <time>2017-09-27T00:05:26Z</time>
    </trkpt>
    <trkpt lat="-30.31098593" lon="153.120305976">
      <ele>27.2</ele>
      <time>2017-09-27T00:05:30Z</time>
    </trkpt>
    <trkpt lat="-30.310554933" lon="153.120367918">
      <ele>28.4</ele>
      <time>2017-09-27T00:05:34Z</time>
    </trkpt>
    <trkpt lat="-30.309890918" lon="153.120610993">
      <ele>28.0</ele>
      <time>2017-09-27T00:05:38Z</time>
    </trkpt>
    <trkpt lat="-30.30930494" lon="153.120742925">
      <ele>25.8</ele>
      <time>2017-09-27T00:05:42Z</time>
    </trkpt>
    <trkpt lat="-30.308770929" lon="153.120830934">
      <ele>22.4</ele>
      <time>2017-09-27T00:05:46Z</time>
    </trkpt>
    <trkpt lat="-30.308442945" lon="153.120815931">
      <ele>21.4</ele>
      <time>2017-09-27T00:05:50Z</time>
    </trkpt>
    <trkpt lat="-30.308369938" lon="153.12064494">
      <ele>21.0</ele>
      <time>2017-09-27T00:05:54Z</time>
    </trkpt>
    <trkpt lat="-30.308337919" lon="153.120585931">
      <ele>21.0</ele>
      <time>2017-09-27T00:05:58Z</time>
    </trkpt>
    <trkpt lat="-30.308302967" lon="153.120555924">
      <ele>24.2</ele>
      <time>2017-09-27T00:06:02Z</time>
    </trkpt>
    <trkpt lat="-30.308135999" lon="153.120662961">
      <ele>28.0</ele>
      <time>2017-09-27T00:06:06Z</time>
    </trkpt>
    <trkpt lat="-30.30788295" lon="153.121005949">
      <ele>32.0</ele>
      <time>2017-09-27T00:06:10Z</time>
    </trkpt>
    <trkpt lat="-30.307582961" lon="153.121390929">
      <ele>30.4</ele>
      <time>2017-09-27T00:06:14Z</time>
    </trkpt>
    <trkpt lat="-30.307180965" lon="153.121795943">
      <ele>27.8</ele>
      <time>2017-09-27T00:06:18Z</time>
    </trkpt>
    <trkpt lat="-30.306772934" lon="153.12210096">
      <ele>25.2</ele>
      <time>2017-09-27T00:06:22Z</time>
    </trkpt>
    <trkpt lat="-30.306412932" lon="153.122229958">
      <ele>24.2</ele>
      <time>2017-09-27T00:06:26Z</time>
    </trkpt>
    <trkpt lat="-30.306220986" lon="153.122297935">
      <ele>26.4</ele>
      <time>2017-09-27T00:06:30Z</time>
    </trkpt>
    <trkpt lat="-30.30586794" lon="153.122327942">
      <ele>28.8</ele>
      <time>2017-09-27T00:06:34Z</time>
    </trkpt>
    <trkpt lat="-30.305532999" lon="153.122274969">
      <ele>31.8</ele>
      <time>2017-09-27T00:06:38Z</time>
    </trkpt>
    <trkpt lat="-30.305222953" lon="153.122162987">
      <ele>32.6</ele>
      <time>2017-09-27T00:06:42Z</time>
    </trkpt>
    <trkpt lat="-30.305007957" lon="153.121909937">
      <ele>32.4</ele>
      <time>2017-09-27T00:06:46Z</time>
    </trkpt>
    <trkpt lat="-30.304915924" lon="153.121792926">
      <ele>31.4</ele>
      <time>2017-09-27T00:06:50Z</time>
    </trkpt>
    <trkpt lat="-30.304880971" lon="153.12181497">
      <ele>31.0</ele>
      <time>2017-09-27T00:06:54Z</time>
    </trkpt>
    <trkpt lat="-30.304872924" lon="153.121905997">
      <ele>30.4</ele>
      <time>2017-09-27T00:06:58Z</time>
    </trkpt>
    <trkpt lat="-30.304890946" lon="153.121914966">
      <ele>30.0</ele>
      <time>2017-09-27T00:07:02Z</time>
    </trkpt>
    <trkpt lat="-30.304914918" lon="153.122027954">
      <ele>29.8</ele>
      <time>2017-09-27T00:07:06Z</time>
    </trkpt>
    <trkpt lat="-30.304922964" lon="153.122137925">
      <ele>30.0</ele>
      <time>2017-09-27T00:07:10Z</time>
    </trkpt>
    <trkpt lat="-30.30490092" lon="153.122237921">
      <ele>29.8</ele>
      <time>2017-09-27T00:07:14Z</time>
    </trkpt>
    <trkpt lat="-30.304857921" lon="153.122289972">
      <ele>29.8</ele>
      <time>2017-09-27T00:07:18Z</time>
    </trkpt>
    <trkpt lat="-30.304834954" lon="153.122317968">
      <ele>29.8</ele>
      <time>2017-09-27T00:07:22Z</time>
    </trkpt>
    <trkpt lat="-30.304849958" lon="153.122339929">
      <ele>30.2</ele>
      <time>2017-09-27T00:07:26Z</time>
    </trkpt>
    <trkpt lat="-30.304830931" lon="153.122375971">
      <ele>29.8</ele>
      <time>2017-09-27T00:07:30Z</time>
    </trkpt>
    <trkpt lat="-30.304859933" lon="153.122417964">
      <ele>30.0</ele>
      <time>2017-09-27T00:07:34Z</time>
    </trkpt>
    <trkpt lat="-30.30482498" lon="153.122439925">
      <ele>30.2</ele>
      <time>2017-09-27T00:07:42Z</time>
    </trkpt>
    <trkpt lat="-30.304805953" lon="153.122457946">
      <ele>30.2</ele>
      <time>2017-09-27T00:07:46Z</time>
    </trkpt>
    <trkpt lat="-30.304800924" lon="153.122470938">
      <ele>30.0</ele>
      <time>2017-09-27T00:08:06Z</time>
    </trkpt>
    <trkpt lat="-30.304779969" lon="153.122507986">
      <ele>30.4</ele>
      <time>2017-09-27T00:08:10Z</time>
    </trkpt>
    <trkpt lat="-30.304764966" lon="153.122496">
      <ele>30.6</ele>
      <time>2017-09-27T00:08:14Z</time>
    </trkpt>
    <trkpt lat="-30.304730935" lon="153.122497927">
      <ele>30.0</ele>
      <time>2017-09-27T00:08:18Z</time>
    </trkpt>
    <trkpt lat="-30.304712998" lon="153.122482924">
      <ele>29.8</ele>
      <time>2017-09-27T00:08:22Z</time>
    </trkpt>
    <trkpt lat="-30.304730935" lon="153.122387957">
      <ele>31.4</ele>
      <time>2017-09-27T00:08:26Z</time>
    </trkpt>
    <trkpt lat="-30.304719955" lon="153.122197939">
      <ele>32.0</ele>
      <time>2017-09-27T00:08:30Z</time>
    </trkpt>
    <trkpt lat="-30.304679973" lon="153.12194095">
      <ele>31.6</ele>
      <time>2017-09-27T00:08:34Z</time>
    </trkpt>
    <trkpt lat="-30.30467595" lon="153.121720925">
      <ele>31.8</ele>
      <time>2017-09-27T00:08:38Z</time>
    </trkpt>
    <trkpt lat="-30.304710986" lon="153.12171598">
      <ele>32.0</ele>
      <time>2017-09-27T00:08:42Z</time>
    </trkpt>
    <trkpt lat="-30.304832943" lon="153.12182595">
      <ele>31.4</ele>
      <time>2017-09-27T00:08:46Z</time>
    </trkpt>
    <trkpt lat="-30.305060931" lon="153.122054944">
      <ele>28.0</ele>
      <time>2017-09-27T00:08:50Z</time>
    </trkpt>
    <trkpt lat="-30.305210967" lon="153.122270945">
      <ele>27.2</ele>
      <time>2017-09-27T00:08:54Z</time>
    </trkpt>
    <trkpt lat="-30.305282967" lon="153.12236499">
      <ele>27.2</ele>
      <time>2017-09-27T00:08:58Z</time>
    </trkpt>
    <trkpt lat="-30.30531792" lon="153.122412935">
      <ele>27.0</ele>
      <time>2017-09-27T00:09:02Z</time>
    </trkpt>
    <trkpt lat="-30.30534097" lon="153.122447971">
      <ele>26.6</ele>
      <time>2017-09-27T00:09:06Z</time>
    </trkpt>
    <trkpt lat="-30.305382963" lon="153.122480996">
      <ele>27.0</ele>
      <time>2017-09-27T00:09:10Z</time>
    </trkpt>
    <trkpt lat="-30.305449935" lon="153.12251796">
      <ele>27.0</ele>
      <time>2017-09-27T00:09:18Z</time>
    </trkpt>
    <trkpt lat="-30.305542974" lon="153.122657938">
      <ele>28.0</ele>
      <time>2017-09-27T00:09:22Z</time>
    </trkpt>
    <trkpt lat="-30.305775991" lon="153.122729938">
      <ele>24.2</ele>
      <time>2017-09-27T00:09:26Z</time>
    </trkpt>
    <trkpt lat="-30.305924937" lon="153.122550985">
      <ele>25.4</ele>
      <time>2017-09-27T00:09:30Z</time>
    </trkpt>
    <trkpt lat="-30.305850925" lon="153.122362979">
      <ele>26.2</ele>
      <time>2017-09-27T00:09:34Z</time>
    </trkpt>
    <trkpt lat="-30.305747995" lon="153.12210096">
      <ele>30.6</ele>
      <time>2017-09-27T00:09:38Z</time>
    </trkpt>
    <trkpt lat="-30.305519924" lon="153.121587988">
      <ele>33.2</ele>
      <time>2017-09-27T00:09:42Z</time>
    </trkpt>
    <trkpt lat="-30.305387992" lon="153.121239971">
      <ele>35.8</ele>
      <time>2017-09-27T00:09:46Z</time>
    </trkpt>
    <trkpt lat="-30.305185989" lon="153.121079961">
      <ele>38.2</ele>
      <time>2017-09-27T00:09:50Z</time>
    </trkpt>
    <trkpt lat="-30.304989936" lon="153.121075938">
      <ele>37.8</ele>
      <time>2017-09-27T00:09:54Z</time>
    </trkpt>
    <trkpt lat="-30.304749962" lon="153.120962949">
      <ele>37.8</ele>
      <time>2017-09-27T00:09:58Z</time>
    </trkpt>
    <trkpt lat="-30.304599926" lon="153.120852979">
      <ele>40.0</ele>
      <time>2017-09-27T00:10:02Z</time>
    </trkpt>
    <trkpt lat="-30.304512922" lon="153.120699925">
      <ele>43.0</ele>
      <time>2017-09-27T00:10:06Z</time>
    </trkpt>
    <trkpt lat="-30.304529937" lon="153.120639995">
      <ele>43.4</ele>
      <time>2017-09-27T00:10:10Z</time>
    </trkpt>
    <trkpt lat="-30.304607973" lon="153.120674947">
      <ele>43.8</ele>
      <time>2017-09-27T00:10:14Z</time>
    </trkpt>
    <trkpt lat="-30.304690953" lon="153.120687939">
      <ele>43.8</ele>
      <time>2017-09-27T00:10:18Z</time>
    </trkpt>
    <trkpt lat="-30.304717943" lon="153.120767986">
      <ele>44.6</ele>
      <time>2017-09-27T00:10:30Z</time>
    </trkpt>
    <trkpt lat="-30.304745939" lon="153.120785924">
      <ele>45.6</ele>
      <time>2017-09-27T00:10:34Z</time>
    </trkpt>
    <trkpt lat="-30.304744933" lon="153.120779973">
      <ele>46.6</ele>
      <time>2017-09-27T00:10:38Z</time>
    </trkpt>
    <trkpt lat="-30.304762954" lon="153.12078299">
      <ele>47.2</ele>
      <time>2017-09-27T00:10:42Z</time>
    </trkpt>
    <trkpt lat="-30.30479799" lon="153.120689951">
      <ele>49.8</ele>
      <time>2017-09-27T00:10:54Z</time>
    </trkpt>
    <trkpt lat="-30.304804947" lon="153.120650975">
      <ele>50.2</ele>
      <time>2017-09-27T00:10:58Z</time>
    </trkpt>
    <trkpt lat="-30.304804947" lon="153.120627925">
      <ele>50.8</ele>
      <time>2017-09-27T00:11:02Z</time>
    </trkpt>
    <trkpt lat="-30.304817939" lon="153.120535975">
      <ele>51.2</ele>
      <time>2017-09-27T00:11:10Z</time>
    </trkpt>
    <trkpt lat="-30.304810982" lon="153.120475961">
      <ele>51.4</ele>
      <time>2017-09-27T00:11:14Z</time>
    </trkpt>
    <trkpt lat="-30.304782987" lon="153.120145965">
      <ele>52.4</ele>
      <time>2017-09-27T00:12:06Z</time>
    </trkpt>
    <trkpt lat="-30.304782987" lon="153.120137919">
      <ele>52.4</ele>
      <time>2017-09-27T00:12:10Z</time>
    </trkpt>
    <trkpt lat="-30.304805953" lon="153.120120987">
      <ele>52.0</ele>
      <time>2017-09-27T00:12:18Z</time>
    </trkpt>
    <trkpt lat="-30.304819951" lon="153.120105984">
      <ele>52.4</ele>
      <time>2017-09-27T00:12:22Z</time>
    </trkpt>
    <trkpt lat="-30.30478592" lon="153.119919989">
      <ele>52.0</ele>
      <time>2017-09-27T00:12:46Z</time>
    </trkpt>
    <trkpt lat="-30.304799918" lon="153.119845977">
      <ele>52.4</ele>
      <time>2017-09-27T00:12:58Z</time>
    </trkpt>
    <trkpt lat="-30.304810982" lon="153.119844971">
      <ele>52.0</ele>
      <time>2017-09-27T00:13:10Z</time>
    </trkpt>
    <trkpt lat="-30.30486295" lon="153.119852934">
      <ele>52.8</ele>
      <time>2017-09-27T00:13:18Z</time>
    </trkpt>
    <trkpt lat="-30.304922964" lon="153.119889982">
      <ele>52.8</ele>
      <time>2017-09-27T00:13:22Z</time>
    </trkpt>
    <trkpt lat="-30.304922964" lon="153.119957959">
      <ele>52.4</ele>
      <time>2017-09-27T00:14:02Z</time>
    </trkpt>
    <trkpt lat="-30.304899998" lon="153.119970951">
      <ele>53.0</ele>
      <time>2017-09-27T00:14:06Z</time>
    </trkpt>
    <trkpt lat="-30.304910978" lon="153.120000958">
      <ele>52.6</ele>
      <time>2017-09-27T00:14:34Z</time>
    </trkpt>
    <trkpt lat="-30.304910978" lon="153.119960977">
      <ele>53.2</ele>
      <time>2017-09-27T00:14:38Z</time>
    </trkpt>
    <trkpt lat="-30.304817939" lon="153.119877996">
      <ele>52.8</ele>
      <time>2017-09-27T00:15:34Z</time>
    </trkpt>
    <trkpt lat="-30.304825986" lon="153.119929964">
      <ele>52.6</ele>
      <time>2017-09-27T00:16:14Z</time>
    </trkpt>
    <trkpt lat="-30.304822968" lon="153.119977992">
      <ele>53.2</ele>
      <time>2017-09-27T00:16:46Z</time>
    </trkpt>
    <trkpt lat="-30.304735964" lon="153.119992996">
      <ele>53.0</ele>
      <time>2017-09-27T00:17:18Z</time>
    </trkpt>
    <trkpt lat="-30.304714926" lon="153.119974975">
      <ele>52.8</ele>
      <time>2017-09-27T00:17:26Z</time>
    </trkpt>
    <trkpt lat="-30.304730935" lon="153.119964916">
      <ele>52.6</ele>
      <time>2017-09-27T00:17:34Z</time>
    </trkpt>
    <trkpt lat="-30.304754991" lon="153.119969945">
      <ele>52.0</ele>
      <time>2017-09-27T00:17:38Z</time>
    </trkpt>
    <trkpt lat="-30.304784998" lon="153.119984949">
      <ele>52.4</ele>
      <time>2017-09-27T00:17:42Z</time>
    </trkpt>
    <trkpt lat="-30.304827997" lon="153.119969945">
      <ele>52.0</ele>
      <time>2017-09-27T00:17:46Z</time>
    </trkpt>
    <trkpt lat="-30.304867979" lon="153.12004094">
      <ele>52.6</ele>
      <time>2017-09-27T00:17:58Z</time>
    </trkpt>
    <trkpt lat="-30.304865967" lon="153.120077988">
      <ele>53.2</ele>
      <time>2017-09-27T00:18:02Z</time>
    </trkpt>
    <trkpt lat="-30.304867979" lon="153.120084945">
      <ele>53.4</ele>
      <time>2017-09-27T00:18:06Z</time>
    </trkpt>
    <trkpt lat="-30.304905949" lon="153.120099949">
      <ele>53.2</ele>
      <time>2017-09-27T00:18:10Z</time>
    </trkpt>
    <trkpt lat="-30.304915924" lon="153.120157951">
      <ele>50.8</ele>
      <time>2017-09-27T00:18:14Z</time>
    </trkpt>
    <trkpt lat="-30.304935956" lon="153.120225929">
      <ele>48.8</ele>
      <time>2017-09-27T00:18:18Z</time>
    </trkpt>
    <trkpt lat="-30.304952972" lon="153.120297929">
      <ele>47.2</ele>
      <time>2017-09-27T00:18:22Z</time>
    </trkpt>
    <trkpt lat="-30.304949954" lon="153.120362973">
      <ele>49.4</ele>
      <time>2017-09-27T00:18:26Z</time>
    </trkpt>
    <trkpt lat="-30.304937968" lon="153.120399937">
      <ele>43.8</ele>
      <time>2017-09-27T00:18:30Z</time>
    </trkpt>
    <trkpt lat="-30.304964958" lon="153.120454922">
      <ele>46.2</ele>
      <time>2017-09-27T00:18:34Z</time>
    </trkpt>
    <trkpt lat="-30.305012986" lon="153.120535975">
      <ele>45.2</ele>
      <time>2017-09-27T00:18:38Z</time>
    </trkpt>
    <trkpt lat="-30.305030923" lon="153.120649969">
      <ele>44.0</ele>
      <time>2017-09-27T00:18:54Z</time>
    </trkpt>
    <trkpt lat="-30.30501592" lon="153.12070596">
      <ele>44.2</ele>
      <time>2017-09-27T00:19:02Z</time>
    </trkpt>
    <trkpt lat="-30.305007957" lon="153.120740997">
      <ele>45.0</ele>
      <time>2017-09-27T00:19:06Z</time>
    </trkpt>
    <trkpt lat="-30.305030923" lon="153.120789947">
      <ele>45.2</ele>
      <time>2017-09-27T00:19:10Z</time>
    </trkpt>
    <trkpt lat="-30.304914918" lon="153.120947946">
      <ele>44.8</ele>
      <time>2017-09-27T00:19:34Z</time>
    </trkpt>
    <trkpt lat="-30.304845935" lon="153.120975941">
      <ele>44.8</ele>
      <time>2017-09-27T00:19:54Z</time>
    </trkpt>
    <trkpt lat="-30.304857921" lon="153.120980971">
      <ele>44.6</ele>
      <time>2017-09-27T00:20:02Z</time>
    </trkpt>
    <trkpt lat="-30.304867979" lon="153.120994968">
      <ele>45.0</ele>
      <time>2017-09-27T00:20:34Z</time>
    </trkpt>
    <trkpt lat="-30.304782987" lon="153.120999997">
      <ele>45.6</ele>
      <time>2017-09-27T00:21:10Z</time>
    </trkpt>
    <trkpt lat="-30.304777957" lon="153.121000919">
      <ele>45.2</ele>
      <time>2017-09-27T00:21:18Z</time>
    </trkpt>
    <trkpt lat="-30.304795979" lon="153.121004943">
      <ele>44.8</ele>
      <time>2017-09-27T00:21:22Z</time>
    </trkpt>
    <trkpt lat="-30.304750968" lon="153.121027993">
      <ele>45.2</ele>
      <time>2017-09-27T00:21:30Z</time>
    </trkpt>
    <trkpt lat="-30.304805953" lon="153.120987928">
      <ele>45.6</ele>
      <time>2017-09-27T00:21:58Z</time>
    </trkpt>
    <trkpt lat="-30.304855993" lon="153.120995974">
      <ele>45.4</ele>
      <time>2017-09-27T00:22:02Z</time>
    </trkpt>
    <trkpt lat="-30.304902932" lon="153.120974936">
      <ele>45.4</ele>
      <time>2017-09-27T00:22:06Z</time>
    </trkpt>
    <trkpt lat="-30.304829925" lon="153.121022964">
      <ele>45.6</ele>
      <time>2017-09-27T00:22:34Z</time>
    </trkpt>
    <trkpt lat="-30.304834954" lon="153.120904947">
      <ele>45.0</ele>
      <time>2017-09-27T00:23:30Z</time>
    </trkpt>
    <trkpt lat="-30.304830931" lon="153.120910982">
      <ele>46.6</ele>
      <time>2017-09-27T00:23:34Z</time>
    </trkpt>
    <trkpt lat="-30.304842917" lon="153.120914921">
      <ele>45.8</ele>
      <time>2017-09-27T00:23:42Z</time>
    </trkpt>
    <trkpt lat="-30.304834954" lon="153.120900923">
      <ele>47.2</ele>
      <time>2017-09-27T00:23:50Z</time>
    </trkpt>
    <trkpt lat="-30.304809976" lon="153.120924979">
      <ele>45.0</ele>
      <time>2017-09-27T00:23:58Z</time>
    </trkpt>
    <trkpt lat="-30.304787932" lon="153.120952975">
      <ele>45.8</ele>
      <time>2017-09-27T00:24:06Z</time>
    </trkpt>
    <trkpt lat="-30.304792961" lon="153.120952975">
      <ele>44.8</ele>
      <time>2017-09-27T00:24:10Z</time>
    </trkpt>
    <trkpt lat="-30.304752979" lon="153.120950963">
      <ele>45.0</ele>
      <time>2017-09-27T00:24:18Z</time>
    </trkpt>
    <trkpt lat="-30.304695982" lon="153.12089799">
      <ele>44.8</ele>
      <time>2017-09-27T00:24:22Z</time>
    </trkpt>
    <trkpt lat="-30.304799918" lon="153.120944928">
      <ele>42.0</ele>
      <time>2017-09-27T00:24:26Z</time>
    </trkpt>
    <trkpt lat="-30.305025978" lon="153.120982982">
      <ele>39.0</ele>
      <time>2017-09-27T00:24:30Z</time>
    </trkpt>
    <trkpt lat="-30.30521499" lon="153.121040985">
      <ele>38.0</ele>
      <time>2017-09-27T00:24:34Z</time>
    </trkpt>
    <trkpt lat="-30.305314986" lon="153.121182974">
      <ele>36.4</ele>
      <time>2017-09-27T00:24:38Z</time>
    </trkpt>
    <trkpt lat="-30.305434931" lon="153.121277941">
      <ele>36.2</ele>
      <time>2017-09-27T00:24:42Z</time>
    </trkpt>
    <trkpt lat="-30.305430992" lon="153.121410962">
      <ele>38.0</ele>
      <time>2017-09-27T00:24:46Z</time>
    </trkpt>
    <trkpt lat="-30.305289924" lon="153.121432923">
      <ele>38.8</ele>
      <time>2017-09-27T00:24:50Z</time>
    </trkpt>
    <trkpt lat="-30.305134943" lon="153.121425966">
      <ele>38.0</ele>
      <time>2017-09-27T00:24:54Z</time>
    </trkpt>
    <trkpt lat="-30.304980967" lon="153.121412974">
      <ele>38.8</ele>
      <time>2017-09-27T00:24:58Z</time>
    </trkpt>
    <trkpt lat="-30.304905949" lon="153.121379949">
      <ele>38.4</ele>
      <time>2017-09-27T00:25:02Z</time>
    </trkpt>
    <trkpt lat="-30.304904943" lon="153.12143594">
      <ele>39.0</ele>
      <time>2017-09-27T00:25:22Z</time>
    </trkpt>
    <trkpt lat="-30.304947942" lon="153.121405933">
      <ele>39.4</ele>
      <time>2017-09-27T00:25:46Z</time>
    </trkpt>
    <trkpt lat="-30.304969987" lon="153.121370981">
      <ele>40.8</ele>
      <time>2017-09-27T00:25:50Z</time>
    </trkpt>
    <trkpt lat="-30.304989936" lon="153.121314989">
      <ele>40.0</ele>
      <time>2017-09-27T00:25:54Z</time>
    </trkpt>
    <trkpt lat="-30.304999994" lon="153.121330999">
      <ele>40.8</ele>
      <time>2017-09-27T00:26:02Z</time>
    </trkpt>
    <trkpt lat="-30.304985996" lon="153.121360922">
      <ele>40.4</ele>
      <time>2017-09-27T00:26:06Z</time>
    </trkpt>
    <trkpt lat="-30.305002928" lon="153.121354971">
      <ele>40.8</ele>
      <time>2017-09-27T00:26:14Z</time>
    </trkpt>
    <trkpt lat="-30.305010974" lon="153.121349942">
      <ele>40.4</ele>
      <time>2017-09-27T00:26:18Z</time>
    </trkpt>
    <trkpt lat="-30.305037964" lon="153.12127593">
      <ele>40.4</ele>
      <time>2017-09-27T00:26:22Z</time>
    </trkpt>
    <trkpt lat="-30.304949954" lon="153.121077949">
      <ele>40.4</ele>
      <time>2017-09-27T00:26:26Z</time>
    </trkpt>
    <trkpt lat="-30.304909972" lon="153.121104939">
      <ele>40.2</ele>
      <time>2017-09-27T00:26:30Z</time>
    </trkpt>
    <trkpt lat="-30.304864962" lon="153.121179957">
      <ele>40.4</ele>
      <time>2017-09-27T00:26:46Z</time>
    </trkpt>
    <trkpt lat="-30.304765971" lon="153.121173">
      <ele>40.6</ele>
      <time>2017-09-27T00:26:50Z</time>
    </trkpt>
    <trkpt lat="-30.304632951" lon="153.121202923">
      <ele>40.4</ele>
      <time>2017-09-27T00:26:54Z</time>
    </trkpt>
    <trkpt lat="-30.304517951" lon="153.121222956">
      <ele>40.6</ele>
      <time>2017-09-27T00:26:58Z</time>
    </trkpt>
    <trkpt lat="-30.304535972" lon="153.121214993">
      <ele>41.2</ele>
      <time>2017-09-27T00:27:02Z</time>
    </trkpt>
    <trkpt lat="-30.304677961" lon="153.121135952">
      <ele>40.8</ele>
      <time>2017-09-27T00:27:14Z</time>
    </trkpt>
    <trkpt lat="-30.304724984" lon="153.121124972">
      <ele>41.8</ele>
      <time>2017-09-27T00:27:18Z</time>
    </trkpt>
    <trkpt lat="-30.304782987" lon="153.121085996">
      <ele>40.2</ele>
      <time>2017-09-27T00:27:22Z</time>
    </trkpt>
    <trkpt lat="-30.304812994" lon="153.12107292">
      <ele>40.8</ele>
      <time>2017-09-27T00:27:26Z</time>
    </trkpt>
    <trkpt lat="-30.304654995" lon="153.120902935">
      <ele>43.0</ele>
      <time>2017-09-27T00:40:30Z</time>
    </trkpt>
    <trkpt lat="-30.30463798" lon="153.120929925">
      <ele>43.8</ele>
      <time>2017-09-27T00:40:34Z</time>
    </trkpt>
    <trkpt lat="-30.304609984" lon="153.120962949">
      <ele>44.4</ele>
      <time>2017-09-27T00:40:54Z</time>
    </trkpt>
    <trkpt lat="-30.304624988" lon="153.120990945">
      <ele>43.4</ele>
      <time>2017-09-27T00:40:58Z</time>
    </trkpt>
    <trkpt lat="-30.304642925" lon="153.121012989">
      <ele>42.4</ele>
      <time>2017-09-27T00:41:02Z</time>
    </trkpt>
    <trkpt lat="-30.304592969" lon="153.121247934">
      <ele>41.6</ele>
      <time>2017-09-27T00:41:10Z</time>
    </trkpt>
    <trkpt lat="-30.304944925" lon="153.121379949">
      <ele>42.8</ele>
      <time>2017-09-27T00:45:22Z</time>
    </trkpt>
    <trkpt lat="-30.304925982" lon="153.121319935">
      <ele>41.8</ele>
      <time>2017-09-27T00:45:42Z</time>
    </trkpt>
    <trkpt lat="-30.304917935" lon="153.121290933">
      <ele>42.0</ele>
      <time>2017-09-27T00:45:46Z</time>
    </trkpt>
    <trkpt lat="-30.304899998" lon="153.121294957">
      <ele>42.0</ele>
      <time>2017-09-27T00:45:50Z</time>
    </trkpt>
    <trkpt lat="-30.304882983" lon="153.121292945">
      <ele>42.0</ele>
      <time>2017-09-27T00:45:54Z</time>
    </trkpt>
    <trkpt lat="-30.304919947" lon="153.121312978">
      <ele>42.4</ele>
      <time>2017-09-27T00:46:06Z</time>
    </trkpt>
    <trkpt lat="-30.304932939" lon="153.121315995">
      <ele>42.4</ele>
      <time>2017-09-27T00:46:10Z</time>
    </trkpt>
    <trkpt lat="-30.304982979" lon="153.121335944">
      <ele>42.2</ele>
      <time>2017-09-27T00:46:14Z</time>
    </trkpt>
    <trkpt lat="-30.305002928" lon="153.121372992">
      <ele>42.2</ele>
      <time>2017-09-27T00:46:18Z</time>
    </trkpt>
    <trkpt lat="-30.304999994" lon="153.121354971">
      <ele>42.2</ele>
      <time>2017-09-27T00:46:22Z</time>
    </trkpt>
    <trkpt lat="-30.305022961" lon="153.121227985">
      <ele>42.2</ele>
      <time>2017-09-27T00:46:26Z</time>
    </trkpt>
    <trkpt lat="-30.305064954" lon="153.121227985">
      <ele>41.8</ele>
      <time>2017-09-27T00:46:30Z</time>
    </trkpt>
    <trkpt lat="-30.305080963" lon="153.121254975">
      <ele>43.8</ele>
      <time>2017-09-27T00:54:38Z</time>
    </trkpt>
    <trkpt lat="-30.30502799" lon="153.121389924">
      <ele>43.2</ele>
      <time>2017-09-27T00:54:58Z</time>
    </trkpt>
    <trkpt lat="-30.304987924" lon="153.121445999">
      <ele>43.6</ele>
      <time>2017-09-27T00:55:18Z</time>
    </trkpt>
    <trkpt lat="-30.305007957" lon="153.121464942">
      <ele>43.6</ele>
      <time>2017-09-27T00:55:26Z</time>
    </trkpt>
    <trkpt lat="-30.305019943" lon="153.121524956">
      <ele>43.4</ele>
      <time>2017-09-27T00:55:30Z</time>
    </trkpt>
    <trkpt lat="-30.30497795" lon="153.121454967">
      <ele>43.8</ele>
      <time>2017-09-27T00:56:10Z</time>
    </trkpt>
    <trkpt lat="-30.305001" lon="153.121479945">
      <ele>43.4</ele>
      <time>2017-09-27T00:56:14Z</time>
    </trkpt>
    <trkpt lat="-30.305024972" lon="153.121504923">
      <ele>43.4</ele>
      <time>2017-09-27T00:56:26Z</time>
    </trkpt>
    <trkpt lat="-30.305019943" lon="153.121405933">
      <ele>42.6</ele>
      <time>2017-09-27T00:57:50Z</time>
    </trkpt>
    <trkpt lat="-30.305022961" lon="153.121385984">
      <ele>41.8</ele>
      <time>2017-09-27T00:57:54Z</time>
    </trkpt>
    <trkpt lat="-30.305032935" lon="153.12137492">
      <ele>42.8</ele>
      <time>2017-09-27T00:57:58Z</time>
    </trkpt>
    <trkpt lat="-30.305042993" lon="153.121365951">
      <ele>42.4</ele>
      <time>2017-09-27T00:58:02Z</time>
    </trkpt>
    <trkpt lat="-30.305055985" lon="153.121355977">
      <ele>41.4</ele>
      <time>2017-09-27T00:58:06Z</time>
    </trkpt>
    <trkpt lat="-30.30506596" lon="153.12134793">
      <ele>40.4</ele>
      <time>2017-09-27T00:58:14Z</time>
    </trkpt>
    <trkpt lat="-30.305075934" lon="153.121360922">
      <ele>41.0</ele>
      <time>2017-09-27T00:58:18Z</time>
    </trkpt>
    <trkpt lat="-30.305110971" lon="153.121380955">
      <ele>41.2</ele>
      <time>2017-09-27T00:58:26Z</time>
    </trkpt>
    <trkpt lat="-30.305144917" lon="153.121379949">
      <ele>39.8</ele>
      <time>2017-09-27T00:58:30Z</time>
    </trkpt>
    <trkpt lat="-30.305194957" lon="153.121359916">
      <ele>40.2</ele>
      <time>2017-09-27T00:58:34Z</time>
    </trkpt>
    <trkpt lat="-30.305217924" lon="153.12134793">
      <ele>38.6</ele>
      <time>2017-09-27T00:58:38Z</time>
    </trkpt>
    <trkpt lat="-30.305245919" lon="153.121359916">
      <ele>38.0</ele>
      <time>2017-09-27T00:58:42Z</time>
    </trkpt>
    <trkpt lat="-30.305237956" lon="153.121370981">
      <ele>38.4</ele>
      <time>2017-09-27T00:58:46Z</time>
    </trkpt>
    <trkpt lat="-30.305239968" lon="153.121372992">
      <ele>37.6</ele>
      <time>2017-09-27T00:58:50Z</time>
    </trkpt>
    <trkpt lat="-30.305259917" lon="153.121360922">
      <ele>36.6</ele>
      <time>2017-09-27T00:58:54Z</time>
    </trkpt>
    <trkpt lat="-30.305380952" lon="153.12142496">
      <ele>33.6</ele>
      <time>2017-09-27T00:59:14Z</time>
    </trkpt>
    <trkpt lat="-30.305382963" lon="153.121442981">
      <ele>34.0</ele>
      <time>2017-09-27T00:59:18Z</time>
    </trkpt>
    <trkpt lat="-30.305364942" lon="153.121454967">
      <ele>34.2</ele>
      <time>2017-09-27T00:59:22Z</time>
    </trkpt>
    <trkpt lat="-30.305375922" lon="153.121487992">
      <ele>34.2</ele>
      <time>2017-09-27T00:59:26Z</time>
    </trkpt>
    <trkpt lat="-30.305309957" lon="153.121567955">
      <ele>34.2</ele>
      <time>2017-09-27T00:59:30Z</time>
    </trkpt>
    <trkpt lat="-30.305507937" lon="153.121625958">
      <ele>34.0</ele>
      <time>2017-09-27T00:59:46Z</time>
    </trkpt>
    <trkpt lat="-30.305557977" lon="153.121629981">
      <ele>34.2</ele>
      <time>2017-09-27T00:59:50Z</time>
    </trkpt>
    <trkpt lat="-30.305662919" lon="153.121580947">
      <ele>34.4</ele>
      <time>2017-09-27T00:59:54Z</time>
    </trkpt>
    <trkpt lat="-30.305709941" lon="153.121569967">
      <ele>34.4</ele>
      <time>2017-09-27T00:59:58Z</time>
    </trkpt>
    <trkpt lat="-30.305785965" lon="153.121565944">
      <ele>34.4</ele>
      <time>2017-09-27T01:00:02Z</time>
    </trkpt>
    <trkpt lat="-30.305947987" lon="153.121502995">
      <ele>34.2</ele>
      <time>2017-09-27T01:00:06Z</time>
    </trkpt>
    <trkpt lat="-30.305990987" lon="153.121490926">
      <ele>34.4</ele>
      <time>2017-09-27T01:00:10Z</time>
    </trkpt>
    <trkpt lat="-30.306014959" lon="153.121492937">
      <ele>34.8</ele>
      <time>2017-09-27T01:00:14Z</time>
    </trkpt>
    <trkpt lat="-30.305737937" lon="153.121520933">
      <ele>34.4</ele>
      <time>2017-09-27T01:00:34Z</time>
    </trkpt>
    <trkpt lat="-30.305765932" lon="153.121505929">
      <ele>34.4</ele>
      <time>2017-09-27T01:00:38Z</time>
    </trkpt>
    <trkpt lat="-30.305794934" lon="153.121529985">
      <ele>34.2</ele>
      <time>2017-09-27T01:00:42Z</time>
    </trkpt>
    <trkpt lat="-30.305702984" lon="153.121535936">
      <ele>35.0</ele>
      <time>2017-09-27T01:00:54Z</time>
    </trkpt>
    <trkpt lat="-30.30566996" lon="153.121564938">
      <ele>34.8</ele>
      <time>2017-09-27T01:00:58Z</time>
    </trkpt>
    <trkpt lat="-30.305457981" lon="153.121620929">
      <ele>34.6</ele>
      <time>2017-09-27T01:01:18Z</time>
    </trkpt>
    <trkpt lat="-30.305532999" lon="153.121572984">
      <ele>35.0</ele>
      <time>2017-09-27T01:01:22Z</time>
    </trkpt>
    <trkpt lat="-30.305585973" lon="153.121545995">
      <ele>35.2</ele>
      <time>2017-09-27T01:01:26Z</time>
    </trkpt>
    <trkpt lat="-30.305585973" lon="153.121524956">
      <ele>35.2</ele>
      <time>2017-09-27T01:01:30Z</time>
    </trkpt>
    <trkpt lat="-30.305684963" lon="153.121420937">
      <ele>35.0</ele>
      <time>2017-09-27T01:01:46Z</time>
    </trkpt>
    <trkpt lat="-30.305659985" lon="153.121447926">
      <ele>35.2</ele>
      <time>2017-09-27T01:01:58Z</time>
    </trkpt>
    <trkpt lat="-30.305605922" lon="153.121460918">
      <ele>35.2</ele>
      <time>2017-09-27T01:02:02Z</time>
    </trkpt>
    <trkpt lat="-30.305602988" lon="153.121460918">
      <ele>35.6</ele>
      <time>2017-09-27T01:02:06Z</time>
    </trkpt>
    <trkpt lat="-30.305672977" lon="153.121449938">
      <ele>35.6</ele>
      <time>2017-09-27T01:02:14Z</time>
    </trkpt>
    <trkpt lat="-30.305742966" lon="153.121445999">
      <ele>35.6</ele>
      <time>2017-09-27T01:02:18Z</time>
    </trkpt>
    <trkpt lat="-30.305784959" lon="153.121454967">
      <ele>35.6</ele>
      <time>2017-09-27T01:02:22Z</time>
    </trkpt>
    <trkpt lat="-30.30573098" lon="153.12148598">
      <ele>35.4</ele>
      <time>2017-09-27T01:02:38Z</time>
    </trkpt>
    <trkpt lat="-30.30566493" lon="153.121497966">
      <ele>35.6</ele>
      <time>2017-09-27T01:02:50Z</time>
    </trkpt>
    <trkpt lat="-30.30561598" lon="153.121517999">
      <ele>36.6</ele>
      <time>2017-09-27T01:02:54Z</time>
    </trkpt>
    <trkpt lat="-30.305605922" lon="153.12151297">
      <ele>36.6</ele>
      <time>2017-09-27T01:02:58Z</time>
    </trkpt>
    <trkpt lat="-30.305609945" lon="153.12151297">
      <ele>36.8</ele>
      <time>2017-09-27T01:03:06Z</time>
    </trkpt>
    <trkpt lat="-30.305595947" lon="153.121547922">
      <ele>36.4</ele>
      <time>2017-09-27T01:03:34Z</time>
    </trkpt>
    <trkpt lat="-30.305569964" lon="153.121549934">
      <ele>37.8</ele>
      <time>2017-09-27T01:03:38Z</time>
    </trkpt>
    <trkpt lat="-30.305560995" lon="153.121572984">
      <ele>37.0</ele>
      <time>2017-09-27T01:03:42Z</time>
    </trkpt>
    <trkpt lat="-30.305549931" lon="153.121587988">
      <ele>37.6</ele>
      <time>2017-09-27T01:03:46Z</time>
    </trkpt>
    <trkpt lat="-30.305624949" lon="153.121604919">
      <ele>37.0</ele>
      <time>2017-09-27T01:03:58Z</time>
    </trkpt>
    <trkpt lat="-30.305519924" lon="153.121782951">
      <ele>35.0</ele>
      <time>2017-09-27T01:04:38Z</time>
    </trkpt>
    <trkpt lat="-30.305495951" lon="153.121819999">
      <ele>35.2</ele>
      <time>2017-09-27T01:04:46Z</time>
    </trkpt>
    <trkpt lat="-30.305469967" lon="153.121799966">
      <ele>34.2</ele>
      <time>2017-09-27T01:04:58Z</time>
    </trkpt>
    <trkpt lat="-30.305467956" lon="153.121809941">
      <ele>35.2</ele>
      <time>2017-09-27T01:05:18Z</time>
    </trkpt>
    <trkpt lat="-30.305482959" lon="153.121775994">
      <ele>35.8</ele>
      <time>2017-09-27T01:05:22Z</time>
    </trkpt>
    <trkpt lat="-30.305509949" lon="153.121767947">
      <ele>35.6</ele>
      <time>2017-09-27T01:05:30Z</time>
    </trkpt>
    <trkpt lat="-30.305535933" lon="153.121717991">
      <ele>37.4</ele>
      <time>2017-09-27T01:05:38Z</time>
    </trkpt>
    <trkpt lat="-30.305575998" lon="153.121655965">
      <ele>37.8</ele>
      <time>2017-09-27T01:05:46Z</time>
    </trkpt>
    <trkpt lat="-30.305580944" lon="153.121592933">
      <ele>36.4</ele>
      <time>2017-09-27T01:05:50Z</time>
    </trkpt>
    <trkpt lat="-30.305600977" lon="153.121569967">
      <ele>38.8</ele>
      <time>2017-09-27T01:06:06Z</time>
    </trkpt>
    <trkpt lat="-30.305577926" lon="153.121580947">
      <ele>40.2</ele>
      <time>2017-09-27T01:06:10Z</time>
    </trkpt>
    <trkpt lat="-30.305509949" lon="153.121584971">
      <ele>40.4</ele>
      <time>2017-09-27T01:06:14Z</time>
    </trkpt>
    <trkpt lat="-30.305410959" lon="153.121572984">
      <ele>41.0</ele>
      <time>2017-09-27T01:06:18Z</time>
    </trkpt>
    <trkpt lat="-30.305315992" lon="153.121570973">
      <ele>43.4</ele>
      <time>2017-09-27T01:06:22Z</time>
    </trkpt>
    <trkpt lat="-30.305285985" lon="153.121564938">
      <ele>43.8</ele>
      <time>2017-09-27T01:06:26Z</time>
    </trkpt>
    <trkpt lat="-30.305244997" lon="153.121555969">
      <ele>44.0</ele>
      <time>2017-09-27T01:06:30Z</time>
    </trkpt>
    <trkpt lat="-30.30520292" lon="153.121535936">
      <ele>44.2</ele>
      <time>2017-09-27T01:06:34Z</time>
    </trkpt>
    <trkpt lat="-30.305149946" lon="153.121522944">
      <ele>45.0</ele>
      <time>2017-09-27T01:06:46Z</time>
    </trkpt>
    <trkpt lat="-30.305110971" lon="153.121510958">
      <ele>43.8</ele>
      <time>2017-09-27T01:06:50Z</time>
    </trkpt>
    <trkpt lat="-30.305082975" lon="153.121499978">
      <ele>44.8</ele>
      <time>2017-09-27T01:06:54Z</time>
    </trkpt>
    <trkpt lat="-30.305057997" lon="153.121509952">
      <ele>44.8</ele>
      <time>2017-09-27T01:06:58Z</time>
    </trkpt>
    <trkpt lat="-30.305107953" lon="153.121484974">
      <ele>45.2</ele>
      <time>2017-09-27T01:07:10Z</time>
    </trkpt>
    <trkpt lat="-30.305072917" lon="153.121420937">
      <ele>44.4</ele>
      <time>2017-09-27T01:07:26Z</time>
    </trkpt>
    <trkpt lat="-30.304990942" lon="153.121362934">
      <ele>44.8</ele>
      <time>2017-09-27T01:07:38Z</time>
    </trkpt>
    <trkpt lat="-30.304934951" lon="153.121342985">
      <ele>44.4</ele>
      <time>2017-09-27T01:07:42Z</time>
    </trkpt>
    <trkpt lat="-30.304857921" lon="153.121342985">
      <ele>44.2</ele>
      <time>2017-09-27T01:07:46Z</time>
    </trkpt>
    <trkpt lat="-30.304864962" lon="153.121362934">
      <ele>43.6</ele>
      <time>2017-09-27T01:07:54Z</time>
    </trkpt>
    <trkpt lat="-30.304860938" lon="153.121389924">
      <ele>43.6</ele>
      <time>2017-09-27T01:07:58Z</time>
    </trkpt>
    <trkpt lat="-30.304864962" lon="153.121355977">
      <ele>44.0</ele>
      <time>2017-09-27T01:08:06Z</time>
    </trkpt>
    <trkpt lat="-30.304880971" lon="153.121422948">
      <ele>44.0</ele>
      <time>2017-09-27T01:08:14Z</time>
    </trkpt>
    <trkpt lat="-30.304839984" lon="153.121419931">
      <ele>44.4</ele>
      <time>2017-09-27T01:08:18Z</time>
    </trkpt>
    <trkpt lat="-30.304759936" lon="153.121382967">
      <ele>44.6</ele>
      <time>2017-09-27T01:08:22Z</time>
    </trkpt>
    <trkpt lat="-30.304629933" lon="153.121264949">
      <ele>44.4</ele>
      <time>2017-09-27T01:08:26Z</time>
    </trkpt>
    <trkpt lat="-30.304525997" lon="153.121090941">
      <ele>47.6</ele>
      <time>2017-09-27T01:08:30Z</time>
    </trkpt>
    <trkpt lat="-30.304600932" lon="153.120922968">
      <ele>49.8</ele>
      <time>2017-09-27T01:08:34Z</time>
    </trkpt>
    <trkpt lat="-30.304822968" lon="153.12080998">
      <ele>50.0</ele>
      <time>2017-09-27T01:08:38Z</time>
    </trkpt>
    <trkpt lat="-30.305042993" lon="153.120854991">
      <ele>47.0</ele>
      <time>2017-09-27T01:08:42Z</time>
    </trkpt>
    <trkpt lat="-30.305177942" lon="153.121035956">
      <ele>44.8</ele>
      <time>2017-09-27T01:08:46Z</time>
    </trkpt>
    <trkpt lat="-30.305259917" lon="153.121214993">
      <ele>43.4</ele>
      <time>2017-09-27T01:08:50Z</time>
    </trkpt>
    <trkpt lat="-30.30531792" lon="153.121460918">
      <ele>41.2</ele>
      <time>2017-09-27T01:08:54Z</time>
    </trkpt>
    <trkpt lat="-30.30541297" lon="153.121754956">
      <ele>36.8</ele>
      <time>2017-09-27T01:08:58Z</time>
    </trkpt>
    <trkpt lat="-30.305559989" lon="153.122075982">
      <ele>35.8</ele>
      <time>2017-09-27T01:09:02Z</time>
    </trkpt>
    <trkpt lat="-30.305587985" lon="153.122317968">
      <ele>32.8</ele>
      <time>2017-09-27T01:09:06Z</time>
    </trkpt>
    <trkpt lat="-30.305462927" lon="153.12236499">
      <ele>35.6</ele>
      <time>2017-09-27T01:09:10Z</time>
    </trkpt>
    <trkpt lat="-30.305145923" lon="153.122247979">
      <ele>37.8</ele>
      <time>2017-09-27T01:09:14Z</time>
    </trkpt>
    <trkpt lat="-30.304904943" lon="153.121899962">
      <ele>50.2</ele>
      <time>2017-09-27T01:09:22Z</time>
    </trkpt>
    <trkpt lat="-30.304647954" lon="153.121457985">
      <ele>45.4</ele>
      <time>2017-09-27T01:09:26Z</time>
    </trkpt>
    <trkpt lat="-30.304459948" lon="153.121000919">
      <ele>44.8</ele>
      <time>2017-09-27T01:09:30Z</time>
    </trkpt>
    <trkpt lat="-30.304229949" lon="153.120552991">
      <ele>44.2</ele>
      <time>2017-09-27T01:09:34Z</time>
    </trkpt>
    <trkpt lat="-30.303989975" lon="153.120019985">
      <ele>38.6</ele>
      <time>2017-09-27T01:09:38Z</time>
    </trkpt>
    <trkpt lat="-30.30357792" lon="153.119357983">
      <ele>37.6</ele>
      <time>2017-09-27T01:09:42Z</time>
    </trkpt>
    <trkpt lat="-30.303180953" lon="153.118885998">
      <ele>35.2</ele>
      <time>2017-09-27T01:09:46Z</time>
    </trkpt>
    <trkpt lat="-30.302864956" lon="153.118489953">
      <ele>34.0</ele>
      <time>2017-09-27T01:09:50Z</time>
    </trkpt>
    <trkpt lat="-30.30253496" lon="153.118035989">
      <ele>36.0</ele>
      <time>2017-09-27T01:09:54Z</time>
    </trkpt>
    <trkpt lat="-30.302254921" lon="153.11762494">
      <ele>33.2</ele>
      <time>2017-09-27T01:09:58Z</time>
    </trkpt>
    <trkpt lat="-30.301939929" lon="153.11723996">
      <ele>32.8</ele>
      <time>2017-09-27T01:10:02Z</time>
    </trkpt>
    <trkpt lat="-30.301665924" lon="153.116850955">
      <ele>32.6</ele>
      <time>2017-09-27T01:10:06Z</time>
    </trkpt>
    <trkpt lat="-30.301475991" lon="153.11654795">
      <ele>31.2</ele>
      <time>2017-09-27T01:10:10Z</time>
    </trkpt>
    <trkpt lat="-30.301329978" lon="153.116359944">
      <ele>31.2</ele>
      <time>2017-09-27T01:10:14Z</time>
    </trkpt>
    <trkpt lat="-30.301394938" lon="153.116109995">
      <ele>32.2</ele>
      <time>2017-09-27T01:10:18Z</time>
    </trkpt>
    <trkpt lat="-30.301565928" lon="153.115812941">
      <ele>32.2</ele>
      <time>2017-09-27T01:10:22Z</time>
    </trkpt>
    <trkpt lat="-30.301802969" lon="153.115524938">
      <ele>35.0</ele>
      <time>2017-09-27T01:10:26Z</time>
    </trkpt>
    <trkpt lat="-30.302092982" lon="153.115250934">
      <ele>35.4</ele>
      <time>2017-09-27T01:10:30Z</time>
    </trkpt>
    <trkpt lat="-30.302487938" lon="153.114947928">
      <ele>36.8</ele>
      <time>2017-09-27T01:10:34Z</time>
    </trkpt>
    <trkpt lat="-30.302942991" lon="153.114592955">
      <ele>41.8</ele>
      <time>2017-09-27T01:10:38Z</time>
    </trkpt>
    <trkpt lat="-30.303387986" lon="153.114314927">
      <ele>45.2</ele>
      <time>2017-09-27T01:10:42Z</time>
    </trkpt>
    <trkpt lat="-30.303817978" lon="153.114195988">
      <ele>41.6</ele>
      <time>2017-09-27T01:10:46Z</time>
    </trkpt>
    <trkpt lat="-30.304257944" lon="153.114277963">
      <ele>36.4</ele>
      <time>2017-09-27T01:10:50Z</time>
    </trkpt>
    <trkpt lat="-30.305047939" lon="153.114227923">
      <ele>33.4</ele>
      <time>2017-09-27T01:10:58Z</time>
    </trkpt>
    <trkpt lat="-30.305537945" lon="153.11428098">
      <ele>32.8</ele>
      <time>2017-09-27T01:11:02Z</time>
    </trkpt>
    <trkpt lat="-30.305949999" lon="153.114247955">
      <ele>34.2</ele>
      <time>2017-09-27T01:11:06Z</time>
    </trkpt>
    <trkpt lat="-30.30618092" lon="153.113962971">
      <ele>34.2</ele>
      <time>2017-09-27T01:11:10Z</time>
    </trkpt>
    <trkpt lat="-30.306350989" lon="153.113747975">
      <ele>37.6</ele>
      <time>2017-09-27T01:11:14Z</time>
    </trkpt>
    <trkpt lat="-30.307595953" lon="153.11399499">
      <ele>43.4</ele>
      <time>2017-09-27T01:11:30Z</time>
    </trkpt>
    <trkpt lat="-30.307712965" lon="153.114075959">
      <ele>43.4</ele>
      <time>2017-09-27T01:11:34Z</time>
    </trkpt>
    <trkpt lat="-30.307829976" lon="153.114037989">
      <ele>43.2</ele>
      <time>2017-09-27T01:11:38Z</time>
    </trkpt>
    <trkpt lat="-30.307922931" lon="153.11402793">
      <ele>42.8</ele>
      <time>2017-09-27T01:11:42Z</time>
    </trkpt>
    <trkpt lat="-30.307972971" lon="153.11407093">
      <ele>42.4</ele>
      <time>2017-09-27T01:11:46Z</time>
    </trkpt>
    <trkpt lat="-30.308024939" lon="153.114190958">
      <ele>43.0</ele>
      <time>2017-09-27T01:11:50Z</time>
    </trkpt>
    <trkpt lat="-30.308139939" lon="153.114349963">
      <ele>43.4</ele>
      <time>2017-09-27T01:11:54Z</time>
    </trkpt>
    <trkpt lat="-30.308287963" lon="153.114534952">
      <ele>42.8</ele>
      <time>2017-09-27T01:12:02Z</time>
    </trkpt>
    <trkpt lat="-30.30831797" lon="153.114479966">
      <ele>42.2</ele>
      <time>2017-09-27T01:12:06Z</time>
    </trkpt>
    <trkpt lat="-30.308365999" lon="153.114437973">
      <ele>42.4</ele>
      <time>2017-09-27T01:12:10Z</time>
    </trkpt>
    <trkpt lat="-30.308394916" lon="153.114389945">
      <ele>42.8</ele>
      <time>2017-09-27T01:12:14Z</time>
    </trkpt>
    <trkpt lat="-30.308400951" lon="153.114320962">
      <ele>41.8</ele>
      <time>2017-09-27T01:12:18Z</time>
    </trkpt>
    <trkpt lat="-30.308357952" lon="153.114299923">
      <ele>42.8</ele>
      <time>2017-09-27T01:12:22Z</time>
    </trkpt>
    <trkpt lat="-30.308340937" lon="153.114260947">
      <ele>42.6</ele>
      <time>2017-09-27T01:12:26Z</time>
    </trkpt>
    <trkpt lat="-30.308324927" lon="153.11421996">
      <ele>42.4</ele>
      <time>2017-09-27T01:12:30Z</time>
    </trkpt>
    <trkpt lat="-30.308364993" lon="153.114180984">
      <ele>42.2</ele>
      <time>2017-09-27T01:12:34Z</time>
    </trkpt>
    <trkpt lat="-30.308224931" lon="153.114149971">
      <ele>42.4</ele>
      <time>2017-09-27T01:12:42Z</time>
    </trkpt>
    <trkpt lat="-30.308125941" lon="153.11416598">
      <ele>42.8</ele>
      <time>2017-09-27T01:12:46Z</time>
    </trkpt>
    <trkpt lat="-30.308019994" lon="153.114177966">
      <ele>43.2</ele>
      <time>2017-09-27T01:12:50Z</time>
    </trkpt>
    <trkpt lat="-30.307980934" lon="153.114229934">
      <ele>42.6</ele>
      <time>2017-09-27T01:12:54Z</time>
    </trkpt>
    <trkpt lat="-30.307935923" lon="153.114259942">
      <ele>42.4</ele>
      <time>2017-09-27T01:12:58Z</time>
    </trkpt>
    <trkpt lat="-30.307895942" lon="153.114265976">
      <ele>42.8</ele>
      <time>2017-09-27T01:13:02Z</time>
    </trkpt>
    <trkpt lat="-30.307906" lon="153.114252985">
      <ele>43.0</ele>
      <time>2017-09-27T01:13:06Z</time>
    </trkpt>
    <trkpt lat="-30.307897953" lon="153.114255918">
      <ele>42.6</ele>
      <time>2017-09-27T01:13:10Z</time>
    </trkpt>
    <trkpt lat="-30.307820924" lon="153.114274945">
      <ele>42.6</ele>
      <time>2017-09-27T01:13:14Z</time>
    </trkpt>
    <trkpt lat="-30.307854954" lon="153.114259942">
      <ele>42.2</ele>
      <time>2017-09-27T01:13:18Z</time>
    </trkpt>
    <trkpt lat="-30.307887979" lon="153.114249967">
      <ele>41.8</ele>
      <time>2017-09-27T01:13:22Z</time>
    </trkpt>
    <trkpt lat="-30.30793299" lon="153.114309981">
      <ele>42.8</ele>
      <time>2017-09-27T01:13:26Z</time>
    </trkpt>
    <trkpt lat="-30.307980934" lon="153.114285925">
      <ele>42.6</ele>
      <time>2017-09-27T01:13:30Z</time>
    </trkpt>
    <trkpt lat="-30.307999961" lon="153.114232952">
      <ele>42.6</ele>
      <time>2017-09-27T01:13:34Z</time>
    </trkpt>
    <trkpt lat="-30.30822292" lon="153.114197999">
      <ele>42.4</ele>
      <time>2017-09-27T01:13:38Z</time>
    </trkpt>
    <trkpt lat="-30.308337919" lon="153.11416598">
      <ele>42.4</ele>
      <time>2017-09-27T01:13:42Z</time>
    </trkpt>
    <trkpt lat="-30.308499942" lon="153.114137985">
      <ele>42.8</ele>
      <time>2017-09-27T01:13:46Z</time>
    </trkpt>
    <trkpt lat="-30.308697922" lon="153.114009993">
      <ele>42.6</ele>
      <time>2017-09-27T01:13:50Z</time>
    </trkpt>
    <trkpt lat="-30.308570936" lon="153.113929946">
      <ele>42.8</ele>
      <time>2017-09-27T01:13:54Z</time>
    </trkpt>
    <trkpt lat="-30.308607984" lon="153.113909997">
      <ele>42.8</ele>
      <time>2017-09-27T01:13:58Z</time>
    </trkpt>
    <trkpt lat="-30.308510922" lon="153.113874961">
      <ele>43.0</ele>
      <time>2017-09-27T01:14:02Z</time>
    </trkpt>
    <trkpt lat="-30.308342949" lon="153.113832967">
      <ele>42.6</ele>
      <time>2017-09-27T01:14:06Z</time>
    </trkpt>
    <trkpt lat="-30.308299949" lon="153.113795919">
      <ele>42.8</ele>
      <time>2017-09-27T01:14:10Z</time>
    </trkpt>
    <trkpt lat="-30.308230966" lon="153.11387999">
      <ele>42.8</ele>
      <time>2017-09-27T01:14:14Z</time>
    </trkpt>
    <trkpt lat="-30.308155948" lon="153.113932963">
      <ele>42.8</ele>
      <time>2017-09-27T01:14:22Z</time>
    </trkpt>
    <trkpt lat="-30.308064921" lon="153.114030948">
      <ele>42.0</ele>
      <time>2017-09-27T01:14:26Z</time>
    </trkpt>
    <trkpt lat="-30.308014965" lon="153.114072941">
      <ele>42.4</ele>
      <time>2017-09-27T01:14:30Z</time>
    </trkpt>
    <trkpt lat="-30.308022927" lon="153.114087945">
      <ele>42.8</ele>
      <time>2017-09-27T01:14:34Z</time>
    </trkpt>
    <trkpt lat="-30.308032986" lon="153.114092974">
      <ele>42.4</ele>
      <time>2017-09-27T01:14:38Z</time>
    </trkpt>
    <trkpt lat="-30.308015971" lon="153.114057938">
      <ele>42.6</ele>
      <time>2017-09-27T01:14:54Z</time>
    </trkpt>
    <trkpt lat="-30.307977917" lon="153.114069924">
      <ele>42.8</ele>
      <time>2017-09-27T01:15:06Z</time>
    </trkpt>
    <trkpt lat="-30.307857972" lon="153.114122981">
      <ele>42.4</ele>
      <time>2017-09-27T01:15:10Z</time>
    </trkpt>
    <trkpt lat="-30.307815978" lon="153.11419297">
      <ele>42.4</ele>
      <time>2017-09-27T01:15:14Z</time>
    </trkpt>
    <trkpt lat="-30.307750935" lon="153.114377959">
      <ele>42.8</ele>
      <time>2017-09-27T01:15:18Z</time>
    </trkpt>
    <trkpt lat="-30.307672983" lon="153.114425987">
      <ele>42.4</ele>
      <time>2017-09-27T01:15:22Z</time>
    </trkpt>
    <trkpt lat="-30.307697961" lon="153.114330936">
      <ele>42.4</ele>
      <time>2017-09-27T01:15:26Z</time>
    </trkpt>
    <trkpt lat="-30.307964925" lon="153.114195988">
      <ele>43.4</ele>
      <time>2017-09-27T01:17:58Z</time>
    </trkpt>
    <trkpt lat="-30.308015971" lon="153.114167992">
      <ele>42.6</ele>
      <time>2017-09-27T01:18:02Z</time>
    </trkpt>
    <trkpt lat="-30.307977917" lon="153.114239993">
      <ele>42.6</ele>
      <time>2017-09-27T01:18:06Z</time>
    </trkpt>
    <trkpt lat="-30.307955956" lon="153.114312999">
      <ele>42.6</ele>
      <time>2017-09-27T01:18:10Z</time>
    </trkpt>
    <trkpt lat="-30.307919998" lon="153.114360943">
      <ele>41.8</ele>
      <time>2017-09-27T01:18:14Z</time>
    </trkpt>
    <trkpt lat="-30.307892924" lon="153.114380976">
      <ele>42.6</ele>
      <time>2017-09-27T01:18:18Z</time>
    </trkpt>
    <trkpt lat="-30.307930978" lon="153.114355998">
      <ele>42.6</ele>
      <time>2017-09-27T01:18:22Z</time>
    </trkpt>
    <trkpt lat="-30.307975989" lon="153.114315933">
      <ele>42.4</ele>
      <time>2017-09-27T01:18:26Z</time>
    </trkpt>
    <trkpt lat="-30.308002979" lon="153.114337977">
      <ele>42.4</ele>
      <time>2017-09-27T01:18:30Z</time>
    </trkpt>
    <trkpt lat="-30.308060981" lon="153.114344934">
      <ele>43.0</ele>
      <time>2017-09-27T01:18:34Z</time>
    </trkpt>
    <trkpt lat="-30.308092916" lon="153.114344934">
      <ele>42.4</ele>
      <time>2017-09-27T01:18:38Z</time>
    </trkpt>
    <trkpt lat="-30.308720972" lon="153.114235969">
      <ele>43.0</ele>
      <time>2017-09-27T01:18:42Z</time>
    </trkpt>
    <trkpt lat="-30.308532966" lon="153.114412995">
      <ele>42.8</ele>
      <time>2017-09-27T01:18:46Z</time>
    </trkpt>
    <trkpt lat="-30.308440933" lon="153.114390951">
      <ele>43.0</ele>
      <time>2017-09-27T01:18:50Z</time>
    </trkpt>
    <trkpt lat="-30.308440933" lon="153.114377959">
      <ele>42.8</ele>
      <time>2017-09-27T01:18:54Z</time>
    </trkpt>
    <trkpt lat="-30.308487955" lon="153.114389945">
      <ele>43.0</ele>
      <time>2017-09-27T01:18:58Z</time>
    </trkpt>
    <trkpt lat="-30.308380919" lon="153.114480972">
      <ele>43.0</ele>
      <time>2017-09-27T01:19:06Z</time>
    </trkpt>
    <trkpt lat="-30.308089983" lon="153.114440991">
      <ele>42.8</ele>
      <time>2017-09-27T01:19:30Z</time>
    </trkpt>
    <trkpt lat="-30.308095934" lon="153.114247955">
      <ele>43.0</ele>
      <time>2017-09-27T01:19:54Z</time>
    </trkpt>
    <trkpt lat="-30.308104986" lon="153.114262959">
      <ele>42.8</ele>
      <time>2017-09-27T01:19:58Z</time>
    </trkpt>
    <trkpt lat="-30.308075985" lon="153.114325991">
      <ele>43.2</ele>
      <time>2017-09-27T01:20:02Z</time>
    </trkpt>
    <trkpt lat="-30.308074979" lon="153.114364967">
      <ele>42.4</ele>
      <time>2017-09-27T01:20:06Z</time>
    </trkpt>
    <trkpt lat="-30.308074979" lon="153.114402937">
      <ele>43.0</ele>
      <time>2017-09-27T01:20:10Z</time>
    </trkpt>
    <trkpt lat="-30.308039943" lon="153.114454988">
      <ele>43.2</ele>
      <time>2017-09-27T01:20:14Z</time>
    </trkpt>
    <trkpt lat="-30.307990992" lon="153.114542998">
      <ele>42.8</ele>
      <time>2017-09-27T01:20:18Z</time>
    </trkpt>
    <trkpt lat="-30.307939947" lon="153.114525983">
      <ele>42.8</ele>
      <time>2017-09-27T01:20:22Z</time>
    </trkpt>
    <trkpt lat="-30.307835927" lon="153.114480972">
      <ele>43.2</ele>
      <time>2017-09-27T01:20:26Z</time>
    </trkpt>
    <trkpt lat="-30.307762921" lon="153.114455994">
      <ele>43.4</ele>
      <time>2017-09-27T01:20:30Z</time>
    </trkpt>
    <trkpt lat="-30.308364993" lon="153.113922989">
      <ele>43.2</ele>
      <time>2017-09-27T01:20:54Z</time>
    </trkpt>
    <trkpt lat="-30.307952939" lon="153.114072941">
      <ele>42.6</ele>
      <time>2017-09-27T01:21:58Z</time>
    </trkpt>
    <trkpt lat="-30.307969954" lon="153.114122981">
      <ele>41.8</ele>
      <time>2017-09-27T01:22:02Z</time>
    </trkpt>
    <trkpt lat="-30.307997949" lon="153.114199927">
      <ele>43.0</ele>
      <time>2017-09-27T01:22:06Z</time>
    </trkpt>
    <trkpt lat="-30.308034997" lon="153.114270922">
      <ele>42.8</ele>
      <time>2017-09-27T01:22:10Z</time>
    </trkpt>
    <trkpt lat="-30.308027957" lon="153.114339989">
      <ele>43.2</ele>
      <time>2017-09-27T01:22:14Z</time>
    </trkpt>
    <trkpt lat="-30.308027957" lon="153.114412995">
      <ele>42.6</ele>
      <time>2017-09-27T01:22:18Z</time>
    </trkpt>
    <trkpt lat="-30.308027957" lon="153.114447948">
      <ele>43.2</ele>
      <time>2017-09-27T01:22:22Z</time>
    </trkpt>
    <trkpt lat="-30.307890996" lon="153.114517936">
      <ele>43.0</ele>
      <time>2017-09-27T01:22:30Z</time>
    </trkpt>
    <trkpt lat="-30.307879932" lon="153.114490947">
      <ele>42.8</ele>
      <time>2017-09-27T01:22:42Z</time>
    </trkpt>
    <trkpt lat="-30.307845986" lon="153.114499999">
      <ele>43.0</ele>
      <time>2017-09-27T01:22:46Z</time>
    </trkpt>
    <trkpt lat="-30.307989987" lon="153.114477955">
      <ele>42.8</ele>
      <time>2017-09-27T01:22:58Z</time>
    </trkpt>
    <trkpt lat="-30.307965931" lon="153.114507962">
      <ele>42.8</ele>
      <time>2017-09-27T01:23:02Z</time>
    </trkpt>
    <trkpt lat="-30.307974983" lon="153.114465969">
      <ele>42.6</ele>
      <time>2017-09-27T01:23:06Z</time>
    </trkpt>
    <trkpt lat="-30.308034997" lon="153.114282992">
      <ele>42.8</ele>
      <time>2017-09-27T01:23:14Z</time>
    </trkpt>
    <trkpt lat="-30.308055952" lon="153.114282992">
      <ele>42.6</ele>
      <time>2017-09-27T01:23:18Z</time>
    </trkpt>
    <trkpt lat="-30.308040949" lon="153.114310987">
      <ele>42.2</ele>
      <time>2017-09-27T01:23:22Z</time>
    </trkpt>
    <trkpt lat="-30.307962997" lon="153.114325991">
      <ele>42.8</ele>
      <time>2017-09-27T01:23:46Z</time>
    </trkpt>
    <trkpt lat="-30.308010941" lon="153.114370918">
      <ele>42.0</ele>
      <time>2017-09-27T01:23:54Z</time>
    </trkpt>
    <trkpt lat="-30.307982946" lon="153.114384999">
      <ele>42.6</ele>
      <time>2017-09-27T01:23:58Z</time>
    </trkpt>
    <trkpt lat="-30.308010941" lon="153.114385922">
      <ele>41.8</ele>
      <time>2017-09-27T01:24:06Z</time>
    </trkpt>
    <trkpt lat="-30.308057964" lon="153.114347951">
      <ele>42.6</ele>
      <time>2017-09-27T01:24:10Z</time>
    </trkpt>
    <trkpt lat="-30.308102975" lon="153.11423094">
      <ele>41.8</ele>
      <time>2017-09-27T01:24:14Z</time>
    </trkpt>
    <trkpt lat="-30.308197942" lon="153.114145948">
      <ele>41.4</ele>
      <time>2017-09-27T01:24:18Z</time>
    </trkpt>
    <trkpt lat="-30.308314953" lon="153.114130944">
      <ele>40.4</ele>
      <time>2017-09-27T01:24:22Z</time>
    </trkpt>
    <trkpt lat="-30.308444956" lon="153.114064978">
      <ele>39.0</ele>
      <time>2017-09-27T01:24:26Z</time>
    </trkpt>
    <trkpt lat="-30.30856993" lon="153.11398996">
      <ele>37.4</ele>
      <time>2017-09-27T01:24:30Z</time>
    </trkpt>
    <trkpt lat="-30.308682919" lon="153.113885941">
      <ele>35.8</ele>
      <time>2017-09-27T01:24:34Z</time>
    </trkpt>
    <trkpt lat="-30.30879599" lon="153.113774965">
      <ele>33.6</ele>
      <time>2017-09-27T01:24:38Z</time>
    </trkpt>
    <trkpt lat="-30.308952983" lon="153.113707993">
      <ele>32.2</ele>
      <time>2017-09-27T01:24:42Z</time>
    </trkpt>
    <trkpt lat="-30.309102936" lon="153.11363792">
      <ele>31.2</ele>
      <time>2017-09-27T01:24:46Z</time>
    </trkpt>
    <trkpt lat="-30.309262946" lon="153.113605985">
      <ele>30.8</ele>
      <time>2017-09-27T01:24:50Z</time>
    </trkpt>
    <trkpt lat="-30.309455981" lon="153.113557957">
      <ele>31.2</ele>
      <time>2017-09-27T01:24:54Z</time>
    </trkpt>
    <trkpt lat="-30.309642982" lon="153.113517975">
      <ele>31.2</ele>
      <time>2017-09-27T01:24:58Z</time>
    </trkpt>
    <trkpt lat="-30.309799975" lon="153.113510935">
      <ele>30.8</ele>
      <time>2017-09-27T01:25:02Z</time>
    </trkpt>
    <trkpt lat="-30.309864935" lon="153.113560975">
      <ele>30.0</ele>
      <time>2017-09-27T01:25:06Z</time>
    </trkpt>
    <trkpt lat="-30.309934923" lon="153.113600956">
      <ele>29.4</ele>
      <time>2017-09-27T01:25:10Z</time>
    </trkpt>
    <trkpt lat="-30.310000973" lon="153.113624929">
      <ele>29.2</ele>
      <time>2017-09-27T01:25:14Z</time>
    </trkpt>
    <trkpt lat="-30.310014971" lon="153.11364999">
      <ele>29.0</ele>
      <time>2017-09-27T01:25:18Z</time>
    </trkpt>
    <trkpt lat="-30.310062999" lon="153.113760967">
      <ele>28.2</ele>
      <time>2017-09-27T01:25:22Z</time>
    </trkpt>
    <trkpt lat="-30.310135921" lon="153.113835985">
      <ele>28.0</ele>
      <time>2017-09-27T01:25:26Z</time>
    </trkpt>
    <trkpt lat="-30.310152937" lon="153.11398996">
      <ele>27.4</ele>
      <time>2017-09-27T01:25:50Z</time>
    </trkpt>
    <trkpt lat="-30.310140951" lon="153.113990966">
      <ele>28.0</ele>
      <time>2017-09-27T01:26:30Z</time>
    </trkpt>
    <trkpt lat="-30.310105998" lon="153.11394495">
      <ele>30.0</ele>
      <time>2017-09-27T01:27:10Z</time>
    </trkpt>
    <trkpt lat="-30.310090994" lon="153.113942938">
      <ele>31.8</ele>
      <time>2017-09-27T01:27:18Z</time>
    </trkpt>
    <trkpt lat="-30.310090994" lon="153.11393992">
      <ele>31.4</ele>
      <time>2017-09-27T01:27:22Z</time>
    </trkpt>
    <trkpt lat="-30.310059981" lon="153.113872949">
      <ele>29.6</ele>
      <time>2017-09-27T01:27:38Z</time>
    </trkpt>
    <trkpt lat="-30.31005797" lon="153.113795919">
      <ele>30.2</ele>
      <time>2017-09-27T01:27:54Z</time>
    </trkpt>
    <trkpt lat="-30.310090994" lon="153.113779994">
      <ele>30.4</ele>
      <time>2017-09-27T01:28:02Z</time>
    </trkpt>
    <trkpt lat="-30.310165929" lon="153.113774965">
      <ele>29.4</ele>
      <time>2017-09-27T01:28:06Z</time>
    </trkpt>
    <trkpt lat="-30.310179926" lon="153.113755938">
      <ele>29.4</ele>
      <time>2017-09-27T01:28:10Z</time>
    </trkpt>
    <trkpt lat="-30.310262991" lon="153.11369299">
      <ele>30.0</ele>
      <time>2017-09-27T01:28:14Z</time>
    </trkpt>
    <trkpt lat="-30.310390983" lon="153.113607997">
      <ele>30.4</ele>
      <time>2017-09-27T01:28:18Z</time>
    </trkpt>
    <trkpt lat="-30.310522998" lon="153.113562986">
      <ele>30.4</ele>
      <time>2017-09-27T01:28:22Z</time>
    </trkpt>
    <trkpt lat="-30.310659958" lon="153.113487968">
      <ele>30.0</ele>
      <time>2017-09-27T01:28:26Z</time>
    </trkpt>
    <trkpt lat="-30.310804965" lon="153.113430971">
      <ele>30.0</ele>
      <time>2017-09-27T01:28:30Z</time>
    </trkpt>
    <trkpt lat="-30.310964976" lon="153.113452932">
      <ele>29.4</ele>
      <time>2017-09-27T01:28:34Z</time>
    </trkpt>
    <trkpt lat="-30.311109982" lon="153.113457961">
      <ele>29.8</ele>
      <time>2017-09-27T01:28:38Z</time>
    </trkpt>
    <trkpt lat="-30.311152982" lon="153.113367939">
      <ele>30.6</ele>
      <time>2017-09-27T01:28:42Z</time>
    </trkpt>
    <trkpt lat="-30.31124996" lon="153.11325998">
      <ele>31.0</ele>
      <time>2017-09-27T01:28:46Z</time>
    </trkpt>
    <trkpt lat="-30.311325984" lon="153.113172976">
      <ele>30.8</ele>
      <time>2017-09-27T01:28:50Z</time>
    </trkpt>
    <trkpt lat="-30.311362948" lon="153.113064934">
      <ele>30.4</ele>
      <time>2017-09-27T01:28:54Z</time>
    </trkpt>
    <trkpt lat="-30.311415922" lon="153.112985976">
      <ele>29.8</ele>
      <time>2017-09-27T01:28:58Z</time>
    </trkpt>
    <trkpt lat="-30.311575932" lon="153.112940965">
      <ele>28.8</ele>
      <time>2017-09-27T01:29:02Z</time>
    </trkpt>
    <trkpt lat="-30.311682969" lon="153.112905929">
      <ele>29.0</ele>
      <time>2017-09-27T01:29:06Z</time>
    </trkpt>
    <trkpt lat="-30.311732925" lon="153.112917999">
      <ele>28.6</ele>
      <time>2017-09-27T01:29:10Z</time>
    </trkpt>
    <trkpt lat="-30.311745917" lon="153.112900984">
      <ele>29.4</ele>
      <time>2017-09-27T01:29:14Z</time>
    </trkpt>
    <trkpt lat="-30.311730998" lon="153.112815991">
      <ele>29.2</ele>
      <time>2017-09-27T01:29:22Z</time>
    </trkpt>
    <trkpt lat="-30.311834933" lon="153.112834934">
      <ele>29.0</ele>
      <time>2017-09-27T01:30:10Z</time>
    </trkpt>
    <trkpt lat="-30.311859995" lon="153.112850944">
      <ele>29.2</ele>
      <time>2017-09-27T01:30:18Z</time>
    </trkpt>
    <trkpt lat="-30.312019922" lon="153.112714989">
      <ele>29.6</ele>
      <time>2017-09-27T01:31:10Z</time>
    </trkpt>
    <trkpt lat="-30.31210592" lon="153.11286293">
      <ele>29.4</ele>
      <time>2017-09-27T01:31:54Z</time>
    </trkpt>
    <trkpt lat="-30.312107932" lon="153.112882962">
      <ele>29.8</ele>
      <time>2017-09-27T01:31:58Z</time>
    </trkpt>
    <trkpt lat="-30.31210592" lon="153.112959992">
      <ele>30.0</ele>
      <time>2017-09-27T01:32:02Z</time>
    </trkpt>
    <trkpt lat="-30.312180938" lon="153.113030987">
      <ele>30.4</ele>
      <time>2017-09-27T01:32:06Z</time>
    </trkpt>
    <trkpt lat="-30.312272971" lon="153.113159984">
      <ele>31.8</ele>
      <time>2017-09-27T01:32:10Z</time>
    </trkpt>
    <trkpt lat="-30.312332986" lon="153.113274984">
      <ele>33.0</ele>
      <time>2017-09-27T01:32:14Z</time>
    </trkpt>
    <trkpt lat="-30.312339943" lon="153.113364922">
      <ele>33.4</ele>
      <time>2017-09-27T01:32:18Z</time>
    </trkpt>
    <trkpt lat="-30.312339943" lon="153.113464918">
      <ele>33.6</ele>
      <time>2017-09-27T01:32:22Z</time>
    </trkpt>
    <trkpt lat="-30.31236995" lon="153.113629958">
      <ele>34.2</ele>
      <time>2017-09-27T01:33:30Z</time>
    </trkpt>
    <trkpt lat="-30.312294932" lon="153.113625934">
      <ele>32.4</ele>
      <time>2017-09-27T01:33:34Z</time>
    </trkpt>
    <trkpt lat="-30.312244976" lon="153.113539936">
      <ele>31.8</ele>
      <time>2017-09-27T01:33:38Z</time>
    </trkpt>
    <trkpt lat="-30.312192924" lon="153.113449998">
      <ele>31.8</ele>
      <time>2017-09-27T01:33:42Z</time>
    </trkpt>
    <trkpt lat="-30.312119918" lon="153.113380931">
      <ele>31.2</ele>
      <time>2017-09-27T01:33:46Z</time>
    </trkpt>
    <trkpt lat="-30.311962925" lon="153.113250928">
      <ele>30.6</ele>
      <time>2017-09-27T01:33:50Z</time>
    </trkpt>
    <trkpt lat="-30.311832922" lon="153.113112962">
      <ele>30.6</ele>
      <time>2017-09-27T01:33:54Z</time>
    </trkpt>
    <trkpt lat="-30.311709959" lon="153.113039955">
      <ele>32.2</ele>
      <time>2017-09-27T01:33:58Z</time>
    </trkpt>
    <trkpt lat="-30.311564952" lon="153.113037944">
      <ele>32.0</ele>
      <time>2017-09-27T01:34:02Z</time>
    </trkpt>
    <trkpt lat="-30.311455987" lon="153.113025958">
      <ele>32.6</ele>
      <time>2017-09-27T01:34:06Z</time>
    </trkpt>
    <trkpt lat="-30.311345933" lon="153.113125954">
      <ele>33.2</ele>
      <time>2017-09-27T01:34:10Z</time>
    </trkpt>
    <trkpt lat="-30.311307963" lon="153.11327599">
      <ele>32.2</ele>
      <time>2017-09-27T01:34:14Z</time>
    </trkpt>
    <trkpt lat="-30.311230933" lon="153.113447987">
      <ele>32.0</ele>
      <time>2017-09-27T01:34:18Z</time>
    </trkpt>
    <trkpt lat="-30.311192963" lon="153.113612942">
      <ele>32.4</ele>
      <time>2017-09-27T01:34:22Z</time>
    </trkpt>
    <trkpt lat="-30.311050974" lon="153.113657953">
      <ele>32.8</ele>
      <time>2017-09-27T01:34:26Z</time>
    </trkpt>
    <trkpt lat="-30.310872942" lon="153.113674968">
      <ele>32.8</ele>
      <time>2017-09-27T01:34:30Z</time>
    </trkpt>
    <trkpt lat="-30.310697928" lon="153.113685949">
      <ele>32.6</ele>
      <time>2017-09-27T01:34:34Z</time>
    </trkpt>
    <trkpt lat="-30.310515957" lon="153.113669939">
      <ele>32.4</ele>
      <time>2017-09-27T01:34:38Z</time>
    </trkpt>
    <trkpt lat="-30.310344966" lon="153.113672957">
      <ele>33.8</ele>
      <time>2017-09-27T01:34:42Z</time>
    </trkpt>
    <trkpt lat="-30.31014598" lon="153.113720985">
      <ele>33.6</ele>
      <time>2017-09-27T01:34:46Z</time>
    </trkpt>
    <trkpt lat="-30.309937941" lon="153.11377597">
      <ele>34.2</ele>
      <time>2017-09-27T01:34:50Z</time>
    </trkpt>
    <trkpt lat="-30.309872981" lon="153.113934975">
      <ele>34.0</ele>
      <time>2017-09-27T01:34:54Z</time>
    </trkpt>
    <trkpt lat="-30.309754964" lon="153.114035977">
      <ele>34.4</ele>
      <time>2017-09-27T01:34:58Z</time>
    </trkpt>
    <trkpt lat="-30.309610963" lon="153.114117952">
      <ele>35.0</ele>
      <time>2017-09-27T01:35:02Z</time>
    </trkpt>
    <trkpt lat="-30.309422957" lon="153.114150977">
      <ele>36.6</ele>
      <time>2017-09-27T01:35:06Z</time>
    </trkpt>
    <trkpt lat="-30.309267975" lon="153.114184923">
      <ele>38.2</ele>
      <time>2017-09-27T01:35:10Z</time>
    </trkpt>
    <trkpt lat="-30.309107965" lon="153.114225995">
      <ele>39.8</ele>
      <time>2017-09-27T01:35:14Z</time>
    </trkpt>
    <trkpt lat="-30.308900932" lon="153.114247955">
      <ele>41.4</ele>
      <time>2017-09-27T01:35:18Z</time>
    </trkpt>
    <trkpt lat="-30.308699934" lon="153.114292966">
      <ele>43.2</ele>
      <time>2017-09-27T01:35:22Z</time>
    </trkpt>
    <trkpt lat="-30.308512934" lon="153.114327919">
      <ele>43.8</ele>
      <time>2017-09-27T01:35:26Z</time>
    </trkpt>
    <trkpt lat="-30.308362981" lon="153.114312999">
      <ele>44.2</ele>
      <time>2017-09-27T01:35:30Z</time>
    </trkpt>
    <trkpt lat="-30.308204982" lon="153.114355998">
      <ele>44.6</ele>
      <time>2017-09-27T01:35:34Z</time>
    </trkpt>
    <trkpt lat="-30.308092916" lon="153.114397991">
      <ele>44.2</ele>
      <time>2017-09-27T01:35:38Z</time>
    </trkpt>
    <trkpt lat="-30.308067938" lon="153.114454988">
      <ele>44.0</ele>
      <time>2017-09-27T01:35:42Z</time>
    </trkpt>
    <trkpt lat="-30.308075985" lon="153.114390951">
      <ele>44.2</ele>
      <time>2017-09-27T01:36:02Z</time>
    </trkpt>
    <trkpt lat="-30.308072967" lon="153.114362955">
      <ele>44.4</ele>
      <time>2017-09-27T01:36:06Z</time>
    </trkpt>
    <trkpt lat="-30.308082942" lon="153.114335965">
      <ele>44.6</ele>
      <time>2017-09-27T01:36:14Z</time>
    </trkpt>
    <trkpt lat="-30.308054946" lon="153.114319956">
      <ele>44.8</ele>
      <time>2017-09-27T01:36:18Z</time>
    </trkpt>
    <trkpt lat="-30.308027957" lon="153.114289949">
      <ele>45.0</ele>
      <time>2017-09-27T01:36:22Z</time>
    </trkpt>
    <trkpt lat="-30.308002979" lon="153.11425793">
      <ele>45.2</ele>
      <time>2017-09-27T01:36:26Z</time>
    </trkpt>
    <trkpt lat="-30.307977917" lon="153.114225995">
      <ele>45.4</ele>
      <time>2017-09-27T01:36:30Z</time>
    </trkpt>
    <trkpt lat="-30.307935923" lon="153.114202945">
      <ele>46.2</ele>
      <time>2017-09-27T01:36:34Z</time>
    </trkpt>
    <trkpt lat="-30.307897953" lon="153.114174949">
      <ele>47.0</ele>
      <time>2017-09-27T01:36:38Z</time>
    </trkpt>
    <trkpt lat="-30.307872975" lon="153.114144942">
      <ele>46.8</ele>
      <time>2017-09-27T01:36:42Z</time>
    </trkpt>
    <trkpt lat="-30.307839951" lon="153.114129938">
      <ele>46.6</ele>
      <time>2017-09-27T01:36:46Z</time>
    </trkpt>
    <trkpt lat="-30.307810949" lon="153.114109989">
      <ele>47.2</ele>
      <time>2017-09-27T01:36:50Z</time>
    </trkpt>
    <trkpt lat="-30.307774991" lon="153.114097919">
      <ele>47.2</ele>
      <time>2017-09-27T01:36:54Z</time>
    </trkpt>
    <trkpt lat="-30.307727968" lon="153.114097919">
      <ele>47.8</ele>
      <time>2017-09-27T01:37:06Z</time>
    </trkpt>
    <trkpt lat="-30.307684969" lon="153.114089957">
      <ele>47.2</ele>
      <time>2017-09-27T01:37:10Z</time>
    </trkpt>
    <trkpt lat="-30.307642976" lon="153.114090962">
      <ele>46.8</ele>
      <time>2017-09-27T01:37:14Z</time>
    </trkpt>
    <trkpt lat="-30.30758095" lon="153.114094986">
      <ele>46.6</ele>
      <time>2017-09-27T01:37:18Z</time>
    </trkpt>
    <trkpt lat="-30.307530994" lon="153.114094986">
      <ele>46.4</ele>
      <time>2017-09-27T01:37:22Z</time>
    </trkpt>
    <trkpt lat="-30.307487994" lon="153.114094986">
      <ele>46.2</ele>
      <time>2017-09-27T01:37:26Z</time>
    </trkpt>
    <trkpt lat="-30.307419933" lon="153.114099931">
      <ele>45.4</ele>
      <time>2017-09-27T01:37:30Z</time>
    </trkpt>
    <trkpt lat="-30.307345921" lon="153.114100937">
      <ele>44.4</ele>
      <time>2017-09-27T01:37:34Z</time>
    </trkpt>
    <trkpt lat="-30.307260929" lon="153.114057938">
      <ele>44.4</ele>
      <time>2017-09-27T01:37:42Z</time>
    </trkpt>
    <trkpt lat="-30.307219941" lon="153.114060955">
      <ele>44.0</ele>
      <time>2017-09-27T01:37:46Z</time>
    </trkpt>
    <trkpt lat="-30.307179959" lon="153.114039917">
      <ele>43.4</ele>
      <time>2017-09-27T01:37:50Z</time>
    </trkpt>
    <trkpt lat="-30.307149952" lon="153.11400597">
      <ele>43.0</ele>
      <time>2017-09-27T01:37:54Z</time>
    </trkpt>
    <trkpt lat="-30.30712598" lon="153.113965988">
      <ele>43.0</ele>
      <time>2017-09-27T01:37:58Z</time>
    </trkpt>
    <trkpt lat="-30.307107959" lon="153.113905974">
      <ele>41.8</ele>
      <time>2017-09-27T01:38:06Z</time>
    </trkpt>
    <trkpt lat="-30.307074934" lon="153.113872949">
      <ele>42.2</ele>
      <time>2017-09-27T01:38:10Z</time>
    </trkpt>
    <trkpt lat="-30.307045933" lon="153.113842942">
      <ele>42.6</ele>
      <time>2017-09-27T01:38:18Z</time>
    </trkpt>
    <trkpt lat="-30.307017937" lon="153.113800948">
      <ele>42.2</ele>
      <time>2017-09-27T01:38:30Z</time>
    </trkpt>
    <trkpt lat="-30.307009974" lon="153.11377597">
      <ele>41.6</ele>
      <time>2017-09-27T01:38:34Z</time>
    </trkpt>
    <trkpt lat="-30.30701492" lon="153.113769935">
      <ele>42.0</ele>
      <time>2017-09-27T01:38:38Z</time>
    </trkpt>
    <trkpt lat="-30.307027996" lon="153.113749987">
      <ele>41.8</ele>
      <time>2017-09-27T01:38:42Z</time>
    </trkpt>
    <trkpt lat="-30.307047945" lon="153.113754932">
      <ele>42.4</ele>
      <time>2017-09-27T01:38:46Z</time>
    </trkpt>
    <trkpt lat="-30.306959935" lon="153.11376499">
      <ele>41.4</ele>
      <time>2017-09-27T01:38:50Z</time>
    </trkpt>
    <trkpt lat="-30.306825992" lon="153.113787957">
      <ele>40.0</ele>
      <time>2017-09-27T01:38:54Z</time>
    </trkpt>
    <trkpt lat="-30.306700934" lon="153.113880996">
      <ele>38.6</ele>
      <time>2017-09-27T01:38:58Z</time>
    </trkpt>
    <trkpt lat="-30.306622982" lon="153.114024997">
      <ele>37.8</ele>
      <time>2017-09-27T01:39:02Z</time>
    </trkpt>
    <trkpt lat="-30.306357946" lon="153.114175955">
      <ele>35.4</ele>
      <time>2017-09-27T01:39:06Z</time>
    </trkpt>
    <trkpt lat="-30.305942958" lon="153.114292966">
      <ele>34.6</ele>
      <time>2017-09-27T01:39:10Z</time>
    </trkpt>
    <trkpt lat="-30.30556594" lon="153.114320962">
      <ele>34.0</ele>
      <time>2017-09-27T01:39:14Z</time>
    </trkpt>
    <trkpt lat="-30.305370977" lon="153.114189953">
      <ele>34.4</ele>
      <time>2017-09-27T01:39:18Z</time>
    </trkpt>
    <trkpt lat="-30.305464938" lon="153.113839924">
      <ele>36.8</ele>
      <time>2017-09-27T01:39:22Z</time>
    </trkpt>
    <trkpt lat="-30.305690998" lon="153.113339944">
      <ele>38.8</ele>
      <time>2017-09-27T01:39:26Z</time>
    </trkpt>
    <trkpt lat="-30.305887973" lon="153.11274793">
      <ele>40.4</ele>
      <time>2017-09-27T01:39:30Z</time>
    </trkpt>
    <trkpt lat="-30.30607095" lon="153.112142924">
      <ele>40.6</ele>
      <time>2017-09-27T01:39:34Z</time>
    </trkpt>
    <trkpt lat="-30.306109926" lon="153.111499948">
      <ele>40.0</ele>
      <time>2017-09-27T01:39:38Z</time>
    </trkpt>
    <trkpt lat="-30.306139933" lon="153.110854961">
      <ele>40.2</ele>
      <time>2017-09-27T01:39:42Z</time>
    </trkpt>
    <trkpt lat="-30.306252921" lon="153.11020595">
      <ele>39.8</ele>
      <time>2017-09-27T01:39:46Z</time>
    </trkpt>
    <trkpt lat="-30.306450985" lon="153.109599939">
      <ele>37.6</ele>
      <time>2017-09-27T01:39:50Z</time>
    </trkpt>
    <trkpt lat="-30.306629939" lon="153.109007925">
      <ele>41.2</ele>
      <time>2017-09-27T01:39:54Z</time>
    </trkpt>
    <trkpt lat="-30.306814928" lon="153.108440973">
      <ele>40.6</ele>
      <time>2017-09-27T01:39:58Z</time>
    </trkpt>
    <trkpt lat="-30.306979967" lon="153.10787092">
      <ele>43.4</ele>
      <time>2017-09-27T01:40:02Z</time>
    </trkpt>
    <trkpt lat="-30.306982985" lon="153.107240936">
      <ele>41.4</ele>
      <time>2017-09-27T01:40:06Z</time>
    </trkpt>
    <trkpt lat="-30.306879971" lon="153.106582956">
      <ele>40.0</ele>
      <time>2017-09-27T01:40:10Z</time>
    </trkpt>
    <trkpt lat="-30.306774946" lon="153.10589497">
      <ele>38.2</ele>
      <time>2017-09-27T01:40:14Z</time>
    </trkpt>
    <trkpt lat="-30.306655923" lon="153.105187956">
      <ele>37.6</ele>
      <time>2017-09-27T01:40:18Z</time>
    </trkpt>
    <trkpt lat="-30.30648795" lon="153.10449494">
      <ele>37.4</ele>
      <time>2017-09-27T01:40:22Z</time>
    </trkpt>
    <trkpt lat="-30.306312935" lon="153.103850959">
      <ele>37.4</ele>
      <time>2017-09-27T01:40:26Z</time>
    </trkpt>
    <trkpt lat="-30.306132976" lon="153.103239918">
      <ele>37.2</ele>
      <time>2017-09-27T01:40:30Z</time>
    </trkpt>
    <trkpt lat="-30.305949999" lon="153.102657963">
      <ele>38.0</ele>
      <time>2017-09-27T01:40:34Z</time>
    </trkpt>
    <trkpt lat="-30.305772973" lon="153.102189917">
      <ele>35.0</ele>
      <time>2017-09-27T01:40:42Z</time>
    </trkpt>
    <trkpt lat="-30.305702984" lon="153.101960924">
      <ele>34.6</ele>
      <time>2017-09-27T01:40:46Z</time>
    </trkpt>
    <trkpt lat="-30.305644982" lon="153.101944998">
      <ele>34.8</ele>
      <time>2017-09-27T01:40:50Z</time>
    </trkpt>
    <trkpt lat="-30.305610951" lon="153.101959918">
      <ele>34.6</ele>
      <time>2017-09-27T01:40:54Z</time>
    </trkpt>
    <trkpt lat="-30.305625955" lon="153.101994954">
      <ele>35.0</ele>
      <time>2017-09-27T01:40:58Z</time>
    </trkpt>
    <trkpt lat="-30.305610951" lon="153.102034936">
      <ele>34.4</ele>
      <time>2017-09-27T01:41:02Z</time>
    </trkpt>
    <trkpt lat="-30.305614974" lon="153.102090927">
      <ele>34.0</ele>
      <time>2017-09-27T01:41:06Z</time>
    </trkpt>
    <trkpt lat="-30.305630984" lon="153.102152953">
      <ele>34.4</ele>
      <time>2017-09-27T01:41:10Z</time>
    </trkpt>
    <trkpt lat="-30.305679934" lon="153.102194946">
      <ele>34.2</ele>
      <time>2017-09-27T01:41:14Z</time>
    </trkpt>
    <trkpt lat="-30.305570969" lon="153.102217996">
      <ele>34.4</ele>
      <time>2017-09-27T01:41:34Z</time>
    </trkpt>
    <trkpt lat="-30.305584967" lon="153.10218296">
      <ele>34.2</ele>
      <time>2017-09-27T01:41:38Z</time>
    </trkpt>
    <trkpt lat="-30.305582955" lon="153.102117917">
      <ele>34.6</ele>
      <time>2017-09-27T01:41:42Z</time>
    </trkpt>
    <trkpt lat="-30.305599971" lon="153.102014987">
      <ele>34.8</ele>
      <time>2017-09-27T01:41:46Z</time>
    </trkpt>
    <trkpt lat="-30.305650933" lon="153.102007946">
      <ele>34.6</ele>
      <time>2017-09-27T01:41:50Z</time>
    </trkpt>
    <trkpt lat="-30.305704996" lon="153.102035942">
      <ele>35.2</ele>
      <time>2017-09-27T01:41:54Z</time>
    </trkpt>
    <trkpt lat="-30.305814967" lon="153.102009958">
      <ele>36.0</ele>
      <time>2017-09-27T01:41:58Z</time>
    </trkpt>
    <trkpt lat="-30.306194918" lon="153.101829998">
      <ele>36.0</ele>
      <time>2017-09-27T01:42:02Z</time>
    </trkpt>
    <trkpt lat="-30.306664975" lon="153.101630928">
      <ele>34.8</ele>
      <time>2017-09-27T01:42:06Z</time>
    </trkpt>
    <trkpt lat="-30.307094967" lon="153.101460943">
      <ele>34.0</ele>
      <time>2017-09-27T01:42:10Z</time>
    </trkpt>
    <trkpt lat="-30.307319937" lon="153.101405958">
      <ele>33.8</ele>
      <time>2017-09-27T01:42:14Z</time>
    </trkpt>
    <trkpt lat="-30.307322955" lon="153.101372933">
      <ele>33.8</ele>
      <time>2017-09-27T01:42:18Z</time>
    </trkpt>
    <trkpt lat="-30.307270987" lon="153.101350972">
      <ele>34.2</ele>
      <time>2017-09-27T01:42:22Z</time>
    </trkpt>
    <trkpt lat="-30.307259923" lon="153.101315936">
      <ele>34.6</ele>
      <time>2017-09-27T01:42:30Z</time>
    </trkpt>
    <trkpt lat="-30.307329996" lon="153.101264974">
      <ele>34.2</ele>
      <time>2017-09-27T01:42:34Z</time>
    </trkpt>
    <trkpt lat="-30.307552954" lon="153.101169923">
      <ele>34.6</ele>
      <time>2017-09-27T01:42:38Z</time>
    </trkpt>
    <trkpt lat="-30.307820924" lon="153.101072945">
      <ele>35.0</ele>
      <time>2017-09-27T01:42:42Z</time>
    </trkpt>
    <trkpt lat="-30.308144968" lon="153.100917963">
      <ele>36.2</ele>
      <time>2017-09-27T01:42:46Z</time>
    </trkpt>
    <trkpt lat="-30.308400951" lon="153.100754935">
      <ele>37.2</ele>
      <time>2017-09-27T01:42:50Z</time>
    </trkpt>
    <trkpt lat="-30.308625922" lon="153.10055092">
      <ele>39.8</ele>
      <time>2017-09-27T01:42:54Z</time>
    </trkpt>
    <trkpt lat="-30.308850976" lon="153.100384958">
      <ele>40.6</ele>
      <time>2017-09-27T01:42:58Z</time>
    </trkpt>
    <trkpt lat="-30.309040993" lon="153.100124951">
      <ele>43.6</ele>
      <time>2017-09-27T01:43:02Z</time>
    </trkpt>
    <trkpt lat="-30.309119951" lon="153.099727985">
      <ele>45.2</ele>
      <time>2017-09-27T01:43:06Z</time>
    </trkpt>
    <trkpt lat="-30.309319943" lon="153.099279972">
      <ele>48.0</ele>
      <time>2017-09-27T01:43:10Z</time>
    </trkpt>
    <trkpt lat="-30.309545919" lon="153.098855931">
      <ele>49.6</ele>
      <time>2017-09-27T01:43:14Z</time>
    </trkpt>
    <trkpt lat="-30.309802992" lon="153.098395932">
      <ele>49.4</ele>
      <time>2017-09-27T01:43:18Z</time>
    </trkpt>
    <trkpt lat="-30.310020922" lon="153.097975999">
      <ele>49.6</ele>
      <time>2017-09-27T01:43:22Z</time>
    </trkpt>
    <trkpt lat="-30.310132988" lon="153.097759997">
      <ele>48.6</ele>
      <time>2017-09-27T01:43:26Z</time>
    </trkpt>
    <trkpt lat="-30.31161298" lon="153.097284995">
      <ele>44.2</ele>
      <time>2017-09-27T01:43:38Z</time>
    </trkpt>
    <trkpt lat="-30.311582973" lon="153.097419944">
      <ele>44.2</ele>
      <time>2017-09-27T01:43:42Z</time>
    </trkpt>
    <trkpt lat="-30.31151793" lon="153.097379962">
      <ele>44.4</ele>
      <time>2017-09-27T01:43:46Z</time>
    </trkpt>
    <trkpt lat="-30.311415922" lon="153.097325983">
      <ele>44.2</ele>
      <time>2017-09-27T01:43:54Z</time>
    </trkpt>
    <trkpt lat="-30.311317937" lon="153.097294969">
      <ele>44.2</ele>
      <time>2017-09-27T01:43:58Z</time>
    </trkpt>
    <trkpt lat="-30.31124996" lon="153.09726798">
      <ele>44.2</ele>
      <time>2017-09-27T01:44:06Z</time>
    </trkpt>
    <trkpt lat="-30.311252978" lon="153.097307961">
      <ele>44.4</ele>
      <time>2017-09-27T01:44:10Z</time>
    </trkpt>
    <trkpt lat="-30.311250966" lon="153.097349955">
      <ele>43.8</ele>
      <time>2017-09-27T01:44:26Z</time>
    </trkpt>
    <trkpt lat="-30.311189946" lon="153.097264962">
      <ele>43.0</ele>
      <time>2017-09-27T01:44:54Z</time>
    </trkpt>
    <trkpt lat="-30.310832961" lon="153.097250964">
      <ele>45.4</ele>
      <time>2017-09-27T01:46:10Z</time>
    </trkpt>
    <trkpt lat="-30.310965981" lon="153.097140994">
      <ele>44.4</ele>
      <time>2017-09-27T01:46:50Z</time>
    </trkpt>
    <trkpt lat="-30.311015937" lon="153.097185921">
      <ele>44.4</ele>
      <time>2017-09-27T01:46:58Z</time>
    </trkpt>
    <trkpt lat="-30.311064972" lon="153.097212994">
      <ele>44.4</ele>
      <time>2017-09-27T01:47:02Z</time>
    </trkpt>
    <trkpt lat="-30.311107971" lon="153.097232943">
      <ele>44.8</ele>
      <time>2017-09-27T01:47:06Z</time>
    </trkpt>
    <trkpt lat="-30.311120963" lon="153.097234955">
      <ele>44.6</ele>
      <time>2017-09-27T01:47:14Z</time>
    </trkpt>
    <trkpt lat="-30.311107971" lon="153.097274937">
      <ele>44.4</ele>
      <time>2017-09-27T01:47:18Z</time>
    </trkpt>
    <trkpt lat="-30.311105959" lon="153.097330928">
      <ele>44.0</ele>
      <time>2017-09-27T01:47:22Z</time>
    </trkpt>
    <trkpt lat="-30.311180977" lon="153.097379962">
      <ele>44.0</ele>
      <time>2017-09-27T01:47:26Z</time>
    </trkpt>
    <trkpt lat="-30.311200926" lon="153.097420949">
      <ele>43.8</ele>
      <time>2017-09-27T01:47:30Z</time>
    </trkpt>
    <trkpt lat="-30.311164968" lon="153.097470989">
      <ele>44.0</ele>
      <time>2017-09-27T01:47:34Z</time>
    </trkpt>
    <trkpt lat="-30.31119992" lon="153.097532932">
      <ele>43.8</ele>
      <time>2017-09-27T01:47:38Z</time>
    </trkpt>
    <trkpt lat="-30.311367977" lon="153.097662935">
      <ele>42.2</ele>
      <time>2017-09-27T01:47:42Z</time>
    </trkpt>
    <trkpt lat="-30.311497981" lon="153.097782964">
      <ele>41.4</ele>
      <time>2017-09-27T01:47:46Z</time>
    </trkpt>
    <trkpt lat="-30.311694955" lon="153.09795999">
      <ele>38.6</ele>
      <time>2017-09-27T01:47:50Z</time>
    </trkpt>
    <trkpt lat="-30.311924955" lon="153.098185966">
      <ele>36.2</ele>
      <time>2017-09-27T01:47:54Z</time>
    </trkpt>
    <trkpt lat="-30.312104998" lon="153.098372966">
      <ele>35.8</ele>
      <time>2017-09-27T01:47:58Z</time>
    </trkpt>
    <trkpt lat="-30.312260985" lon="153.098525936">
      <ele>36.2</ele>
      <time>2017-09-27T01:48:02Z</time>
    </trkpt>
    <trkpt lat="-30.312487967" lon="153.098695921">
      <ele>35.2</ele>
      <time>2017-09-27T01:48:06Z</time>
    </trkpt>
    <trkpt lat="-30.312674968" lon="153.099024994">
      <ele>35.6</ele>
      <time>2017-09-27T01:48:10Z</time>
    </trkpt>
    <trkpt lat="-30.31264496" lon="153.09922792">
      <ele>36.6</ele>
      <time>2017-09-27T01:48:14Z</time>
    </trkpt>
    <trkpt lat="-30.312450919" lon="153.099389942">
      <ele>36.2</ele>
      <time>2017-09-27T01:48:18Z</time>
    </trkpt>
    <trkpt lat="-30.312239947" lon="153.099624971">
      <ele>35.4</ele>
      <time>2017-09-27T01:48:22Z</time>
    </trkpt>
    <trkpt lat="-30.311997961" lon="153.099922948">
      <ele>34.4</ele>
      <time>2017-09-27T01:48:26Z</time>
    </trkpt>
    <trkpt lat="-30.311742984" lon="153.10021095">
      <ele>33.8</ele>
      <time>2017-09-27T01:48:30Z</time>
    </trkpt>
    <trkpt lat="-30.311552966" lon="153.100504987">
      <ele>34.6</ele>
      <time>2017-09-27T01:48:34Z</time>
    </trkpt>
    <trkpt lat="-30.311469985" lon="153.100887956">
      <ele>33.8</ele>
      <time>2017-09-27T01:48:38Z</time>
    </trkpt>
    <trkpt lat="-30.311347945" lon="153.101270925">
      <ele>34.4</ele>
      <time>2017-09-27T01:48:42Z</time>
    </trkpt>
    <trkpt lat="-30.311097996" lon="153.101509977">
      <ele>35.6</ele>
      <time>2017-09-27T01:48:46Z</time>
    </trkpt>
    <trkpt lat="-30.31078795" lon="153.101579966">
      <ele>34.6</ele>
      <time>2017-09-27T01:48:50Z</time>
    </trkpt>
    <trkpt lat="-30.310474969" lon="153.101644926">
      <ele>34.8</ele>
      <time>2017-09-27T01:48:54Z</time>
    </trkpt>
    <trkpt lat="-30.310179926" lon="153.101690942">
      <ele>35.8</ele>
      <time>2017-09-27T01:48:58Z</time>
    </trkpt>
    <trkpt lat="-30.309925955" lon="153.101745928">
      <ele>36.6</ele>
      <time>2017-09-27T01:49:02Z</time>
    </trkpt>
    <trkpt lat="-30.309662931" lon="153.101722961">
      <ele>37.4</ele>
      <time>2017-09-27T01:49:06Z</time>
    </trkpt>
    <trkpt lat="-30.309319943" lon="153.101494974">
      <ele>36.6</ele>
      <time>2017-09-27T01:49:10Z</time>
    </trkpt>
    <trkpt lat="-30.30909799" lon="153.101295987">
      <ele>37.4</ele>
      <time>2017-09-27T01:49:14Z</time>
    </trkpt>
    <trkpt lat="-30.308864973" lon="153.101092977">
      <ele>37.0</ele>
      <time>2017-09-27T01:49:18Z</time>
    </trkpt>
    <trkpt lat="-30.308710998" lon="153.100939924">
      <ele>36.8</ele>
      <time>2017-09-27T01:49:22Z</time>
    </trkpt>
    <trkpt lat="-30.308565991" lon="153.100822996">
      <ele>36.4</ele>
      <time>2017-09-27T01:49:26Z</time>
    </trkpt>
    <trkpt lat="-30.308614941" lon="153.100827942">
      <ele>36.6</ele>
      <time>2017-09-27T01:49:30Z</time>
    </trkpt>
    <trkpt lat="-30.308912918" lon="153.101035981">
      <ele>36.6</ele>
      <time>2017-09-27T01:49:38Z</time>
    </trkpt>
    <trkpt lat="-30.309015932" lon="153.101035981">
      <ele>36.6</ele>
      <time>2017-09-27T01:49:42Z</time>
    </trkpt>
    <trkpt lat="-30.309070917" lon="153.101065988">
      <ele>36.6</ele>
      <time>2017-09-27T01:49:46Z</time>
    </trkpt>
    <trkpt lat="-30.309015932" lon="153.101064982">
      <ele>37.4</ele>
      <time>2017-09-27T01:50:14Z</time>
    </trkpt>
    <trkpt lat="-30.308945943" lon="153.101029946">
      <ele>40.8</ele>
      <time>2017-09-27T01:50:18Z</time>
    </trkpt>
    <trkpt lat="-30.308770929" lon="153.100920981">
      <ele>39.2</ele>
      <time>2017-09-27T01:50:22Z</time>
    </trkpt>
    <trkpt lat="-30.308385948" lon="153.100855937">
      <ele>39.2</ele>
      <time>2017-09-27T01:50:26Z</time>
    </trkpt>
    <trkpt lat="-30.307809943" lon="153.100985941">
      <ele>40.0</ele>
      <time>2017-09-27T01:50:30Z</time>
    </trkpt>
    <trkpt lat="-30.30733997" lon="153.101142934">
      <ele>36.6</ele>
      <time>2017-09-27T01:50:34Z</time>
    </trkpt>
    <trkpt lat="-30.306964964" lon="153.101272937">
      <ele>36.0</ele>
      <time>2017-09-27T01:50:38Z</time>
    </trkpt>
    <trkpt lat="-30.306659946" lon="153.101377962">
      <ele>35.2</ele>
      <time>2017-09-27T01:50:42Z</time>
    </trkpt>
    <trkpt lat="-30.306442939" lon="153.101449963">
      <ele>35.8</ele>
      <time>2017-09-27T01:50:46Z</time>
    </trkpt>
    <trkpt lat="-30.306355935" lon="153.101462955">
      <ele>37.0</ele>
      <time>2017-09-27T01:50:50Z</time>
    </trkpt>
    <trkpt lat="-30.306199947" lon="153.101515928">
      <ele>38.0</ele>
      <time>2017-09-27T01:50:54Z</time>
    </trkpt>
    <trkpt lat="-30.305930972" lon="153.101607962">
      <ele>37.0</ele>
      <time>2017-09-27T01:50:58Z</time>
    </trkpt>
    <trkpt lat="-30.30552797" lon="153.101757998">
      <ele>38.4</ele>
      <time>2017-09-27T01:51:02Z</time>
    </trkpt>
    <trkpt lat="-30.305029918" lon="153.101987997">
      <ele>43.0</ele>
      <time>2017-09-27T01:51:06Z</time>
    </trkpt>
    <trkpt lat="-30.304520968" lon="153.102344982">
      <ele>46.4</ele>
      <time>2017-09-27T01:51:10Z</time>
    </trkpt>
    <trkpt lat="-30.304009924" lon="153.102807999">
      <ele>48.6</ele>
      <time>2017-09-27T01:51:14Z</time>
    </trkpt>
    <trkpt lat="-30.303564928" lon="153.103367994">
      <ele>53.8</ele>
      <time>2017-09-27T01:51:18Z</time>
    </trkpt>
    <trkpt lat="-30.303247925" lon="153.103989931">
      <ele>59.6</ele>
      <time>2017-09-27T01:51:22Z</time>
    </trkpt>
    <trkpt lat="-30.303222947" lon="153.104650928">
      <ele>63.6</ele>
      <time>2017-09-27T01:51:26Z</time>
    </trkpt>
    <trkpt lat="-30.303359991" lon="153.10531293">
      <ele>63.4</ele>
      <time>2017-09-27T01:51:30Z</time>
    </trkpt>
    <trkpt lat="-30.303507932" lon="153.105930928">
      <ele>60.8</ele>
      <time>2017-09-27T01:51:34Z</time>
    </trkpt>
    <trkpt lat="-30.30366593" lon="153.106567953">
      <ele>60.4</ele>
      <time>2017-09-27T01:51:38Z</time>
    </trkpt>
    <trkpt lat="-30.303844968" lon="153.107252922">
      <ele>60.0</ele>
      <time>2017-09-27T01:51:42Z</time>
    </trkpt>
    <trkpt lat="-30.303995926" lon="153.107994972">
      <ele>59.8</ele>
      <time>2017-09-27T01:51:46Z</time>
    </trkpt>
    <trkpt lat="-30.303955944" lon="153.108720928">
      <ele>59.4</ele>
      <time>2017-09-27T01:51:50Z</time>
    </trkpt>
    <trkpt lat="-30.303669954" lon="153.109344961">
      <ele>58.0</ele>
      <time>2017-09-27T01:51:54Z</time>
    </trkpt>
    <trkpt lat="-30.303190928" lon="153.109954996">
      <ele>56.2</ele>
      <time>2017-09-27T01:51:58Z</time>
    </trkpt>
    <trkpt lat="-30.30259598" lon="153.110455982">
      <ele>53.2</ele>
      <time>2017-09-27T01:52:02Z</time>
    </trkpt>
    <trkpt lat="-30.302145956" lon="153.110590931">
      <ele>51.4</ele>
      <time>2017-09-27T01:52:06Z</time>
    </trkpt>
    <trkpt lat="-30.301857954" lon="153.110645916">
      <ele>50.4</ele>
      <time>2017-09-27T01:52:10Z</time>
    </trkpt>
    <trkpt lat="-30.301625943" lon="153.110630997">
      <ele>50.0</ele>
      <time>2017-09-27T01:52:14Z</time>
    </trkpt>
    <trkpt lat="-30.301505998" lon="153.110582968">
      <ele>49.4</ele>
      <time>2017-09-27T01:52:18Z</time>
    </trkpt>
    <trkpt lat="-30.301314974" lon="153.110385993">
      <ele>48.8</ele>
      <time>2017-09-27T01:52:22Z</time>
    </trkpt>
    <trkpt lat="-30.30120098" lon="153.110302929">
      <ele>49.4</ele>
      <time>2017-09-27T01:52:26Z</time>
    </trkpt>
    <trkpt lat="-30.301162926" lon="153.11034794">
      <ele>49.2</ele>
      <time>2017-09-27T01:52:30Z</time>
    </trkpt>
    <trkpt lat="-30.301037952" lon="153.110400997">
      <ele>48.4</ele>
      <time>2017-09-27T01:52:34Z</time>
    </trkpt>
    <trkpt lat="-30.300807953" lon="153.110555978">
      <ele>46.6</ele>
      <time>2017-09-27T01:52:38Z</time>
    </trkpt>
    <trkpt lat="-30.300440993" lon="153.11069998">
      <ele>43.6</ele>
      <time>2017-09-27T01:52:42Z</time>
    </trkpt>
    <trkpt lat="-30.300090965" lon="153.110992927">
      <ele>42.0</ele>
      <time>2017-09-27T01:52:46Z</time>
    </trkpt>
    <trkpt lat="-30.299692992" lon="153.111389978">
      <ele>40.6</ele>
      <time>2017-09-27T01:52:50Z</time>
    </trkpt>
    <trkpt lat="-30.299312957" lon="153.11176993">
      <ele>40.0</ele>
      <time>2017-09-27T01:52:54Z</time>
    </trkpt>
    <trkpt lat="-30.298910961" lon="153.112137979">
      <ele>39.2</ele>
      <time>2017-09-27T01:52:58Z</time>
    </trkpt>
    <trkpt lat="-30.298510976" lon="153.112437967">
      <ele>38.4</ele>
      <time>2017-09-27T01:53:02Z</time>
    </trkpt>
    <trkpt lat="-30.298139993" lon="153.112579957">
      <ele>37.6</ele>
      <time>2017-09-27T01:53:06Z</time>
    </trkpt>
    <trkpt lat="-30.297807986" lon="153.112615999">
      <ele>37.4</ele>
      <time>2017-09-27T01:53:10Z</time>
    </trkpt>
    <trkpt lat="-30.297615957" lon="153.112662937">
      <ele>37.2</ele>
      <time>2017-09-27T01:53:14Z</time>
    </trkpt>
    <trkpt lat="-30.297577986" lon="153.112675929">
      <ele>36.8</ele>
      <time>2017-09-27T01:53:18Z</time>
    </trkpt>
    <trkpt lat="-30.297539933" lon="153.11268297">
      <ele>36.4</ele>
      <time>2017-09-27T01:53:22Z</time>
    </trkpt>
    <trkpt lat="-30.297519984" lon="153.112674924">
      <ele>37.0</ele>
      <time>2017-09-27T01:53:26Z</time>
    </trkpt>
    <trkpt lat="-30.297505986" lon="153.112694956">
      <ele>36.8</ele>
      <time>2017-09-27T01:53:30Z</time>
    </trkpt>
    <trkpt lat="-30.297535993" lon="153.112707948">
      <ele>36.8</ele>
      <time>2017-09-27T01:53:34Z</time>
    </trkpt>
    <trkpt lat="-30.29751596" lon="153.11270996">
      <ele>37.0</ele>
      <time>2017-09-27T01:53:58Z</time>
    </trkpt>
    <trkpt lat="-30.297439937" lon="153.112780955">
      <ele>37.0</ele>
      <time>2017-09-27T01:54:02Z</time>
    </trkpt>
    <trkpt lat="-30.297247991" lon="153.112992933">
      <ele>36.0</ele>
      <time>2017-09-27T01:54:06Z</time>
    </trkpt>
    <trkpt lat="-30.296967952" lon="153.113267943">
      <ele>36.0</ele>
      <time>2017-09-27T01:54:10Z</time>
    </trkpt>
    <trkpt lat="-30.296627982" lon="153.113569943">
      <ele>36.0</ele>
      <time>2017-09-27T01:54:14Z</time>
    </trkpt>
    <trkpt lat="-30.296247946" lon="153.113894993">
      <ele>37.0</ele>
      <time>2017-09-27T01:54:18Z</time>
    </trkpt>
    <trkpt lat="-30.295860954" lon="153.114229934">
      <ele>37.2</ele>
      <time>2017-09-27T01:54:22Z</time>
    </trkpt>
    <trkpt lat="-30.295432974" lon="153.114585998">
      <ele>36.6</ele>
      <time>2017-09-27T01:54:26Z</time>
    </trkpt>
    <trkpt lat="-30.295006" lon="153.114967961">
      <ele>36.2</ele>
      <time>2017-09-27T01:54:30Z</time>
    </trkpt>
    <trkpt lat="-30.294605931" lon="153.115359982">
      <ele>36.0</ele>
      <time>2017-09-27T01:54:34Z</time>
    </trkpt>
    <trkpt lat="-30.294219945" lon="153.115737922">
      <ele>36.4</ele>
      <time>2017-09-27T01:54:38Z</time>
    </trkpt>
    <trkpt lat="-30.293780984" lon="153.116067918">
      <ele>37.2</ele>
      <time>2017-09-27T01:54:42Z</time>
    </trkpt>
    <trkpt lat="-30.293344958" lon="153.116449965">
      <ele>37.2</ele>
      <time>2017-09-27T01:54:46Z</time>
    </trkpt>
    <trkpt lat="-30.292877918" lon="153.116857996">
      <ele>37.0</ele>
      <time>2017-09-27T01:54:50Z</time>
    </trkpt>
    <trkpt lat="-30.292487992" lon="153.117334927">
      <ele>37.2</ele>
      <time>2017-09-27T01:54:54Z</time>
    </trkpt>
    <trkpt lat="-30.292117931" lon="153.117869943">
      <ele>36.0</ele>
      <time>2017-09-27T01:54:58Z</time>
    </trkpt>
    <trkpt lat="-30.291839987" lon="153.118440919">
      <ele>34.6</ele>
      <time>2017-09-27T01:55:02Z</time>
    </trkpt>
    <trkpt lat="-30.291552991" lon="153.118915921">
      <ele>34.0</ele>
      <time>2017-09-27T01:55:06Z</time>
    </trkpt>
    <trkpt lat="-30.291319974" lon="153.119242983">
      <ele>34.4</ele>
      <time>2017-09-27T01:55:10Z</time>
    </trkpt>
    <trkpt lat="-30.29109492" lon="153.119552946">
      <ele>33.8</ele>
      <time>2017-09-27T01:55:14Z</time>
    </trkpt>
    <trkpt lat="-30.290924935" lon="153.119879924">
      <ele>33.6</ele>
      <time>2017-09-27T01:55:18Z</time>
    </trkpt>
    <trkpt lat="-30.290705999" lon="153.120229952">
      <ele>32.6</ele>
      <time>2017-09-27T01:55:22Z</time>
    </trkpt>
    <trkpt lat="-30.290474994" lon="153.120495994">
      <ele>32.2</ele>
      <time>2017-09-27T01:55:26Z</time>
    </trkpt>
    <trkpt lat="-30.290320935" lon="153.120629936">
      <ele>32.0</ele>
      <time>2017-09-27T01:55:30Z</time>
    </trkpt>
    <trkpt lat="-30.290297968" lon="153.120670924">
      <ele>32.2</ele>
      <time>2017-09-27T01:55:34Z</time>
    </trkpt>
    <trkpt lat="-30.290350942" lon="153.120669918">
      <ele>32.8</ele>
      <time>2017-09-27T01:55:38Z</time>
    </trkpt>
    <trkpt lat="-30.290315989" lon="153.120810986">
      <ele>33.0</ele>
      <time>2017-09-27T01:55:42Z</time>
    </trkpt>
    <trkpt lat="-30.290155979" lon="153.121020952">
      <ele>33.2</ele>
      <time>2017-09-27T01:55:46Z</time>
    </trkpt>
    <trkpt lat="-30.28988298" lon="153.121359916">
      <ele>34.2</ele>
      <time>2017-09-27T01:55:50Z</time>
    </trkpt>
    <trkpt lat="-30.289537981" lon="153.12176493">
      <ele>35.8</ele>
      <time>2017-09-27T01:55:54Z</time>
    </trkpt>
    <trkpt lat="-30.289124921" lon="153.122225935">
      <ele>35.2</ele>
      <time>2017-09-27T01:55:58Z</time>
    </trkpt>
    <trkpt lat="-30.288670957" lon="153.122662967">
      <ele>36.4</ele>
      <time>2017-09-27T01:56:02Z</time>
    </trkpt>
    <trkpt lat="-30.288227974" lon="153.123055995">
      <ele>36.8</ele>
      <time>2017-09-27T01:56:06Z</time>
    </trkpt>
    <trkpt lat="-30.287832934" lon="153.123399988">
      <ele>36.8</ele>
      <time>2017-09-27T01:56:10Z</time>
    </trkpt>
    <trkpt lat="-30.287465975" lon="153.123689918">
      <ele>36.0</ele>
      <time>2017-09-27T01:56:14Z</time>
    </trkpt>
    <trkpt lat="-30.287074959" lon="153.124002982">
      <ele>35.2</ele>
      <time>2017-09-27T01:56:18Z</time>
    </trkpt>
    <trkpt lat="-30.286735995" lon="153.124305988">
      <ele>34.0</ele>
      <time>2017-09-27T01:56:22Z</time>
    </trkpt>
    <trkpt lat="-30.286445981" lon="153.124550991">
      <ele>34.0</ele>
      <time>2017-09-27T01:56:26Z</time>
    </trkpt>
    <trkpt lat="-30.286167953" lon="153.12475794">
      <ele>34.2</ele>
      <time>2017-09-27T01:56:30Z</time>
    </trkpt>
    <trkpt lat="-30.285919933" lon="153.124964973">
      <ele>34.2</ele>
      <time>2017-09-27T01:56:34Z</time>
    </trkpt>
    <trkpt lat="-30.285669984" lon="153.125164965">
      <ele>34.4</ele>
      <time>2017-09-27T01:56:38Z</time>
    </trkpt>
    <trkpt lat="-30.285387933" lon="153.125390941">
      <ele>35.0</ele>
      <time>2017-09-27T01:56:42Z</time>
    </trkpt>
    <trkpt lat="-30.285124993" lon="153.125599986">
      <ele>34.8</ele>
      <time>2017-09-27T01:56:46Z</time>
    </trkpt>
    <trkpt lat="-30.28489097" lon="153.12581297">
      <ele>34.8</ele>
      <time>2017-09-27T01:56:50Z</time>
    </trkpt>
    <trkpt lat="-30.284655942" lon="153.125985973">
      <ele>34.6</ele>
      <time>2017-09-27T01:56:54Z</time>
    </trkpt>
    <trkpt lat="-30.284460979" lon="153.126117988">
      <ele>34.4</ele>
      <time>2017-09-27T01:56:58Z</time>
    </trkpt>
    <trkpt lat="-30.284360982" lon="153.126162998">
      <ele>34.0</ele>
      <time>2017-09-27T01:57:02Z</time>
    </trkpt>
    <trkpt lat="-30.284380931" lon="153.126189988">
      <ele>34.8</ele>
      <time>2017-09-27T01:57:06Z</time>
    </trkpt>
    <trkpt lat="-30.284349918" lon="153.126137936">
      <ele>34.8</ele>
      <time>2017-09-27T01:57:50Z</time>
    </trkpt>
    <trkpt lat="-30.284322929" lon="153.126159981">
      <ele>35.2</ele>
      <time>2017-09-27T01:57:58Z</time>
    </trkpt>
    <trkpt lat="-30.284209941" lon="153.126182947">
      <ele>34.6</ele>
      <time>2017-09-27T01:58:10Z</time>
    </trkpt>
    <trkpt lat="-30.284227962" lon="153.126227958">
      <ele>34.6</ele>
      <time>2017-09-27T01:58:14Z</time>
    </trkpt>
    <trkpt lat="-30.284240954" lon="153.126295935">
      <ele>34.6</ele>
      <time>2017-09-27T01:58:18Z</time>
    </trkpt>
    <trkpt lat="-30.284145987" lon="153.126407918">
      <ele>35.4</ele>
      <time>2017-09-27T01:58:22Z</time>
    </trkpt>
    <trkpt lat="-30.283935936" lon="153.126572957">
      <ele>35.2</ele>
      <time>2017-09-27T01:58:26Z</time>
    </trkpt>
    <trkpt lat="-30.283724964" lon="153.126750989">
      <ele>36.0</ele>
      <time>2017-09-27T01:58:30Z</time>
    </trkpt>
    <trkpt lat="-30.28347292" lon="153.12699792">
      <ele>35.8</ele>
      <time>2017-09-27T01:58:34Z</time>
    </trkpt>
    <trkpt lat="-30.283145942" lon="153.127274942">
      <ele>35.2</ele>
      <time>2017-09-27T01:58:38Z</time>
    </trkpt>
    <trkpt lat="-30.282825921" lon="153.127617929">
      <ele>36.0</ele>
      <time>2017-09-27T01:58:42Z</time>
    </trkpt>
    <trkpt lat="-30.282504978" lon="153.128009951">
      <ele>37.6</ele>
      <time>2017-09-27T01:58:46Z</time>
    </trkpt>
    <trkpt lat="-30.282160984" lon="153.128452934">
      <ele>38.8</ele>
      <time>2017-09-27T01:58:50Z</time>
    </trkpt>
    <trkpt lat="-30.281810956" lon="153.128930954">
      <ele>40.0</ele>
      <time>2017-09-27T01:58:54Z</time>
    </trkpt>
    <trkpt lat="-30.281467969" lon="153.12942096">
      <ele>40.2</ele>
      <time>2017-09-27T01:58:58Z</time>
    </trkpt>
    <trkpt lat="-30.28111794" lon="153.129957989">
      <ele>42.4</ele>
      <time>2017-09-27T01:59:02Z</time>
    </trkpt>
    <trkpt lat="-30.280780988" lon="153.130525947">
      <ele>46.2</ele>
      <time>2017-09-27T01:59:06Z</time>
    </trkpt>
    <trkpt lat="-30.280409921" lon="153.131119972">
      <ele>49.6</ele>
      <time>2017-09-27T01:59:10Z</time>
    </trkpt>
    <trkpt lat="-30.279944977" lon="153.131652977">
      <ele>47.6</ele>
      <time>2017-09-27T01:59:14Z</time>
    </trkpt>
    <trkpt lat="-30.279389927" lon="153.132070983">
      <ele>47.6</ele>
      <time>2017-09-27T01:59:18Z</time>
    </trkpt>
    <trkpt lat="-30.278849965" lon="153.132459987">
      <ele>51.0</ele>
      <time>2017-09-27T01:59:22Z</time>
    </trkpt>
    <trkpt lat="-30.278269937" lon="153.132885955">
      <ele>55.2</ele>
      <time>2017-09-27T01:59:26Z</time>
    </trkpt>
    <trkpt lat="-30.277767945" lon="153.133425917">
      <ele>58.4</ele>
      <time>2017-09-27T01:59:30Z</time>
    </trkpt>
    <trkpt lat="-30.277434932" lon="153.134057997">
      <ele>61.8</ele>
      <time>2017-09-27T01:59:34Z</time>
    </trkpt>
    <trkpt lat="-30.277259918" lon="153.13477993">
      <ele>65.6</ele>
      <time>2017-09-27T01:59:38Z</time>
    </trkpt>
    <trkpt lat="-30.277115917" lon="153.13549499">
      <ele>71.4</ele>
      <time>2017-09-27T01:59:42Z</time>
    </trkpt>
    <trkpt lat="-30.276880972" lon="153.136112988">
      <ele>76.2</ele>
      <time>2017-09-27T01:59:46Z</time>
    </trkpt>
    <trkpt lat="-30.276540918" lon="153.136510961">
      <ele>79.6</ele>
      <time>2017-09-27T01:59:50Z</time>
    </trkpt>
    <trkpt lat="-30.276214946" lon="153.136592936">
      <ele>75.4</ele>
      <time>2017-09-27T01:59:54Z</time>
    </trkpt>
    <trkpt lat="-30.275834994" lon="153.13619094">
      <ele>71.8</ele>
      <time>2017-09-27T01:59:58Z</time>
    </trkpt>
    <trkpt lat="-30.275515979" lon="153.135694982">
      <ele>67.0</ele>
      <time>2017-09-27T02:00:02Z</time>
    </trkpt>
    <trkpt lat="-30.275215991" lon="153.135145968">
      <ele>65.4</ele>
      <time>2017-09-27T02:00:06Z</time>
    </trkpt>
    <trkpt lat="-30.274902927" lon="153.134612963">
      <ele>62.6</ele>
      <time>2017-09-27T02:00:10Z</time>
    </trkpt>
    <trkpt lat="-30.274415938" lon="153.134247931">
      <ele>59.4</ele>
      <time>2017-09-27T02:00:14Z</time>
    </trkpt>
    <trkpt lat="-30.273792995" lon="153.134149946">
      <ele>54.8</ele>
      <time>2017-09-27T02:00:18Z</time>
    </trkpt>
    <trkpt lat="-30.27314499" lon="153.134332923">
      <ele>49.6</ele>
      <time>2017-09-27T02:00:22Z</time>
    </trkpt>
    <trkpt lat="-30.272527998" lon="153.13461992">
      <ele>47.2</ele>
      <time>2017-09-27T02:00:26Z</time>
    </trkpt>
    <trkpt lat="-30.271962974" lon="153.134925943">
      <ele>45.6</ele>
      <time>2017-09-27T02:00:30Z</time>
    </trkpt>
    <trkpt lat="-30.271374984" lon="153.135025939">
      <ele>44.8</ele>
      <time>2017-09-27T02:00:34Z</time>
    </trkpt>
    <trkpt lat="-30.270780958" lon="153.134919992">
      <ele>44.2</ele>
      <time>2017-09-27T02:00:38Z</time>
    </trkpt>
    <trkpt lat="-30.270147957" lon="153.134640958">
      <ele>47.6</ele>
      <time>2017-09-27T02:00:42Z</time>
    </trkpt>
    <trkpt lat="-30.269510932" lon="153.13427995">
      <ele>49.0</ele>
      <time>2017-09-27T02:00:46Z</time>
    </trkpt>
    <trkpt lat="-30.26895999" lon="153.133850964">
      <ele>50.2</ele>
      <time>2017-09-27T02:00:50Z</time>
    </trkpt>
    <trkpt lat="-30.268422961" lon="153.133275965">
      <ele>52.2</ele>
      <time>2017-09-27T02:00:54Z</time>
    </trkpt>
    <trkpt lat="-30.267907977" lon="153.132724939">
      <ele>52.8</ele>
      <time>2017-09-27T02:00:58Z</time>
    </trkpt>
    <trkpt lat="-30.267352927" lon="153.132145917">
      <ele>53.0</ele>
      <time>2017-09-27T02:01:02Z</time>
    </trkpt>
    <trkpt lat="-30.266787987" lon="153.131592963">
      <ele>54.2</ele>
      <time>2017-09-27T02:01:06Z</time>
    </trkpt>
    <trkpt lat="-30.266225981" lon="153.131019976">
      <ele>55.8</ele>
      <time>2017-09-27T02:01:10Z</time>
    </trkpt>
    <trkpt lat="-30.265644947" lon="153.130544974">
      <ele>57.0</ele>
      <time>2017-09-27T02:01:14Z</time>
    </trkpt>
    <trkpt lat="-30.265137926" lon="153.130107941">
      <ele>56.4</ele>
      <time>2017-09-27T02:01:18Z</time>
    </trkpt>
    <trkpt lat="-30.264794938" lon="153.129812982">
      <ele>58.0</ele>
      <time>2017-09-27T02:01:22Z</time>
    </trkpt>
    <trkpt lat="-30.264867945" lon="153.129567979">
      <ele>60.0</ele>
      <time>2017-09-27T02:01:26Z</time>
    </trkpt>
    <trkpt lat="-30.265105991" lon="153.129127929">
      <ele>62.6</ele>
      <time>2017-09-27T02:01:30Z</time>
    </trkpt>
    <trkpt lat="-30.265355939" lon="153.128619986">
      <ele>62.6</ele>
      <time>2017-09-27T02:01:34Z</time>
    </trkpt>
    <trkpt lat="-30.265437998" lon="153.127982961">
      <ele>63.0</ele>
      <time>2017-09-27T02:01:38Z</time>
    </trkpt>
    <trkpt lat="-30.265532965" lon="153.127307966">
      <ele>67.2</ele>
      <time>2017-09-27T02:01:42Z</time>
    </trkpt>
    <trkpt lat="-30.265605971" lon="153.126670942">
      <ele>71.0</ele>
      <time>2017-09-27T02:01:46Z</time>
    </trkpt>
    <trkpt lat="-30.265615946" lon="153.126062918">
      <ele>71.8</ele>
      <time>2017-09-27T02:01:50Z</time>
    </trkpt>
    <trkpt lat="-30.265435986" lon="153.125637956">
      <ele>73.8</ele>
      <time>2017-09-27T02:01:54Z</time>
    </trkpt>
    <trkpt lat="-30.265164999" lon="153.125612978">
      <ele>78.2</ele>
      <time>2017-09-27T02:01:58Z</time>
    </trkpt>
    <trkpt lat="-30.264814971" lon="153.125844989">
      <ele>81.2</ele>
      <time>2017-09-27T02:02:02Z</time>
    </trkpt>
    <trkpt lat="-30.264455974" lon="153.126002988">
      <ele>83.8</ele>
      <time>2017-09-27T02:02:06Z</time>
    </trkpt>
    <trkpt lat="-30.264137965" lon="153.12608094">
      <ele>85.8</ele>
      <time>2017-09-27T02:02:10Z</time>
    </trkpt>
    <trkpt lat="-30.263740998" lon="153.126090998">
      <ele>89.6</ele>
      <time>2017-09-27T02:02:14Z</time>
    </trkpt>
    <trkpt lat="-30.263265995" lon="153.126110947">
      <ele>93.0</ele>
      <time>2017-09-27T02:02:18Z</time>
    </trkpt>
    <trkpt lat="-30.26291999" lon="153.126027966">
      <ele>96.8</ele>
      <time>2017-09-27T02:02:22Z</time>
    </trkpt>
    <trkpt lat="-30.262549929" lon="153.125565955">
      <ele>98.6</ele>
      <time>2017-09-27T02:02:26Z</time>
    </trkpt>
    <trkpt lat="-30.262205936" lon="153.125414997">
      <ele>100.4</ele>
      <time>2017-09-27T02:02:30Z</time>
    </trkpt>
    <trkpt lat="-30.261822967" lon="153.125339979">
      <ele>104.6</ele>
      <time>2017-09-27T02:02:34Z</time>
    </trkpt>
    <trkpt lat="-30.261372942" lon="153.125017947">
      <ele>108.8</ele>
      <time>2017-09-27T02:02:38Z</time>
    </trkpt>
    <trkpt lat="-30.260959966" lon="153.124582926">
      <ele>112.8</ele>
      <time>2017-09-27T02:02:42Z</time>
    </trkpt>
    <trkpt lat="-30.260737929" lon="153.124112953">
      <ele>118.0</ele>
      <time>2017-09-27T02:02:46Z</time>
    </trkpt>
    <trkpt lat="-30.260549923" lon="153.12356092">
      <ele>119.8</ele>
      <time>2017-09-27T02:02:50Z</time>
    </trkpt>
    <trkpt lat="-30.260139965" lon="153.123239977">
      <ele>121.0</ele>
      <time>2017-09-27T02:02:54Z</time>
    </trkpt>
    <trkpt lat="-30.26009596" lon="153.123205947">
      <ele>122.8</ele>
      <time>2017-09-27T02:02:58Z</time>
    </trkpt>
    <trkpt lat="-30.259999987" lon="153.122952981">
      <ele>125.6</ele>
      <time>2017-09-27T02:03:02Z</time>
    </trkpt>
    <trkpt lat="-30.259844922" lon="153.122525923">
      <ele>128.0</ele>
      <time>2017-09-27T02:03:06Z</time>
    </trkpt>
    <trkpt lat="-30.259767976" lon="153.121895939">
      <ele>128.4</ele>
      <time>2017-09-27T02:03:10Z</time>
    </trkpt>
    <trkpt lat="-30.259884987" lon="153.121200996">
      <ele>130.8</ele>
      <time>2017-09-27T02:03:14Z</time>
    </trkpt>
    <trkpt lat="-30.26005799" lon="153.120532958">
      <ele>132.8</ele>
      <time>2017-09-27T02:03:18Z</time>
    </trkpt>
    <trkpt lat="-30.260352949" lon="153.119950918">
      <ele>136.0</ele>
      <time>2017-09-27T02:03:22Z</time>
    </trkpt>
    <trkpt lat="-30.260570962" lon="153.119320935">
      <ele>136.6</ele>
      <time>2017-09-27T02:03:26Z</time>
    </trkpt>
    <trkpt lat="-30.260620918" lon="153.118729927">
      <ele>139.2</ele>
      <time>2017-09-27T02:03:30Z</time>
    </trkpt>
    <trkpt lat="-30.260427967" lon="153.118197927">
      <ele>140.4</ele>
      <time>2017-09-27T02:03:34Z</time>
    </trkpt>
    <trkpt lat="-30.259990934" lon="153.117920989">
      <ele>143.0</ele>
      <time>2017-09-27T02:03:38Z</time>
    </trkpt>
    <trkpt lat="-30.259684995" lon="153.117475994">
      <ele>144.2</ele>
      <time>2017-09-27T02:03:42Z</time>
    </trkpt>
    <trkpt lat="-30.259474944" lon="153.116985988">
      <ele>142.6</ele>
      <time>2017-09-27T02:03:46Z</time>
    </trkpt>
    <trkpt lat="-30.259355921" lon="153.11658592">
      <ele>144.6</ele>
      <time>2017-09-27T02:03:50Z</time>
    </trkpt>
    <trkpt lat="-30.259082923" lon="153.116571">
      <ele>149.0</ele>
      <time>2017-09-27T02:03:54Z</time>
    </trkpt>
    <trkpt lat="-30.258862982" lon="153.11678499">
      <ele>152.8</ele>
      <time>2017-09-27T02:03:58Z</time>
    </trkpt>
    <trkpt lat="-30.258439947" lon="153.117082966">
      <ele>155.0</ele>
      <time>2017-09-27T02:04:02Z</time>
    </trkpt>
    <trkpt lat="-30.258039963" lon="153.117509941">
      <ele>157.4</ele>
      <time>2017-09-27T02:04:06Z</time>
    </trkpt>
    <trkpt lat="-30.257874923" lon="153.117875978">
      <ele>159.4</ele>
      <time>2017-09-27T02:04:10Z</time>
    </trkpt>
    <trkpt lat="-30.257747937" lon="153.118029954">
      <ele>161.4</ele>
      <time>2017-09-27T02:04:14Z</time>
    </trkpt>
    <trkpt lat="-30.257397993" lon="153.117509941">
      <ele>163.2</ele>
      <time>2017-09-27T02:04:18Z</time>
    </trkpt>
    <trkpt lat="-30.256937994" lon="153.117030999">
      <ele>164.8</ele>
      <time>2017-09-27T02:04:22Z</time>
    </trkpt>
    <trkpt lat="-30.256365929" lon="153.116162969">
      <ele>168.2</ele>
      <time>2017-09-27T02:04:26Z</time>
    </trkpt>
    <trkpt lat="-30.256440947" lon="153.115665922">
      <ele>170.2</ele>
      <time>2017-09-27T02:04:30Z</time>
    </trkpt>
    <trkpt lat="-30.256490987" lon="153.115072986">
      <ele>172.8</ele>
      <time>2017-09-27T02:04:34Z</time>
    </trkpt>
    <trkpt lat="-30.256520994" lon="153.114477955">
      <ele>174.0</ele>
      <time>2017-09-27T02:04:38Z</time>
    </trkpt>
    <trkpt lat="-30.256527951" lon="153.113882923">
      <ele>174.8</ele>
      <time>2017-09-27T02:04:42Z</time>
    </trkpt>
    <trkpt lat="-30.256352937" lon="153.113434995">
      <ele>176.2</ele>
      <time>2017-09-27T02:04:46Z</time>
    </trkpt>
    <trkpt lat="-30.255954964" lon="153.11330298">
      <ele>179.0</ele>
      <time>2017-09-27T02:04:50Z</time>
    </trkpt>
    <trkpt lat="-30.25556596" lon="153.113380931">
      <ele>180.8</ele>
      <time>2017-09-27T02:04:54Z</time>
    </trkpt>
    <trkpt lat="-30.255207969" lon="153.113334998">
      <ele>183.2</ele>
      <time>2017-09-27T02:04:58Z</time>
    </trkpt>
    <trkpt lat="-30.255040918" lon="153.112964937">
      <ele>186.0</ele>
      <time>2017-09-27T02:05:02Z</time>
    </trkpt>
    <trkpt lat="-30.254992973" lon="153.112125993">
      <ele>190.4</ele>
      <time>2017-09-27T02:05:10Z</time>
    </trkpt>
    <trkpt lat="-30.254925918" lon="153.111484945">
      <ele>192.2</ele>
      <time>2017-09-27T02:05:14Z</time>
    </trkpt>
    <trkpt lat="-30.254647974" lon="153.11101296">
      <ele>194.4</ele>
      <time>2017-09-27T02:05:18Z</time>
    </trkpt>
    <trkpt lat="-30.254529957" lon="153.11048599">
      <ele>197.4</ele>
      <time>2017-09-27T02:05:22Z</time>
    </trkpt>
    <trkpt lat="-30.254507996" lon="153.109932952">
      <ele>199.4</ele>
      <time>2017-09-27T02:05:26Z</time>
    </trkpt>
    <trkpt lat="-30.254169954" lon="153.109522993">
      <ele>202.4</ele>
      <time>2017-09-27T02:05:30Z</time>
    </trkpt>
    <trkpt lat="-30.253722947" lon="153.109159973">
      <ele>205.2</ele>
      <time>2017-09-27T02:05:34Z</time>
    </trkpt>
    <trkpt lat="-30.253285998" lon="153.108777925">
      <ele>208.6</ele>
      <time>2017-09-27T02:05:38Z</time>
    </trkpt>
    <trkpt lat="-30.252895989" lon="153.108257996">
      <ele>210.6</ele>
      <time>2017-09-27T02:05:42Z</time>
    </trkpt>
    <trkpt lat="-30.252592983" lon="153.107734965">
      <ele>213.8</ele>
      <time>2017-09-27T02:05:46Z</time>
    </trkpt>
    <trkpt lat="-30.25220993" lon="153.107397929">
      <ele>215.8</ele>
      <time>2017-09-27T02:05:50Z</time>
    </trkpt>
    <trkpt lat="-30.251892926" lon="153.107055947">
      <ele>216.2</ele>
      <time>2017-09-27T02:05:54Z</time>
    </trkpt>
    <trkpt lat="-30.251767952" lon="153.106804993">
      <ele>217.8</ele>
      <time>2017-09-27T02:05:58Z</time>
    </trkpt>
    <trkpt lat="-30.251812963" lon="153.107120991">
      <ele>217.2</ele>
      <time>2017-09-27T02:06:02Z</time>
    </trkpt>
    <trkpt lat="-30.251849927" lon="153.107250994">
      <ele>216.4</ele>
      <time>2017-09-27T02:06:06Z</time>
    </trkpt>
    <trkpt lat="-30.251787985" lon="153.107387954">
      <ele>216.2</ele>
      <time>2017-09-27T02:06:10Z</time>
    </trkpt>
    <trkpt lat="-30.251777926" lon="153.107462972">
      <ele>216.2</ele>
      <time>2017-09-27T02:06:14Z</time>
    </trkpt>
    <trkpt lat="-30.251744986" lon="153.10751494">
      <ele>218.4</ele>
      <time>2017-09-27T02:06:18Z</time>
    </trkpt>
    <trkpt lat="-30.251865936" lon="153.107394995">
      <ele>222.6</ele>
      <time>2017-09-27T02:06:22Z</time>
    </trkpt>
    <trkpt lat="-30.252044974" lon="153.107184945">
      <ele>227.0</ele>
      <time>2017-09-27T02:06:26Z</time>
    </trkpt>
    <trkpt lat="-30.252234992" lon="153.106985958">
      <ele>231.2</ele>
      <time>2017-09-27T02:06:30Z</time>
    </trkpt>
    <trkpt lat="-30.252440935" lon="153.106840951">
      <ele>236.8</ele>
      <time>2017-09-27T02:06:34Z</time>
    </trkpt>
    <trkpt lat="-30.252850978" lon="153.106967937">
      <ele>243.8</ele>
      <time>2017-09-27T02:06:38Z</time>
    </trkpt>
    <trkpt lat="-30.253507951" lon="153.107122919">
      <ele>251.4</ele>
      <time>2017-09-27T02:06:42Z</time>
    </trkpt>
    <trkpt lat="-30.254122932" lon="153.107082937">
      <ele>257.4</ele>
      <time>2017-09-27T02:06:46Z</time>
    </trkpt>
    <trkpt lat="-30.254707988" lon="153.107034992">
      <ele>264.2</ele>
      <time>2017-09-27T02:06:50Z</time>
    </trkpt>
    <trkpt lat="-30.255234959" lon="153.106932985">
      <ele>269.6</ele>
      <time>2017-09-27T02:06:54Z</time>
    </trkpt>
    <trkpt lat="-30.255379966" lon="153.107099952">
      <ele>273.6</ele>
      <time>2017-09-27T02:06:58Z</time>
    </trkpt>
    <trkpt lat="-30.255552968" lon="153.107037926">
      <ele>281.4</ele>
      <time>2017-09-27T02:07:02Z</time>
    </trkpt>
    <trkpt lat="-30.25564299" lon="153.107302962">
      <ele>286.2</ele>
      <time>2017-09-27T02:07:06Z</time>
    </trkpt>
    <trkpt lat="-30.255754972" lon="153.108072923">
      <ele>292.2</ele>
      <time>2017-09-27T02:07:10Z</time>
    </trkpt>
    <trkpt lat="-30.256047919" lon="153.108609952">
      <ele>296.8</ele>
      <time>2017-09-27T02:07:14Z</time>
    </trkpt>
    <trkpt lat="-30.256427955" lon="153.108897954">
      <ele>299.4</ele>
      <time>2017-09-27T02:07:18Z</time>
    </trkpt>
    <trkpt lat="-30.256557958" lon="153.109300956">
      <ele>301.8</ele>
      <time>2017-09-27T02:07:22Z</time>
    </trkpt>
    <trkpt lat="-30.256654937" lon="153.109799931">
      <ele>303.0</ele>
      <time>2017-09-27T02:07:26Z</time>
    </trkpt>
    <trkpt lat="-30.256724926" lon="153.110345928">
      <ele>300.2</ele>
      <time>2017-09-27T02:07:30Z</time>
    </trkpt>
    <trkpt lat="-30.256914943" lon="153.110902989">
      <ele>296.2</ele>
      <time>2017-09-27T02:07:34Z</time>
    </trkpt>
    <trkpt lat="-30.25718593" lon="153.11146793">
      <ele>292.4</ele>
      <time>2017-09-27T02:07:38Z</time>
    </trkpt>
    <trkpt lat="-30.257622963" lon="153.111949973">
      <ele>290.4</ele>
      <time>2017-09-27T02:07:42Z</time>
    </trkpt>
    <trkpt lat="-30.258397954" lon="153.112652963">
      <ele>287.2</ele>
      <time>2017-09-27T02:07:46Z</time>
    </trkpt>
    <trkpt lat="-30.258755945" lon="153.112647934">
      <ele>283.2</ele>
      <time>2017-09-27T02:07:50Z</time>
    </trkpt>
    <trkpt lat="-30.25911293" lon="153.112775926">
      <ele>281.8</ele>
      <time>2017-09-27T02:07:54Z</time>
    </trkpt>
    <trkpt lat="-30.259575946" lon="153.11277098">
      <ele>289.0</ele>
      <time>2017-09-27T02:07:58Z</time>
    </trkpt>
    <trkpt lat="-30.260204924" lon="153.112429921">
      <ele>296.8</ele>
      <time>2017-09-27T02:08:02Z</time>
    </trkpt>
    <trkpt lat="-30.260895928" lon="153.112334954">
      <ele>303.6</ele>
      <time>2017-09-27T02:08:06Z</time>
    </trkpt>
    <trkpt lat="-30.261450978" lon="153.112312993">
      <ele>309.2</ele>
      <time>2017-09-27T02:08:10Z</time>
    </trkpt>
    <trkpt lat="-30.262119938" lon="153.112260941">
      <ele>314.2</ele>
      <time>2017-09-27T02:08:14Z</time>
    </trkpt>
    <trkpt lat="-30.262695942" lon="153.112354986">
      <ele>320.4</ele>
      <time>2017-09-27T02:08:18Z</time>
    </trkpt>
    <trkpt lat="-30.263135992" lon="153.112539975">
      <ele>324.8</ele>
      <time>2017-09-27T02:08:22Z</time>
    </trkpt>
    <trkpt lat="-30.263322992" lon="153.112652963">
      <ele>326.6</ele>
      <time>2017-09-27T02:08:26Z</time>
    </trkpt>
    <trkpt lat="-30.263457941" lon="153.112810962">
      <ele>328.4</ele>
      <time>2017-09-27T02:08:30Z</time>
    </trkpt>
    <trkpt lat="-30.263617951" lon="153.112894949">
      <ele>329.2</ele>
      <time>2017-09-27T02:08:34Z</time>
    </trkpt>
    <trkpt lat="-30.263712918" lon="153.112952951">
      <ele>330.0</ele>
      <time>2017-09-27T02:08:38Z</time>
    </trkpt>
    <trkpt lat="-30.263777962" lon="153.112977929">
      <ele>330.2</ele>
      <time>2017-09-27T02:08:42Z</time>
    </trkpt>
    <trkpt lat="-30.263809981" lon="153.113017995">
      <ele>330.6</ele>
      <time>2017-09-27T02:08:46Z</time>
    </trkpt>
    <trkpt lat="-30.263824984" lon="153.113054959">
      <ele>330.2</ele>
      <time>2017-09-27T02:08:50Z</time>
    </trkpt>
    <trkpt lat="-30.263772933" lon="153.112940965">
      <ele>330.0</ele>
      <time>2017-09-27T02:08:54Z</time>
    </trkpt>
    <trkpt lat="-30.263787936" lon="153.113017995">
      <ele>329.6</ele>
      <time>2017-09-27T02:08:58Z</time>
    </trkpt>
    <trkpt lat="-30.26361594" lon="153.112884974">
      <ele>329.4</ele>
      <time>2017-09-27T02:09:02Z</time>
    </trkpt>
    <trkpt lat="-30.263609989" lon="153.112992933">
      <ele>329.0</ele>
      <time>2017-09-27T02:09:06Z</time>
    </trkpt>
    <trkpt lat="-30.263725994" lon="153.113250928">
      <ele>328.6</ele>
      <time>2017-09-27T02:09:10Z</time>
    </trkpt>
    <trkpt lat="-30.263567995" lon="153.113159984">
      <ele>329.2</ele>
      <time>2017-09-27T02:09:14Z</time>
    </trkpt>
    <trkpt lat="-30.263407985" lon="153.112969967">
      <ele>329.6</ele>
      <time>2017-09-27T02:09:22Z</time>
    </trkpt>
    <trkpt lat="-30.263304971" lon="153.112800987">
      <ele>329.8</ele>
      <time>2017-09-27T02:09:26Z</time>
    </trkpt>
    <trkpt lat="-30.263134986" lon="153.112499993">
      <ele>329.8</ele>
      <time>2017-09-27T02:09:30Z</time>
    </trkpt>
    <trkpt lat="-30.263222996" lon="153.112532934">
      <ele>330.4</ele>
      <time>2017-09-27T02:09:34Z</time>
    </trkpt>
    <trkpt lat="-30.263310922" lon="153.112569982">
      <ele>330.8</ele>
      <time>2017-09-27T02:09:38Z</time>
    </trkpt>
    <trkpt lat="-30.26346297" lon="153.112737956">
      <ele>330.8</ele>
      <time>2017-09-27T02:09:42Z</time>
    </trkpt>
    <trkpt lat="-30.263470933" lon="153.112762934">
      <ele>331.0</ele>
      <time>2017-09-27T02:09:46Z</time>
    </trkpt>
    <trkpt lat="-30.263465988" lon="153.112764945">
      <ele>330.6</ele>
      <time>2017-09-27T02:09:50Z</time>
    </trkpt>
    <trkpt lat="-30.263392981" lon="153.11268297">
      <ele>330.8</ele>
      <time>2017-09-27T02:09:54Z</time>
    </trkpt>
    <trkpt lat="-30.263352999" lon="153.112649946">
      <ele>330.6</ele>
      <time>2017-09-27T02:09:58Z</time>
    </trkpt>
    <trkpt lat="-30.263315951" lon="153.112652963">
      <ele>331.0</ele>
      <time>2017-09-27T02:10:02Z</time>
    </trkpt>
    <trkpt lat="-30.263124928" lon="153.112599989">
      <ele>331.2</ele>
      <time>2017-09-27T02:10:06Z</time>
    </trkpt>
    <trkpt lat="-30.26304597" lon="153.11256093">
      <ele>331.2</ele>
      <time>2017-09-27T02:10:10Z</time>
    </trkpt>
    <trkpt lat="-30.263097938" lon="153.11252296">
      <ele>331.0</ele>
      <time>2017-09-27T02:10:14Z</time>
    </trkpt>
    <trkpt lat="-30.263140937" lon="153.112512985">
      <ele>331.0</ele>
      <time>2017-09-27T02:10:18Z</time>
    </trkpt>
    <trkpt lat="-30.263215955" lon="153.112545926">
      <ele>330.6</ele>
      <time>2017-09-27T02:10:26Z</time>
    </trkpt>
    <trkpt lat="-30.26325996" lon="153.112620944">
      <ele>330.6</ele>
      <time>2017-09-27T02:10:30Z</time>
    </trkpt>
    <trkpt lat="-30.263274964" lon="153.112649946">
      <ele>331.0</ele>
      <time>2017-09-27T02:10:34Z</time>
    </trkpt>
    <trkpt lat="-30.263294997" lon="153.112627985">
      <ele>331.0</ele>
      <time>2017-09-27T02:10:38Z</time>
    </trkpt>
    <trkpt lat="-30.263322992" lon="153.112664949">
      <ele>330.8</ele>
      <time>2017-09-27T02:10:42Z</time>
    </trkpt>
    <trkpt lat="-30.263434974" lon="153.112767963">
      <ele>331.0</ele>
      <time>2017-09-27T02:10:50Z</time>
    </trkpt>
    <trkpt lat="-30.26350094" lon="153.112780955">
      <ele>331.2</ele>
      <time>2017-09-27T02:10:54Z</time>
    </trkpt>
    <trkpt lat="-30.263515944" lon="153.112757988">
      <ele>330.6</ele>
      <time>2017-09-27T02:10:58Z</time>
    </trkpt>
    <trkpt lat="-30.263537988" lon="153.112767963">
      <ele>331.4</ele>
      <time>2017-09-27T02:11:10Z</time>
    </trkpt>
    <trkpt lat="-30.263570929" lon="153.112809956">
      <ele>331.6</ele>
      <time>2017-09-27T02:11:14Z</time>
    </trkpt>
    <trkpt lat="-30.263569923" lon="153.112872988">
      <ele>331.4</ele>
      <time>2017-09-27T02:11:18Z</time>
    </trkpt>
    <trkpt lat="-30.263574952" lon="153.112915987">
      <ele>331.2</ele>
      <time>2017-09-27T02:11:22Z</time>
    </trkpt>
    <trkpt lat="-30.263565984" lon="153.112932919">
      <ele>331.2</ele>
      <time>2017-09-27T02:11:26Z</time>
    </trkpt>
    <trkpt lat="-30.263594985" lon="153.11282496">
      <ele>331.4</ele>
      <time>2017-09-27T02:11:42Z</time>
    </trkpt>
    <trkpt lat="-30.263617951" lon="153.112794952">
      <ele>331.4</ele>
      <time>2017-09-27T02:11:46Z</time>
    </trkpt>
    <trkpt lat="-30.263642929" lon="153.112762934">
      <ele>331.4</ele>
      <time>2017-09-27T02:11:50Z</time>
    </trkpt>
    <trkpt lat="-30.263654999" lon="153.112859996">
      <ele>331.0</ele>
      <time>2017-09-27T02:11:58Z</time>
    </trkpt>
    <trkpt lat="-30.26352793" lon="153.112755977">
      <ele>330.8</ele>
      <time>2017-09-27T02:12:02Z</time>
    </trkpt>
    <trkpt lat="-30.263457941" lon="153.112704931">
      <ele>330.8</ele>
      <time>2017-09-27T02:12:06Z</time>
    </trkpt>
    <trkpt lat="-30.263314946" lon="153.112619938">
      <ele>329.8</ele>
      <time>2017-09-27T02:12:10Z</time>
    </trkpt>
    <trkpt lat="-30.263265995" lon="153.112575933">
      <ele>329.6</ele>
      <time>2017-09-27T02:12:14Z</time>
    </trkpt>
    <trkpt lat="-30.263249986" lon="153.112582974">
      <ele>329.6</ele>
      <time>2017-09-27T02:12:18Z</time>
    </trkpt>
    <trkpt lat="-30.263287956" lon="153.112637959">
      <ele>329.4</ele>
      <time>2017-09-27T02:12:22Z</time>
    </trkpt>
    <trkpt lat="-30.26338594" lon="153.112730999">
      <ele>329.6</ele>
      <time>2017-09-27T02:12:26Z</time>
    </trkpt>
    <trkpt lat="-30.263365991" lon="153.112710966">
      <ele>325.0</ele>
      <time>2017-09-27T02:12:34Z</time>
    </trkpt>
    <trkpt lat="-30.263135992" lon="153.112497982">
      <ele>322.4</ele>
      <time>2017-09-27T02:12:38Z</time>
    </trkpt>
    <trkpt lat="-30.262819994" lon="153.112265971">
      <ele>318.0</ele>
      <time>2017-09-27T02:12:42Z</time>
    </trkpt>
    <trkpt lat="-30.26248497" lon="153.112072935">
      <ele>314.6</ele>
      <time>2017-09-27T02:12:46Z</time>
    </trkpt>
    <trkpt lat="-30.262305932" lon="153.111947961">
      <ele>310.8</ele>
      <time>2017-09-27T02:12:50Z</time>
    </trkpt>
    <trkpt lat="-30.261707967" lon="153.111690972">
      <ele>307.2</ele>
      <time>2017-09-27T02:12:54Z</time>
    </trkpt>
    <trkpt lat="-30.261392975" lon="153.111614948">
      <ele>303.6</ele>
      <time>2017-09-27T02:12:58Z</time>
    </trkpt>
    <trkpt lat="-30.260917973" lon="153.111635987">
      <ele>297.4</ele>
      <time>2017-09-27T02:13:02Z</time>
    </trkpt>
    <trkpt lat="-30.260144994" lon="153.111342955">
      <ele>291.0</ele>
      <time>2017-09-27T02:13:06Z</time>
    </trkpt>
    <trkpt lat="-30.259550968" lon="153.111222927">
      <ele>283.8</ele>
      <time>2017-09-27T02:13:10Z</time>
    </trkpt>
    <trkpt lat="-30.25904797" lon="153.11128797">
      <ele>282.2</ele>
      <time>2017-09-27T02:13:14Z</time>
    </trkpt>
    <trkpt lat="-30.258559976" lon="153.111294927">
      <ele>286.8</ele>
      <time>2017-09-27T02:13:18Z</time>
    </trkpt>
    <trkpt lat="-30.258090924" lon="153.111182945">
      <ele>291.0</ele>
      <time>2017-09-27T02:13:22Z</time>
    </trkpt>
    <trkpt lat="-30.257739974" lon="153.110970967">
      <ele>291.8</ele>
      <time>2017-09-27T02:13:26Z</time>
    </trkpt>
    <trkpt lat="-30.257464964" lon="153.110840963">
      <ele>293.8</ele>
      <time>2017-09-27T02:13:30Z</time>
    </trkpt>
    <trkpt lat="-30.257280981" lon="153.110914975">
      <ele>296.6</ele>
      <time>2017-09-27T02:13:34Z</time>
    </trkpt>
    <trkpt lat="-30.257054921" lon="153.11069998">
      <ele>299.2</ele>
      <time>2017-09-27T02:13:38Z</time>
    </trkpt>
    <trkpt lat="-30.256767925" lon="153.110365961">
      <ele>302.0</ele>
      <time>2017-09-27T02:13:42Z</time>
    </trkpt>
    <trkpt lat="-30.256604981" lon="153.109827926">
      <ele>302.8</ele>
      <time>2017-09-27T02:13:46Z</time>
    </trkpt>
    <trkpt lat="-30.256537925" lon="153.109304979">
      <ele>302.4</ele>
      <time>2017-09-27T02:13:50Z</time>
    </trkpt>
    <trkpt lat="-30.256594922" lon="153.108924944">
      <ele>301.0</ele>
      <time>2017-09-27T02:13:54Z</time>
    </trkpt>
    <trkpt lat="-30.256717969" lon="153.108590925">
      <ele>299.0</ele>
      <time>2017-09-27T02:13:58Z</time>
    </trkpt>
    <trkpt lat="-30.256862976" lon="153.108487995">
      <ele>293.2</ele>
      <time>2017-09-27T02:14:02Z</time>
    </trkpt>
    <trkpt lat="-30.257237982" lon="153.108247938">
      <ele>287.0</ele>
      <time>2017-09-27T02:14:06Z</time>
    </trkpt>
    <trkpt lat="-30.257402938" lon="153.107952978">
      <ele>281.4</ele>
      <time>2017-09-27T02:14:10Z</time>
    </trkpt>
    <trkpt lat="-30.25586796" lon="153.106115917">
      <ele>267.0</ele>
      <time>2017-09-27T02:14:22Z</time>
    </trkpt>
    <trkpt lat="-30.255257925" lon="153.105739988">
      <ele>254.0</ele>
      <time>2017-09-27T02:14:30Z</time>
    </trkpt>
    <trkpt lat="-30.254482934" lon="153.105694978">
      <ele>247.4</ele>
      <time>2017-09-27T02:14:34Z</time>
    </trkpt>
    <trkpt lat="-30.253812969" lon="153.106095968">
      <ele>238.8</ele>
      <time>2017-09-27T02:14:38Z</time>
    </trkpt>
    <trkpt lat="-30.25348993" lon="153.106285986">
      <ele>232.8</ele>
      <time>2017-09-27T02:14:42Z</time>
    </trkpt>
    <trkpt lat="-30.251769964" lon="153.106765933">
      <ele>223.4</ele>
      <time>2017-09-27T02:14:50Z</time>
    </trkpt>
    <trkpt lat="-30.251689916" lon="153.107434977">
      <ele>219.4</ele>
      <time>2017-09-27T02:14:54Z</time>
    </trkpt>
    <trkpt lat="-30.251580952" lon="153.107454926">
      <ele>217.6</ele>
      <time>2017-09-27T02:14:58Z</time>
    </trkpt>
    <trkpt lat="-30.251689916" lon="153.107509995">
      <ele>217.4</ele>
      <time>2017-09-27T02:15:02Z</time>
    </trkpt>
    <trkpt lat="-30.251807934" lon="153.107572943">
      <ele>216.0</ele>
      <time>2017-09-27T02:15:06Z</time>
    </trkpt>
    <trkpt lat="-30.252169948" lon="153.107722979">
      <ele>209.6</ele>
      <time>2017-09-27T02:15:14Z</time>
    </trkpt>
    <trkpt lat="-30.252479995" lon="153.107872931">
      <ele>207.6</ele>
      <time>2017-09-27T02:15:18Z</time>
    </trkpt>
    <trkpt lat="-30.252849972" lon="153.108364949">
      <ele>205.0</ele>
      <time>2017-09-27T02:15:22Z</time>
    </trkpt>
    <trkpt lat="-30.253404938" lon="153.109172964">
      <ele>203.0</ele>
      <time>2017-09-27T02:15:26Z</time>
    </trkpt>
    <trkpt lat="-30.25376997" lon="153.109514946">
      <ele>200.2</ele>
      <time>2017-09-27T02:15:30Z</time>
    </trkpt>
    <trkpt lat="-30.254134918" lon="153.109764978">
      <ele>198.0</ele>
      <time>2017-09-27T02:15:34Z</time>
    </trkpt>
    <trkpt lat="-30.254334994" lon="153.110137973">
      <ele>197.2</ele>
      <time>2017-09-27T02:15:38Z</time>
    </trkpt>
    <trkpt lat="-30.254534986" lon="153.110597972">
      <ele>194.2</ele>
      <time>2017-09-27T02:15:42Z</time>
    </trkpt>
    <trkpt lat="-30.254794993" lon="153.111125948">
      <ele>192.6</ele>
      <time>2017-09-27T02:15:46Z</time>
    </trkpt>
    <trkpt lat="-30.255065979" lon="153.111542948">
      <ele>190.0</ele>
      <time>2017-09-27T02:15:50Z</time>
    </trkpt>
    <trkpt lat="-30.255194977" lon="153.111977968">
      <ele>188.0</ele>
      <time>2017-09-27T02:15:54Z</time>
    </trkpt>
    <trkpt lat="-30.255194977" lon="153.112667967">
      <ele>185.8</ele>
      <time>2017-09-27T02:15:58Z</time>
    </trkpt>
    <trkpt lat="-30.25536295" lon="153.113239948">
      <ele>183.4</ele>
      <time>2017-09-27T02:16:02Z</time>
    </trkpt>
    <trkpt lat="-30.255595967" lon="153.11359995">
      <ele>181.4</ele>
      <time>2017-09-27T02:16:06Z</time>
    </trkpt>
    <trkpt lat="-30.255849939" lon="153.113825927">
      <ele>179.6</ele>
      <time>2017-09-27T02:16:10Z</time>
    </trkpt>
    <trkpt lat="-30.256202985" lon="153.113968">
      <ele>177.6</ele>
      <time>2017-09-27T02:16:14Z</time>
    </trkpt>
    <trkpt lat="-30.256382944" lon="153.114285925">
      <ele>177.6</ele>
      <time>2017-09-27T02:16:18Z</time>
    </trkpt>
    <trkpt lat="-30.256429967" lon="153.11462095">
      <ele>175.8</ele>
      <time>2017-09-27T02:16:22Z</time>
    </trkpt>
    <trkpt lat="-30.256429967" lon="153.11508799">
      <ele>173.6</ele>
      <time>2017-09-27T02:16:26Z</time>
    </trkpt>
    <trkpt lat="-30.256437929" lon="153.115624934">
      <ele>171.8</ele>
      <time>2017-09-27T02:16:30Z</time>
    </trkpt>
    <trkpt lat="-30.256292922" lon="153.11609298">
      <ele>169.6</ele>
      <time>2017-09-27T02:16:34Z</time>
    </trkpt>
    <trkpt lat="-30.256244978" lon="153.11654292">
      <ele>167.6</ele>
      <time>2017-09-27T02:16:38Z</time>
    </trkpt>
    <trkpt lat="-30.256422926" lon="153.116957992">
      <ele>166.0</ele>
      <time>2017-09-27T02:16:42Z</time>
    </trkpt>
    <trkpt lat="-30.256725932" lon="153.11723996">
      <ele>164.4</ele>
      <time>2017-09-27T02:16:46Z</time>
    </trkpt>
    <trkpt lat="-30.25709792" lon="153.117569955">
      <ele>162.2</ele>
      <time>2017-09-27T02:16:50Z</time>
    </trkpt>
    <trkpt lat="-30.257469993" lon="153.117947979">
      <ele>159.4</ele>
      <time>2017-09-27T02:16:54Z</time>
    </trkpt>
    <trkpt lat="-30.257829996" lon="153.118249979">
      <ele>157.0</ele>
      <time>2017-09-27T02:16:58Z</time>
    </trkpt>
    <trkpt lat="-30.258232998" lon="153.11828292">
      <ele>155.0</ele>
      <time>2017-09-27T02:17:02Z</time>
    </trkpt>
    <trkpt lat="-30.259054927" lon="153.117944961">
      <ele>151.2</ele>
      <time>2017-09-27T02:17:06Z</time>
    </trkpt>
    <trkpt lat="-30.259524984" lon="153.117644973">
      <ele>147.8</ele>
      <time>2017-09-27T02:17:10Z</time>
    </trkpt>
    <trkpt lat="-30.259780968" lon="153.117317995">
      <ele>144.8</ele>
      <time>2017-09-27T02:17:14Z</time>
    </trkpt>
    <trkpt lat="-30.25982799" lon="153.11748798">
      <ele>146.6</ele>
      <time>2017-09-27T02:17:18Z</time>
    </trkpt>
    <trkpt lat="-30.25986596" lon="153.117847983">
      <ele>146.0</ele>
      <time>2017-09-27T02:17:22Z</time>
    </trkpt>
    <trkpt lat="-30.259970985" lon="153.118214943">
      <ele>143.4</ele>
      <time>2017-09-27T02:17:26Z</time>
    </trkpt>
    <trkpt lat="-30.260264939" lon="153.118477967">
      <ele>141.0</ele>
      <time>2017-09-27T02:17:30Z</time>
    </trkpt>
    <trkpt lat="-30.260462919" lon="153.118755994">
      <ele>140.2</ele>
      <time>2017-09-27T02:17:34Z</time>
    </trkpt>
    <trkpt lat="-30.26055797" lon="153.119135946">
      <ele>138.4</ele>
      <time>2017-09-27T02:17:38Z</time>
    </trkpt>
    <trkpt lat="-30.260529974" lon="153.119750926">
      <ele>137.8</ele>
      <time>2017-09-27T02:17:42Z</time>
    </trkpt>
    <trkpt lat="-30.260335933" lon="153.120414941">
      <ele>135.4</ele>
      <time>2017-09-27T02:17:46Z</time>
    </trkpt>
    <trkpt lat="-30.260062935" lon="153.120954987">
      <ele>133.6</ele>
      <time>2017-09-27T02:17:50Z</time>
    </trkpt>
    <trkpt lat="-30.25982799" lon="153.121529985">
      <ele>131.8</ele>
      <time>2017-09-27T02:17:54Z</time>
    </trkpt>
    <trkpt lat="-30.259659933" lon="153.122015968">
      <ele>129.6</ele>
      <time>2017-09-27T02:17:58Z</time>
    </trkpt>
    <trkpt lat="-30.259559937" lon="153.122512931">
      <ele>128.0</ele>
      <time>2017-09-27T02:18:02Z</time>
    </trkpt>
    <trkpt lat="-30.259575946" lon="153.123055995">
      <ele>125.8</ele>
      <time>2017-09-27T02:18:06Z</time>
    </trkpt>
    <trkpt lat="-30.259762947" lon="153.123602998">
      <ele>123.6</ele>
      <time>2017-09-27T02:18:10Z</time>
    </trkpt>
    <trkpt lat="-30.259997975" lon="153.124119993">
      <ele>121.8</ele>
      <time>2017-09-27T02:18:14Z</time>
    </trkpt>
    <trkpt lat="-30.26080993" lon="153.125232942">
      <ele>114.4</ele>
      <time>2017-09-27T02:18:26Z</time>
    </trkpt>
    <trkpt lat="-30.260754945" lon="153.125365963">
      <ele>110.0</ele>
      <time>2017-09-27T02:18:30Z</time>
    </trkpt>
    <trkpt lat="-30.261090975" lon="153.125714986">
      <ele>106.6</ele>
      <time>2017-09-27T02:18:34Z</time>
    </trkpt>
    <trkpt lat="-30.261534965" lon="153.126030983">
      <ele>102.8</ele>
      <time>2017-09-27T02:18:38Z</time>
    </trkpt>
    <trkpt lat="-30.26199094" lon="153.126070965">
      <ele>100.8</ele>
      <time>2017-09-27T02:18:42Z</time>
    </trkpt>
    <trkpt lat="-30.262409952" lon="153.126009945">
      <ele>98.6</ele>
      <time>2017-09-27T02:18:46Z</time>
    </trkpt>
    <trkpt lat="-30.262867939" lon="153.126167944">
      <ele>95.6</ele>
      <time>2017-09-27T02:18:50Z</time>
    </trkpt>
    <trkpt lat="-30.263304971" lon="153.126447983">
      <ele>91.0</ele>
      <time>2017-09-27T02:18:54Z</time>
    </trkpt>
    <trkpt lat="-30.263750972" lon="153.126604976">
      <ele>87.4</ele>
      <time>2017-09-27T02:18:58Z</time>
    </trkpt>
    <trkpt lat="-30.264194962" lon="153.126705978">
      <ele>86.0</ele>
      <time>2017-09-27T02:19:02Z</time>
    </trkpt>
    <trkpt lat="-30.264589917" lon="153.126722993">
      <ele>83.0</ele>
      <time>2017-09-27T02:19:06Z</time>
    </trkpt>
    <trkpt lat="-30.264924942" lon="153.126487965">
      <ele>80.8</ele>
      <time>2017-09-27T02:19:10Z</time>
    </trkpt>
    <trkpt lat="-30.265270947" lon="153.125955965">
      <ele>76.8</ele>
      <time>2017-09-27T02:19:14Z</time>
    </trkpt>
    <trkpt lat="-30.26563799" lon="153.125924952">
      <ele>75.6</ele>
      <time>2017-09-27T02:19:18Z</time>
    </trkpt>
    <trkpt lat="-30.266080974" lon="153.126074988">
      <ele>74.6</ele>
      <time>2017-09-27T02:19:22Z</time>
    </trkpt>
    <trkpt lat="-30.266492944" lon="153.126044981">
      <ele>69.4</ele>
      <time>2017-09-27T02:19:26Z</time>
    </trkpt>
    <trkpt lat="-30.266749933" lon="153.126092926">
      <ele>65.6</ele>
      <time>2017-09-27T02:19:30Z</time>
    </trkpt>
    <trkpt lat="-30.266935928" lon="153.126212955">
      <ele>66.4</ele>
      <time>2017-09-27T02:19:34Z</time>
    </trkpt>
    <trkpt lat="-30.267095938" lon="153.126364918">
      <ele>65.6</ele>
      <time>2017-09-27T02:19:38Z</time>
    </trkpt>
    <trkpt lat="-30.266844984" lon="153.127344931">
      <ele>63.6</ele>
      <time>2017-09-27T02:19:42Z</time>
    </trkpt>
    <trkpt lat="-30.266805924" lon="153.127727984">
      <ele>63.8</ele>
      <time>2017-09-27T02:19:46Z</time>
    </trkpt>
    <trkpt lat="-30.26682294" lon="153.128209943">
      <ele>63.8</ele>
      <time>2017-09-27T02:19:50Z</time>
    </trkpt>
    <trkpt lat="-30.266614985" lon="153.128814949">
      <ele>63.8</ele>
      <time>2017-09-27T02:19:54Z</time>
    </trkpt>
    <trkpt lat="-30.266620936" lon="153.128990969">
      <ele>63.6</ele>
      <time>2017-09-27T02:19:58Z</time>
    </trkpt>
    <trkpt lat="-30.266549941" lon="153.129297998">
      <ele>63.6</ele>
      <time>2017-09-27T02:20:02Z</time>
    </trkpt>
    <trkpt lat="-30.266472995" lon="153.129494973">
      <ele>63.8</ele>
      <time>2017-09-27T02:20:06Z</time>
    </trkpt>
    <trkpt lat="-30.266427984" lon="153.129557921">
      <ele>64.0</ele>
      <time>2017-09-27T02:20:10Z</time>
    </trkpt>
    <trkpt lat="-30.266314996" lon="153.129529925">
      <ele>64.0</ele>
      <time>2017-09-27T02:20:14Z</time>
    </trkpt>
    <trkpt lat="-30.266124979" lon="153.129357928">
      <ele>64.0</ele>
      <time>2017-09-27T02:20:18Z</time>
    </trkpt>
    <trkpt lat="-30.266009979" lon="153.129300931">
      <ele>63.8</ele>
      <time>2017-09-27T02:20:22Z</time>
    </trkpt>
    <trkpt lat="-30.26586799" lon="153.129305961">
      <ele>64.0</ele>
      <time>2017-09-27T02:20:26Z</time>
    </trkpt>
    <trkpt lat="-30.265894979" lon="153.129404951">
      <ele>64.0</ele>
      <time>2017-09-27T02:20:30Z</time>
    </trkpt>
    <trkpt lat="-30.265760953" lon="153.129227925">
      <ele>63.8</ele>
      <time>2017-09-27T02:20:46Z</time>
    </trkpt>
    <trkpt lat="-30.265590968" lon="153.129097922">
      <ele>63.8</ele>
      <time>2017-09-27T02:22:58Z</time>
    </trkpt>
    <trkpt lat="-30.265620975" lon="153.129114937">
      <ele>64.0</ele>
      <time>2017-09-27T02:23:02Z</time>
    </trkpt>
    <trkpt lat="-30.265632961" lon="153.129114937">
      <ele>64.0</ele>
      <time>2017-09-27T02:23:22Z</time>
    </trkpt>
    <trkpt lat="-30.265554925" lon="153.129059952">
      <ele>64.0</ele>
      <time>2017-09-27T02:24:02Z</time>
    </trkpt>
    <trkpt lat="-30.265535982" lon="153.129074955">
      <ele>63.8</ele>
      <time>2017-09-27T02:24:34Z</time>
    </trkpt>
    <trkpt lat="-30.265507987" lon="153.129095994">
      <ele>64.4</ele>
      <time>2017-09-27T02:24:38Z</time>
    </trkpt>
    <trkpt lat="-30.265534976" lon="153.129139999">
      <ele>64.0</ele>
      <time>2017-09-27T02:24:46Z</time>
    </trkpt>
    <trkpt lat="-30.265504969" lon="153.129210994">
      <ele>64.2</ele>
      <time>2017-09-27T02:24:50Z</time>
    </trkpt>
    <trkpt lat="-30.265404973" lon="153.129364969">
      <ele>63.8</ele>
      <time>2017-09-27T02:24:54Z</time>
    </trkpt>
    <trkpt lat="-30.265217973" lon="153.129582983">
      <ele>62.0</ele>
      <time>2017-09-27T02:24:58Z</time>
    </trkpt>
    <trkpt lat="-30.265102973" lon="153.129769983">
      <ele>60.6</ele>
      <time>2017-09-27T02:25:02Z</time>
    </trkpt>
    <trkpt lat="-30.265079923" lon="153.129827986">
      <ele>60.2</ele>
      <time>2017-09-27T02:25:06Z</time>
    </trkpt>
    <trkpt lat="-30.264917985" lon="153.12983796">
      <ele>61.6</ele>
      <time>2017-09-27T02:25:10Z</time>
    </trkpt>
    <trkpt lat="-30.264575919" lon="153.129737964">
      <ele>66.0</ele>
      <time>2017-09-27T02:25:14Z</time>
    </trkpt>
    <trkpt lat="-30.263909977" lon="153.129590945">
      <ele>72.8</ele>
      <time>2017-09-27T02:25:22Z</time>
    </trkpt>
    <trkpt lat="-30.263192989" lon="153.129245946">
      <ele>76.8</ele>
      <time>2017-09-27T02:25:26Z</time>
    </trkpt>
    <trkpt lat="-30.262394948" lon="153.128902959">
      <ele>80.2</ele>
      <time>2017-09-27T02:25:30Z</time>
    </trkpt>
    <trkpt lat="-30.261564972" lon="153.128605988">
      <ele>83.8</ele>
      <time>2017-09-27T02:25:34Z</time>
    </trkpt>
    <trkpt lat="-30.260730973" lon="153.128384957">
      <ele>85.0</ele>
      <time>2017-09-27T02:25:38Z</time>
    </trkpt>
    <trkpt lat="-30.259899991" lon="153.128295941">
      <ele>86.0</ele>
      <time>2017-09-27T02:25:42Z</time>
    </trkpt>
    <trkpt lat="-30.25907496" lon="153.128344975">
      <ele>85.8</ele>
      <time>2017-09-27T02:25:46Z</time>
    </trkpt>
    <trkpt lat="-30.258252947" lon="153.128540944">
      <ele>84.6</ele>
      <time>2017-09-27T02:25:50Z</time>
    </trkpt>
    <trkpt lat="-30.257474938" lon="153.12883297">
      <ele>82.8</ele>
      <time>2017-09-27T02:25:54Z</time>
    </trkpt>
    <trkpt lat="-30.256670946" lon="153.129275953">
      <ele>78.6</ele>
      <time>2017-09-27T02:25:58Z</time>
    </trkpt>
    <trkpt lat="-30.255937949" lon="153.129670992">
      <ele>75.2</ele>
      <time>2017-09-27T02:26:02Z</time>
    </trkpt>
    <trkpt lat="-30.255200928" lon="153.130070977">
      <ele>70.8</ele>
      <time>2017-09-27T02:26:06Z</time>
    </trkpt>
    <trkpt lat="-30.254464997" lon="153.130500969">
      <ele>65.6</ele>
      <time>2017-09-27T02:26:10Z</time>
    </trkpt>
    <trkpt lat="-30.253730994" lon="153.130960967">
      <ele>60.4</ele>
      <time>2017-09-27T02:26:14Z</time>
    </trkpt>
    <trkpt lat="-30.253004953" lon="153.131459942">
      <ele>56.6</ele>
      <time>2017-09-27T02:26:18Z</time>
    </trkpt>
    <trkpt lat="-30.252292994" lon="153.131997976">
      <ele>51.8</ele>
      <time>2017-09-27T02:26:22Z</time>
    </trkpt>
    <trkpt lat="-30.251620933" lon="153.132612957">
      <ele>51.2</ele>
      <time>2017-09-27T02:26:26Z</time>
    </trkpt>
    <trkpt lat="-30.251005953" lon="153.133289963">
      <ele>50.2</ele>
      <time>2017-09-27T02:26:30Z</time>
    </trkpt>
    <trkpt lat="-30.250462973" lon="153.134034947">
      <ele>50.0</ele>
      <time>2017-09-27T02:26:34Z</time>
    </trkpt>
    <trkpt lat="-30.249995934" lon="153.134832988">
      <ele>49.2</ele>
      <time>2017-09-27T02:26:38Z</time>
    </trkpt>
    <trkpt lat="-30.249572983" lon="153.135627927">
      <ele>47.4</ele>
      <time>2017-09-27T02:26:42Z</time>
    </trkpt>
    <trkpt lat="-30.249244999" lon="153.136277944">
      <ele>47.2</ele>
      <time>2017-09-27T02:26:46Z</time>
    </trkpt>
    <trkpt lat="-30.24900293" lon="153.136724951">
      <ele>47.6</ele>
      <time>2017-09-27T02:26:50Z</time>
    </trkpt>
    <trkpt lat="-30.24884996" lon="153.137057964">
      <ele>47.4</ele>
      <time>2017-09-27T02:26:54Z</time>
    </trkpt>
    <trkpt lat="-30.248824982" lon="153.137209928">
      <ele>47.8</ele>
      <time>2017-09-27T02:26:58Z</time>
    </trkpt>
    <trkpt lat="-30.248987926" lon="153.137397934">
      <ele>46.0</ele>
      <time>2017-09-27T02:27:02Z</time>
    </trkpt>
    <trkpt lat="-30.249130921" lon="153.137505976">
      <ele>45.8</ele>
      <time>2017-09-27T02:27:06Z</time>
    </trkpt>
    <trkpt lat="-30.249112984" lon="153.137394916">
      <ele>46.8</ele>
      <time>2017-09-27T02:27:10Z</time>
    </trkpt>
    <trkpt lat="-30.248960936" lon="153.137269942">
      <ele>47.6</ele>
      <time>2017-09-27T02:27:14Z</time>
    </trkpt>
    <trkpt lat="-30.24893797" lon="153.137210933">
      <ele>46.8</ele>
      <time>2017-09-27T02:27:18Z</time>
    </trkpt>
    <trkpt lat="-30.249064956" lon="153.136906">
      <ele>47.2</ele>
      <time>2017-09-27T02:27:22Z</time>
    </trkpt>
    <trkpt lat="-30.249362933" lon="153.136359919">
      <ele>48.0</ele>
      <time>2017-09-27T02:27:26Z</time>
    </trkpt>
    <trkpt lat="-30.249739951" lon="153.135669921">
      <ele>48.8</ele>
      <time>2017-09-27T02:27:30Z</time>
    </trkpt>
    <trkpt lat="-30.25014597" lon="153.134927955">
      <ele>49.6</ele>
      <time>2017-09-27T02:27:34Z</time>
    </trkpt>
    <trkpt lat="-30.250577973" lon="153.134185988">
      <ele>49.0</ele>
      <time>2017-09-27T02:27:38Z</time>
    </trkpt>
    <trkpt lat="-30.251082983" lon="153.133497918">
      <ele>49.6</ele>
      <time>2017-09-27T02:27:42Z</time>
    </trkpt>
    <trkpt lat="-30.251652952" lon="153.132887967">
      <ele>52.6</ele>
      <time>2017-09-27T02:27:46Z</time>
    </trkpt>
    <trkpt lat="-30.25225997" lon="153.132322943">
      <ele>53.0</ele>
      <time>2017-09-27T02:27:50Z</time>
    </trkpt>
    <trkpt lat="-30.252857935" lon="153.131807959">
      <ele>57.6</ele>
      <time>2017-09-27T02:27:54Z</time>
    </trkpt>
    <trkpt lat="-30.25350594" lon="153.131324993">
      <ele>62.0</ele>
      <time>2017-09-27T02:27:58Z</time>
    </trkpt>
    <trkpt lat="-30.254160985" lon="153.130867928">
      <ele>66.4</ele>
      <time>2017-09-27T02:28:02Z</time>
    </trkpt>
    <trkpt lat="-30.254815947" lon="153.130420921">
      <ele>71.4</ele>
      <time>2017-09-27T02:28:06Z</time>
    </trkpt>
    <trkpt lat="-30.255495971" lon="153.130015992">
      <ele>74.6</ele>
      <time>2017-09-27T02:28:10Z</time>
    </trkpt>
    <trkpt lat="-30.25618094" lon="153.129627993">
      <ele>78.0</ele>
      <time>2017-09-27T02:28:14Z</time>
    </trkpt>
    <trkpt lat="-30.256859958" lon="153.129259944">
      <ele>80.8</ele>
      <time>2017-09-27T02:28:18Z</time>
    </trkpt>
    <trkpt lat="-30.257524978" lon="153.128937995">
      <ele>81.6</ele>
      <time>2017-09-27T02:28:22Z</time>
    </trkpt>
    <trkpt lat="-30.258204918" lon="153.128680922">
      <ele>82.0</ele>
      <time>2017-09-27T02:28:26Z</time>
    </trkpt>
    <trkpt lat="-30.258914949" lon="153.128500963">
      <ele>83.0</ele>
      <time>2017-09-27T02:28:30Z</time>
    </trkpt>
    <trkpt lat="-30.259639984" lon="153.128407924">
      <ele>81.8</ele>
      <time>2017-09-27T02:28:34Z</time>
    </trkpt>
    <trkpt lat="-30.260362923" lon="153.128385963">
      <ele>80.6</ele>
      <time>2017-09-27T02:28:38Z</time>
    </trkpt>
    <trkpt lat="-30.26110095" lon="153.128454946">
      <ele>77.0</ele>
      <time>2017-09-27T02:28:42Z</time>
    </trkpt>
    <trkpt lat="-30.261839982" lon="153.128600959">
      <ele>73.6</ele>
      <time>2017-09-27T02:28:46Z</time>
    </trkpt>
    <trkpt lat="-30.262574991" lon="153.128825929">
      <ele>71.4</ele>
      <time>2017-09-27T02:28:50Z</time>
    </trkpt>
    <trkpt lat="-30.263270941" lon="153.12913497">
      <ele>68.8</ele>
      <time>2017-09-27T02:28:54Z</time>
    </trkpt>
    <trkpt lat="-30.263970997" lon="153.129515927">
      <ele>65.2</ele>
      <time>2017-09-27T02:28:58Z</time>
    </trkpt>
    <trkpt lat="-30.264650937" lon="153.12992597">
      <ele>61.8</ele>
      <time>2017-09-27T02:29:02Z</time>
    </trkpt>
    <trkpt lat="-30.265297936" lon="153.130354956">
      <ele>60.0</ele>
      <time>2017-09-27T02:29:06Z</time>
    </trkpt>
    <trkpt lat="-30.26592792" lon="153.130812943">
      <ele>59.0</ele>
      <time>2017-09-27T02:29:10Z</time>
    </trkpt>
    <trkpt lat="-30.266525969" lon="153.131314935">
      <ele>57.4</ele>
      <time>2017-09-27T02:29:14Z</time>
    </trkpt>
    <trkpt lat="-30.267112954" lon="153.131830925">
      <ele>56.8</ele>
      <time>2017-09-27T02:29:18Z</time>
    </trkpt>
    <trkpt lat="-30.267670937" lon="153.132375916">
      <ele>56.2</ele>
      <time>2017-09-27T02:29:22Z</time>
    </trkpt>
    <trkpt lat="-30.268207965" lon="153.132915962">
      <ele>55.8</ele>
      <time>2017-09-27T02:29:26Z</time>
    </trkpt>
    <trkpt lat="-30.268732924" lon="153.133442933">
      <ele>53.6</ele>
      <time>2017-09-27T02:29:30Z</time>
    </trkpt>
    <trkpt lat="-30.269297948" lon="153.133944925">
      <ele>52.0</ele>
      <time>2017-09-27T02:29:34Z</time>
    </trkpt>
    <trkpt lat="-30.269859955" lon="153.13441297">
      <ele>50.2</ele>
      <time>2017-09-27T02:29:38Z</time>
    </trkpt>
    <trkpt lat="-30.270449957" lon="153.134762999">
      <ele>49.2</ele>
      <time>2017-09-27T02:29:42Z</time>
    </trkpt>
    <trkpt lat="-30.271100979" lon="153.135044966">
      <ele>49.2</ele>
      <time>2017-09-27T02:29:46Z</time>
    </trkpt>
    <trkpt lat="-30.271752924" lon="153.135214951">
      <ele>50.2</ele>
      <time>2017-09-27T02:29:50Z</time>
    </trkpt>
    <trkpt lat="-30.272379974" lon="153.135114955">
      <ele>51.4</ele>
      <time>2017-09-27T02:29:54Z</time>
    </trkpt>
    <trkpt lat="-30.272942986" lon="153.134725951">
      <ele>52.0</ele>
      <time>2017-09-27T02:29:58Z</time>
    </trkpt>
    <trkpt lat="-30.273487978" lon="153.134375922">
      <ele>56.8</ele>
      <time>2017-09-27T02:30:02Z</time>
    </trkpt>
    <trkpt lat="-30.274074962" lon="153.134280955">
      <ele>62.8</ele>
      <time>2017-09-27T02:30:06Z</time>
    </trkpt>
    <trkpt lat="-30.274662953" lon="153.134489916">
      <ele>68.6</ele>
      <time>2017-09-27T02:30:10Z</time>
    </trkpt>
    <trkpt lat="-30.275142984" lon="153.134999955">
      <ele>72.4</ele>
      <time>2017-09-27T02:30:14Z</time>
    </trkpt>
    <trkpt lat="-30.275547998" lon="153.135590963">
      <ele>77.2</ele>
      <time>2017-09-27T02:30:18Z</time>
    </trkpt>
    <trkpt lat="-30.275917975" lon="153.136130925">
      <ele>81.0</ele>
      <time>2017-09-27T02:30:22Z</time>
    </trkpt>
    <trkpt lat="-30.276354924" lon="153.136519929">
      <ele>82.0</ele>
      <time>2017-09-27T02:30:26Z</time>
    </trkpt>
    <trkpt lat="-30.27690595" lon="153.136567958">
      <ele>80.4</ele>
      <time>2017-09-27T02:30:30Z</time>
    </trkpt>
    <trkpt lat="-30.277412971" lon="153.136239974">
      <ele>76.0</ele>
      <time>2017-09-27T02:30:34Z</time>
    </trkpt>
    <trkpt lat="-30.277740955" lon="153.135632956">
      <ele>70.4</ele>
      <time>2017-09-27T02:30:38Z</time>
    </trkpt>
    <trkpt lat="-30.277824942" lon="153.134859977">
      <ele>64.8</ele>
      <time>2017-09-27T02:30:42Z</time>
    </trkpt>
    <trkpt lat="-30.277862996" lon="153.134057997">
      <ele>59.4</ele>
      <time>2017-09-27T02:30:46Z</time>
    </trkpt>
    <trkpt lat="-30.278095929" lon="153.133339919">
      <ele>57.6</ele>
      <time>2017-09-27T02:30:50Z</time>
    </trkpt>
    <trkpt lat="-30.278579984" lon="153.132834993">
      <ele>54.8</ele>
      <time>2017-09-27T02:30:54Z</time>
    </trkpt>
    <trkpt lat="-30.279147942" lon="153.132415982">
      <ele>52.4</ele>
      <time>2017-09-27T02:30:58Z</time>
    </trkpt>
    <trkpt lat="-30.27972294" lon="153.132017925">
      <ele>52.0</ele>
      <time>2017-09-27T02:31:02Z</time>
    </trkpt>
    <trkpt lat="-30.280195931" lon="153.131585922">
      <ele>50.4</ele>
      <time>2017-09-27T02:31:06Z</time>
    </trkpt>
    <trkpt lat="-30.280574961" lon="153.13107295">
      <ele>49.6</ele>
      <time>2017-09-27T02:31:10Z</time>
    </trkpt>
    <trkpt lat="-30.280967988" lon="153.130535921">
      <ele>45.2</ele>
      <time>2017-09-27T02:31:14Z</time>
    </trkpt>
    <trkpt lat="-30.281377947" lon="153.129992941">
      <ele>43.8</ele>
      <time>2017-09-27T02:31:18Z</time>
    </trkpt>
    <trkpt lat="-30.281732921" lon="153.129507964">
      <ele>42.2</ele>
      <time>2017-09-27T02:31:22Z</time>
    </trkpt>
    <trkpt lat="-30.282019917" lon="153.129122984">
      <ele>40.4</ele>
      <time>2017-09-27T02:31:26Z</time>
    </trkpt>
    <trkpt lat="-30.28219996" lon="153.128880998">
      <ele>40.4</ele>
      <time>2017-09-27T02:31:30Z</time>
    </trkpt>
    <trkpt lat="-30.28228797" lon="153.128760969">
      <ele>40.0</ele>
      <time>2017-09-27T02:31:34Z</time>
    </trkpt>
    <trkpt lat="-30.282315966" lon="153.128739931">
      <ele>40.4</ele>
      <time>2017-09-27T02:32:26Z</time>
    </trkpt>
    <trkpt lat="-30.282392995" lon="153.128634989">
      <ele>40.0</ele>
      <time>2017-09-27T02:32:30Z</time>
    </trkpt>
    <trkpt lat="-30.282565998" lon="153.128397949">
      <ele>39.4</ele>
      <time>2017-09-27T02:32:34Z</time>
    </trkpt>
    <trkpt lat="-30.282759955" lon="153.128134925">
      <ele>38.4</ele>
      <time>2017-09-27T02:32:38Z</time>
    </trkpt>
    <trkpt lat="-30.282920972" lon="153.127917917">
      <ele>38.6</ele>
      <time>2017-09-27T02:32:42Z</time>
    </trkpt>
    <trkpt lat="-30.283045946" lon="153.12773494">
      <ele>38.0</ele>
      <time>2017-09-27T02:32:46Z</time>
    </trkpt>
    <trkpt lat="-30.283150971" lon="153.127592951">
      <ele>38.8</ele>
      <time>2017-09-27T02:32:50Z</time>
    </trkpt>
    <trkpt lat="-30.283320956" lon="153.127364963">
      <ele>39.0</ele>
      <time>2017-09-27T02:32:54Z</time>
    </trkpt>
    <trkpt lat="-30.283499993" lon="153.127134964">
      <ele>38.8</ele>
      <time>2017-09-27T02:32:58Z</time>
    </trkpt>
    <trkpt lat="-30.283727981" lon="153.126879986">
      <ele>38.6</ele>
      <time>2017-09-27T02:33:02Z</time>
    </trkpt>
    <trkpt lat="-30.283980947" lon="153.126639929">
      <ele>38.4</ele>
      <time>2017-09-27T02:33:06Z</time>
    </trkpt>
    <trkpt lat="-30.284235924" lon="153.126430968">
      <ele>38.4</ele>
      <time>2017-09-27T02:33:10Z</time>
    </trkpt>
    <trkpt lat="-30.28448998" lon="153.126235921">
      <ele>38.4</ele>
      <time>2017-09-27T02:33:14Z</time>
    </trkpt>
    <trkpt lat="-30.284675974" lon="153.126097955">
      <ele>38.8</ele>
      <time>2017-09-27T02:33:18Z</time>
    </trkpt>
    <trkpt lat="-30.284882924" lon="153.125950936">
      <ele>38.4</ele>
      <time>2017-09-27T02:33:22Z</time>
    </trkpt>
    <trkpt lat="-30.28514293" lon="153.125754967">
      <ele>38.4</ele>
      <time>2017-09-27T02:33:26Z</time>
    </trkpt>
    <trkpt lat="-30.285449959" lon="153.125524968">
      <ele>38.4</ele>
      <time>2017-09-27T02:33:30Z</time>
    </trkpt>
    <trkpt lat="-30.28576998" lon="153.125287928">
      <ele>38.0</ele>
      <time>2017-09-27T02:33:34Z</time>
    </trkpt>
    <trkpt lat="-30.286117997" lon="153.125020964">
      <ele>38.2</ele>
      <time>2017-09-27T02:33:38Z</time>
    </trkpt>
    <trkpt lat="-30.286487974" lon="153.124724999">
      <ele>38.0</ele>
      <time>2017-09-27T02:33:42Z</time>
    </trkpt>
    <trkpt lat="-30.28685594" lon="153.12441797">
      <ele>37.8</ele>
      <time>2017-09-27T02:33:46Z</time>
    </trkpt>
    <trkpt lat="-30.287140924" lon="153.124204986">
      <ele>38.0</ele>
      <time>2017-09-27T02:33:50Z</time>
    </trkpt>
    <trkpt lat="-30.28724595" lon="153.124120999">
      <ele>39.4</ele>
      <time>2017-09-27T02:33:54Z</time>
    </trkpt>
    <trkpt lat="-30.287257936" lon="153.124124939">
      <ele>39.4</ele>
      <time>2017-09-27T02:34:42Z</time>
    </trkpt>
    <trkpt lat="-30.287254918" lon="153.124124939">
      <ele>40.0</ele>
      <time>2017-09-27T02:34:50Z</time>
    </trkpt>
    <trkpt lat="-30.28724595" lon="153.124112953">
      <ele>40.6</ele>
      <time>2017-09-27T02:34:54Z</time>
    </trkpt>
    <trkpt lat="-30.287225917" lon="153.124055956">
      <ele>41.6</ele>
      <time>2017-09-27T02:34:58Z</time>
    </trkpt>
    <trkpt lat="-30.287205968" lon="153.124005999">
      <ele>38.6</ele>
      <time>2017-09-27T02:35:02Z</time>
    </trkpt>
    <trkpt lat="-30.287230946" lon="153.123985967">
      <ele>40.4</ele>
      <time>2017-09-27T02:35:06Z</time>
    </trkpt>
    <trkpt lat="-30.287264977" lon="153.123959983">
      <ele>38.4</ele>
      <time>2017-09-27T02:35:10Z</time>
    </trkpt>
    <trkpt lat="-30.287277969" lon="153.123885971">
      <ele>39.6</ele>
      <time>2017-09-27T02:35:14Z</time>
    </trkpt>
    <trkpt lat="-30.287274951" lon="153.123812964">
      <ele>39.8</ele>
      <time>2017-09-27T02:35:18Z</time>
    </trkpt>
    <trkpt lat="-30.287265982" lon="153.12372596">
      <ele>40.0</ele>
      <time>2017-09-27T02:35:22Z</time>
    </trkpt>
    <trkpt lat="-30.287259948" lon="153.123657983">
      <ele>41.4</ele>
      <time>2017-09-27T02:35:26Z</time>
    </trkpt>
    <trkpt lat="-30.287259948" lon="153.12359998">
      <ele>40.0</ele>
      <time>2017-09-27T02:35:30Z</time>
    </trkpt>
    <trkpt lat="-30.287240921" lon="153.123530997">
      <ele>40.4</ele>
      <time>2017-09-27T02:35:34Z</time>
    </trkpt>
    <trkpt lat="-30.287224995" lon="153.123475928">
      <ele>42.8</ele>
      <time>2017-09-27T02:35:38Z</time>
    </trkpt>
    <trkpt lat="-30.28720798" lon="153.123422954">
      <ele>42.8</ele>
      <time>2017-09-27T02:35:42Z</time>
    </trkpt>
    <trkpt lat="-30.28720798" lon="153.123372998">
      <ele>41.2</ele>
      <time>2017-09-27T02:35:46Z</time>
    </trkpt>
    <trkpt lat="-30.287194988" lon="153.123307955">
      <ele>41.8</ele>
      <time>2017-09-27T02:35:50Z</time>
    </trkpt>
    <trkpt lat="-30.287172943" lon="153.123242995">
      <ele>43.0</ele>
      <time>2017-09-27T02:35:54Z</time>
    </trkpt>
    <trkpt lat="-30.287147965" lon="153.123174934">
      <ele>43.4</ele>
      <time>2017-09-27T02:35:58Z</time>
    </trkpt>
    <trkpt lat="-30.287125921" lon="153.123112991">
      <ele>45.0</ele>
      <time>2017-09-27T02:36:02Z</time>
    </trkpt>
    <trkpt lat="-30.287109995" lon="153.122994974">
      <ele>40.4</ele>
      <time>2017-09-27T02:36:06Z</time>
    </trkpt>
    <trkpt lat="-30.287095997" lon="153.122852985">
      <ele>44.2</ele>
      <time>2017-09-27T02:36:10Z</time>
    </trkpt>
    <trkpt lat="-30.287070936" lon="153.12272097">
      <ele>39.8</ele>
      <time>2017-09-27T02:36:14Z</time>
    </trkpt>
    <trkpt lat="-30.287059955" lon="153.12259499">
      <ele>41.6</ele>
      <time>2017-09-27T02:36:18Z</time>
    </trkpt>
    <trkpt lat="-30.287040928" lon="153.122485941">
      <ele>39.8</ele>
      <time>2017-09-27T02:36:22Z</time>
    </trkpt>
    <trkpt lat="-30.287040928" lon="153.122425927">
      <ele>40.4</ele>
      <time>2017-09-27T02:36:26Z</time>
    </trkpt>
    <trkpt lat="-30.287034977" lon="153.12235292">
      <ele>38.4</ele>
      <time>2017-09-27T02:36:30Z</time>
    </trkpt>
    <trkpt lat="-30.287030954" lon="153.122270945">
      <ele>40.8</ele>
      <time>2017-09-27T02:36:34Z</time>
    </trkpt>
    <trkpt lat="-30.287019974" lon="153.122187965">
      <ele>40.0</ele>
      <time>2017-09-27T02:36:38Z</time>
    </trkpt>
    <trkpt lat="-30.28700497" lon="153.122114958">
      <ele>39.8</ele>
      <time>2017-09-27T02:36:42Z</time>
    </trkpt>
    <trkpt lat="-30.287002958" lon="153.122045975">
      <ele>37.4</ele>
      <time>2017-09-27T02:36:46Z</time>
    </trkpt>
    <trkpt lat="-30.287009999" lon="153.121972969">
      <ele>40.8</ele>
      <time>2017-09-27T02:36:50Z</time>
    </trkpt>
    <trkpt lat="-30.287002958" lon="153.121899962">
      <ele>40.0</ele>
      <time>2017-09-27T02:36:54Z</time>
    </trkpt>
    <trkpt lat="-30.286980998" lon="153.121829974">
      <ele>38.8</ele>
      <time>2017-09-27T02:36:58Z</time>
    </trkpt>
    <trkpt lat="-30.286960965" lon="153.121740958">
      <ele>40.4</ele>
      <time>2017-09-27T02:37:02Z</time>
    </trkpt>
    <trkpt lat="-30.286942944" lon="153.121674992">
      <ele>40.8</ele>
      <time>2017-09-27T02:37:06Z</time>
    </trkpt>
    <trkpt lat="-30.28692794" lon="153.121620929">
      <ele>39.8</ele>
      <time>2017-09-27T02:37:10Z</time>
    </trkpt>
    <trkpt lat="-30.286904974" lon="153.121559992">
      <ele>39.6</ele>
      <time>2017-09-27T02:37:14Z</time>
    </trkpt>
    <trkpt lat="-30.286884941" lon="153.121482963">
      <ele>38.4</ele>
      <time>2017-09-27T02:37:18Z</time>
    </trkpt>
    <trkpt lat="-30.286870943" lon="153.121417919">
      <ele>39.4</ele>
      <time>2017-09-27T02:37:22Z</time>
    </trkpt>
    <trkpt lat="-30.286845965" lon="153.12139797">
      <ele>39.6</ele>
      <time>2017-09-27T02:37:30Z</time>
    </trkpt>
    <trkpt lat="-30.286810929" lon="153.12134793">
      <ele>39.0</ele>
      <time>2017-09-27T02:37:34Z</time>
    </trkpt>
    <trkpt lat="-30.28679492" lon="153.121279953">
      <ele>38.6</ele>
      <time>2017-09-27T02:37:38Z</time>
    </trkpt>
    <trkpt lat="-30.286770947" lon="153.121190937">
      <ele>40.0</ele>
      <time>2017-09-27T02:37:42Z</time>
    </trkpt>
    <trkpt lat="-30.286754938" lon="153.121112986">
      <ele>41.8</ele>
      <time>2017-09-27T02:37:46Z</time>
    </trkpt>
    <trkpt lat="-30.286732977" lon="153.121040985">
      <ele>40.8</ele>
      <time>2017-09-27T02:37:50Z</time>
    </trkpt>
    <trkpt lat="-30.286709927" lon="153.120980971">
      <ele>39.2</ele>
      <time>2017-09-27T02:37:54Z</time>
    </trkpt>
    <trkpt lat="-30.286684949" lon="153.120910982">
      <ele>40.4</ele>
      <time>2017-09-27T02:37:58Z</time>
    </trkpt>
    <trkpt lat="-30.28667598" lon="153.120845938">
      <ele>38.4</ele>
      <time>2017-09-27T02:38:02Z</time>
    </trkpt>
    <trkpt lat="-30.286665922" lon="153.120779973">
      <ele>40.0</ele>
      <time>2017-09-27T02:38:06Z</time>
    </trkpt>
    <trkpt lat="-30.286665922" lon="153.120707972">
      <ele>41.2</ele>
      <time>2017-09-27T02:38:10Z</time>
    </trkpt>
    <trkpt lat="-30.286662988" lon="153.120639995">
      <ele>40.6</ele>
      <time>2017-09-27T02:38:14Z</time>
    </trkpt>
    <trkpt lat="-30.286655948" lon="153.120562965">
      <ele>40.6</ele>
      <time>2017-09-27T02:38:18Z</time>
    </trkpt>
    <trkpt lat="-30.286645973" lon="153.120492976">
      <ele>41.4</ele>
      <time>2017-09-27T02:38:22Z</time>
    </trkpt>
    <trkpt lat="-30.286644967" lon="153.120425921">
      <ele>42.2</ele>
      <time>2017-09-27T02:38:26Z</time>
    </trkpt>
    <trkpt lat="-30.286639938" lon="153.120362973">
      <ele>42.0</ele>
      <time>2017-09-27T02:38:30Z</time>
    </trkpt>
    <trkpt lat="-30.286629964" lon="153.120295918">
      <ele>42.4</ele>
      <time>2017-09-27T02:38:34Z</time>
    </trkpt>
    <trkpt lat="-30.286627952" lon="153.120235987">
      <ele>42.6</ele>
      <time>2017-09-27T02:38:38Z</time>
    </trkpt>
    <trkpt lat="-30.286634993" lon="153.120174967">
      <ele>42.4</ele>
      <time>2017-09-27T02:38:42Z</time>
    </trkpt>
    <trkpt lat="-30.286627952" lon="153.120114952">
      <ele>44.2</ele>
      <time>2017-09-27T02:38:46Z</time>
    </trkpt>
    <trkpt lat="-30.286615966" lon="153.120052926">
      <ele>44.8</ele>
      <time>2017-09-27T02:38:50Z</time>
    </trkpt>
    <trkpt lat="-30.286612948" lon="153.119992996">
      <ele>44.6</ele>
      <time>2017-09-27T02:38:54Z</time>
    </trkpt>
    <trkpt lat="-30.286615966" lon="153.119934993">
      <ele>45.6</ele>
      <time>2017-09-27T02:38:58Z</time>
    </trkpt>
    <trkpt lat="-30.286605991" lon="153.119875984">
      <ele>45.6</ele>
      <time>2017-09-27T02:39:02Z</time>
    </trkpt>
    <trkpt lat="-30.286605991" lon="153.119812952">
      <ele>46.2</ele>
      <time>2017-09-27T02:39:06Z</time>
    </trkpt>
    <trkpt lat="-30.286604986" lon="153.119755955">
      <ele>46.2</ele>
      <time>2017-09-27T02:39:10Z</time>
    </trkpt>
    <trkpt lat="-30.286600962" lon="153.119692924">
      <ele>45.8</ele>
      <time>2017-09-27T02:39:14Z</time>
    </trkpt>
    <trkpt lat="-30.286599956" lon="153.119629975">
      <ele>46.0</ele>
      <time>2017-09-27T02:39:18Z</time>
    </trkpt>
    <trkpt lat="-30.286599956" lon="153.119570967">
      <ele>45.6</ele>
      <time>2017-09-27T02:39:22Z</time>
    </trkpt>
    <trkpt lat="-30.286585959" lon="153.119509947">
      <ele>46.6</ele>
      <time>2017-09-27T02:39:26Z</time>
    </trkpt>
    <trkpt lat="-30.286567938" lon="153.119442975">
      <ele>46.0</ele>
      <time>2017-09-27T02:39:30Z</time>
    </trkpt>
    <trkpt lat="-30.286570955" lon="153.11937592">
      <ele>47.0</ele>
      <time>2017-09-27T02:39:34Z</time>
    </trkpt>
    <trkpt lat="-30.286557963" lon="153.119314983">
      <ele>47.0</ele>
      <time>2017-09-27T02:39:38Z</time>
    </trkpt>
    <trkpt lat="-30.286572967" lon="153.119262932">
      <ele>46.8</ele>
      <time>2017-09-27T02:39:42Z</time>
    </trkpt>
    <trkpt lat="-30.286575984" lon="153.119235942">
      <ele>48.2</ele>
      <time>2017-09-27T02:39:46Z</time>
    </trkpt>
    <trkpt lat="-30.286595933" lon="153.119219933">
      <ele>47.8</ele>
      <time>2017-09-27T02:39:50Z</time>
    </trkpt>
    <trkpt lat="-30.286609931" lon="153.119210964">
      <ele>49.4</ele>
      <time>2017-09-27T02:39:54Z</time>
    </trkpt>
    <trkpt lat="-30.286635999" lon="153.119197972">
      <ele>50.4</ele>
      <time>2017-09-27T02:39:58Z</time>
    </trkpt>
    <trkpt lat="-30.286635999" lon="153.119210964">
      <ele>51.0</ele>
      <time>2017-09-27T02:40:02Z</time>
    </trkpt>
    <trkpt lat="-30.286642956" lon="153.119229991">
      <ele>51.4</ele>
      <time>2017-09-27T02:40:06Z</time>
    </trkpt>
    <trkpt lat="-30.286660977" lon="153.119230997">
      <ele>52.0</ele>
      <time>2017-09-27T02:40:14Z</time>
    </trkpt>
    <trkpt lat="-30.286669945" lon="153.119202917">
      <ele>52.2</ele>
      <time>2017-09-27T02:40:18Z</time>
    </trkpt>
 
   </trkseg>
</trk>
</gpx>